[[[{"header":{"parameterUnit":"kt","parameterCategory":2,"dx":1,"dy":1,"la1":29.46422004699707,"la2":30.564109802246094,"lo1":-89.4342041015625,"lo2":-87.934326171875,"nx":46,"ny":34,"refTime":"2022-10-09T00:00:00:Z","depth":"0","parameterNumber":2,"parameterNumberName":"U-component_of_CURRENTS"},"data":[-0.1244,-0.1372,-0.1324,-0.1014,-0.0587,-0.0294,-0.0219,0,-0.0464,-0.031,0.0646,0.063,0.0171,-0.008,-0.0497,-0.1009,-0.1479,-0.1837,-0.221,-0.2915,-0.4015,-0.5147,-0.6273,-0.662,-0.5889,-0.5045,-0.4383,-0.3946,-0.3737,-0.3647,-0.3529,-0.3294,-0.3081,-0.2846,-0.2584,-0.2499,-0.2547,-0.2621,-0.2504,-0.2162,-0.1725,-0.1169,-0.0443,0.0342,0.1078,0.1757,-0.1159,-0.1484,-0.1559,-0.1319,-0.1046,-0.1089,-0.1543,-0.1858,0,0.0166,0.0934,0.0368,-0.0614,-0.039,-0.0529,-0.0977,-0.1474,-0.1895,-0.2189,-0.2408,-0.2803,-0.3609,-0.4634,-0.5606,-0.6049,-0.5841,-0.5574,-0.5291,-0.488,-0.4362,-0.3743,-0.3209,-0.3033,-0.3182,-0.3326,-0.338,-0.3273,-0.292,-0.2493,-0.2141,-0.1821,-0.1388,-0.0838,-0.0224,0.0416,0.103,-0.102,-0.1324,-0.1356,-0.1175,-0.095,-0.0833,-0.0699,-0.023,0.1143,0.1426,0.0699,0,-0.0085,-0.0139,-0.0315,-0.0838,-0.1404,-0.1858,-0.221,-0.2456,-0.2616,-0.2824,-0.339,-0.4335,-0.5136,-0.5531,-0.5718,-0.583,-0.5665,-0.5035,-0.4175,-0.354,-0.3321,-0.3428,-0.3583,-0.3577,-0.339,-0.3006,-0.2392,-0.1767,-0.1383,-0.1143,-0.1009,-0.0838,-0.0577,-0.0352,-0.0523,-0.0721,-0.0806,-0.0763,-0.071,-0.0689,-0.0593,-0.0342,0.0037,0.0091,-0.0331,0.0635,0.1468,0.0892,0.0203,-0.0721,-0.1415,-0.189,-0.22,-0.2419,-0.2584,-0.2691,-0.2824,-0.3294,-0.4164,-0.4725,-0.4666,-0.4533,-0.4522,-0.4378,-0.3935,-0.3422,-0.3097,-0.2958,-0.2787,-0.2173,-0.1132,-0.0582,-0.0657,-0.055,-0.0368,-0.0459,-0.0747,-0.1073,-0.1404,-0.1879,0.047,0.0187,-0.0133,-0.0368,-0.0507,-0.0587,-0.0566,-0.047,-0.032,-0.0208,-0.0133,0.0182,0.0571,0.1089,0.0432,-0.1073,-0.173,-0.2072,-0.2274,-0.2392,-0.2483,-0.2568,-0.2605,-0.2702,-0.3161,-0.3924,-0.4143,-0.3636,-0.3049,-0.2616,-0.2301,-0.2029,-0.1789,-0.1554,-0.1137,-0.0801,-0.0731,-0.0625,-0.0555,-0.0448,-0.0315,-0.0491,-0.079,-0.1073,-0.1436,-0.1831,0.0769,0.0785,0.0331,-0.0139,-0.0459,-0.0625,-0.0657,-0.0614,-0.055,-0.0507,-0.0502,-0.0481,-0.0438,-0.0422,0,-0.11,-0.2269,-0.2371,-0.2387,-0.2365,-0.2365,-0.2387,-0.2403,-0.2413,-0.2531,-0.2936,-0.338,-0.3326,-0.2766,-0.1997,-0.1281,-0.0758,-0.0374,-0.0021,0.0347,0.0427,0.0133,-0.0454,-0.1014,-0.1095,-0.0892,-0.0913,-0.1185,-0.1367,-0.1436,-0.1559,0.1954,0.1458,0.055,-0.0101,-0.0609,-0.1025,-0.1041,-0.0844,-0.0753,-0.0731,-0.0801,-0.0993,-0.1447,-0.2269,-0.2776,0,-0.126,-0.2547,-0.2456,-0.228,-0.22,-0.2168,-0.2146,-0.213,-0.212,-0.2216,-0.2579,-0.284,-0.2499,-0.1623,-0.0667,0.0,0.0454,0.0763,0.0881,0.0715,0.0283,-0.0459,-0.1212,-0.1345,-0.1153,-0.1271,-0.1522,-0.1607,-0.1591,-0.1596,0,-0.0005,0.0069,0.0064,-0.0224,-0.1073,-0.1399,-0.0956,-0.0785,-0.0753,-0.0822,-0.0988,-0.1271,-0.1666,-0.204,-0.2189,0,-0.1303,-0.2403,-0.2109,-0.1981,-0.1922,-0.1879,-0.1837,-0.1783,-0.173,-0.1874,-0.2189,-0.2296,-0.1997,-0.1452,-0.0833,-0.0214,0.0272,0.0475,0.0336,-0.023,-0.1089,-0.1538,-0.1426,-0.1388,-0.1602,-0.1794,-0.1837,-0.1762,-0.1671,0,-0.0577,0,0.0176,0.0352,0,-0.0347,-0.0657,-0.0603,-0.0593,-0.0635,-0.0731,-0.0886,-0.1255,-0.1607,-0.1719,-0.1751,0,-0.0833,-0.1709,-0.1725,-0.1671,-0.1628,-0.1591,-0.1538,-0.1474,-0.1511,-0.1837,-0.2328,-0.2563,-0.2483,-0.2226,-0.181,-0.1415,-0.1185,-0.1228,-0.1559,-0.1778,-0.1735,-0.1714,-0.1794,-0.1927,-0.2013,-0.1959,-0.1858,-0.1783,0,0.0539,0.0769,0.0822,0,0.0091,-0.008,-0.0406,-0.0481,-0.0481,-0.0459,-0.0438,-0.031,-0.0876,-0.1372,-0.1041,-0.0897,0,-0.1046,-0.1874,-0.1564,-0.1442,-0.1399,-0.1377,-0.1367,-0.1361,-0.141,-0.1821,-0.2648,-0.3262,-0.3438,-0.3358,-0.3091,-0.2803,-0.26,-0.2381,-0.213,-0.2018,-0.2056,-0.205,-0.205,-0.2125,-0.2072,-0.1917,-0.1751,-0.1591,0,0,0,0,0,-0.0518,-0.0908,-0.0774,-0.0769,-0.0726,-0.0625,-0.0555,-0.0534,0,-0.023,-0.0363,-0.0267,0,0,-0.0475,-0.1014,-0.1111,-0.1153,-0.1185,-0.1228,-0.1287,-0.141,-0.1885,-0.2712,-0.339,-0.3705,-0.3721,-0.3561,-0.3294,-0.2969,-0.2723,-0.2654,-0.2563,-0.2301,-0.2146,-0.2184,-0.2226,-0.2098,-0.1863,-0.1575,-0.1324,0,0,0,0,0,0,-0.0502,-0.1228,-0.1452,-0.134,-0.1121,-0.103,-0.1201,-0.0518,0.0198,0.032,0.055,0,0,-0.0374,-0.0812,-0.0908,-0.0972,-0.103,-0.11,-0.1191,-0.1356,-0.1831,-0.2605,-0.3289,-0.3684,-0.3817,-0.378,-0.3652,-0.3476,-0.3241,-0.2878,-0.2461,-0.2237,-0.221,-0.2232,-0.2141,-0.1943,-0.1687,-0.142,-0.1319,0,0,0,0,0,0,-0.1046,-0.2125,-0.1821,-0.1447,-0.1276,-0.1078,-0.094,-0.0737,-0.0571,-0.0539,0,0,0,-0.0331,-0.0705,-0.0785,-0.0854,-0.0929,-0.1004,-0.1084,-0.1207,-0.1522,-0.2258,-0.3011,-0.3401,-0.3583,-0.3604,-0.3476,-0.3203,-0.284,-0.2472,-0.2269,-0.2312,-0.2371,-0.2194,-0.1911,-0.1714,-0.1516,-0.142,-0.1447,0,0,0,0,0,0,-0.126,-0.2371,-0.1634,-0.0961,-0.0886,-0.0924,-0.0988,-0.1073,-0.1324,-0.1933,-0.1826,-0.1313,0,-0.031,-0.0657,-0.0721,-0.079,-0.0854,-0.0913,-0.0972,-0.1014,-0.1127,-0.1548,-0.229,-0.2846,-0.3001,-0.2963,-0.283,-0.2659,-0.2552,-0.2536,-0.2515,-0.2376,-0.2136,-0.1874,-0.165,-0.1495,-0.1484,-0.1586,-0.1644,0,0,0,0,0,0,0,-0.0972,-0.1415,-0.0694,-0.0619,-0.0801,-0.0886,-0.0945,-0.1025,-0.1084,-0.0956,-0.0822,0,-0.0304,-0.0635,-0.0699,-0.0758,-0.0806,-0.0838,-0.087,-0.0892,-0.0902,-0.0934,-0.1212,-0.1858,-0.2387,-0.2541,-0.2541,-0.2477,-0.2387,-0.2264,-0.2098,-0.1885,-0.1666,-0.1532,-0.1527,-0.1623,-0.173,-0.1773,-0.1751,0,0,0,-0.0251,-0.0497,0,0,0,-0.0342,-0.0481,-0.0406,-0.0598,-0.0683,-0.071,-0.0699,-0.063,-0.0491,-0.04,0,-0.0299,-0.0625,-0.0689,-0.0758,-0.0801,-0.0838,-0.086,-0.0865,-0.086,-0.0892,-0.0961,-0.1073,-0.1249,-0.1447,-0.158,-0.1612,-0.157,-0.1506,-0.1447,-0.1442,-0.1511,-0.1639,-0.1757,-0.1837,-0.1858,-0.1821,-0.1746,0,0,-0.0037,-0.0726,-0.1415,-0.0812,-0.0432,-0.0566,-0.0731,-0.0833,-0.055,-0.0481,-0.0481,-0.0475,-0.0443,-0.0336,-0.0123,0.0021,0,-0.0267,-0.0582,-0.0689,-0.0785,-0.0876,-0.0977,-0.1068,-0.1121,-0.1143,-0.1191,-0.1244,-0.1265,-0.126,-0.126,-0.1265,-0.1281,-0.1308,-0.1367,-0.1474,-0.1607,-0.1746,-0.1853,-0.1906,-0.1922,-0.189,-0.1826,-0.1735,0,0,-0.1004,-0.1719,-0.0902,-0.0368,0,0,-0.0715,-0.1377,-0.0972,-0.0539,-0.0438,-0.0406,-0.0395,-0.0374,-0.0352,0,0.0208,0.0101,-0.0384,-0.0662,-0.0854,-0.1046,-0.1281,-0.1506,-0.1687,-0.1831,-0.1933,-0.1922,-0.1815,-0.1671,-0.1543,-0.1463,-0.1447,-0.1484,-0.1548,-0.1623,-0.1692,-0.1751,-0.181,-0.1869,-0.1895,-0.1885,-0.1831,-0.1746,-0.0454,-0.0705,-0.0502,0,0,0,0,0,-0.0694,-0.1276,-0.0993,-0.0699,-0.0518,-0.0448,-0.0523,-0.0715,-0.0828,-0.04,-0.0011,-0.0198,-0.0486,-0.0742,-0.0977,-0.1244,-0.1522,-0.1735,-0.1906,-0.2056,-0.213,-0.2093,-0.197,-0.1805,-0.1639,-0.1527,-0.1516,-0.1586,-0.1698,-0.1837,-0.1954,-0.2002,-0.1975,-0.1933,-0.1885,-0.1847,-0.1805,-0.1725,-0.0502,-0.0731,-0.1447,-0.1591,-0.1516,0,0,0,-0.0534,-0.1073,-0.1052,-0.0929,-0.0689,-0.0481,-0.0497,-0.0635,-0.0619,-0.0443,-0.032,-0.0395,-0.0603,-0.0849,-0.11,-0.1345,-0.158,-0.1799,-0.2013,-0.2216,-0.2381,-0.2397,-0.2248,-0.205,-0.1874,-0.1794,-0.1885,-0.2136,-0.2531,-0.2969,-0.3187,-0.3054,-0.2686,-0.2306,-0.1997,-0.1821,-0.1762,-0.1692,0,-0.0283,-0.0635,-0.1084,-0.1548,-0.1634,0,0,-0.024,-0.0662,-0.1014,-0.1153,-0.0897,-0.0497,-0.0438,-0.0641,-0.0646,-0.0443,-0.0315,-0.0379,-0.0598,-0.0902,-0.1212,-0.1522,-0.1933,-0.2424,-0.2734,-0.2686,-0.2648,-0.2771,-0.284,-0.2776,-0.2814,-0.3081,-0.3326,-0.3508,-0.3716,-0.3972,-0.4111,-0.386,-0.3396,-0.3033,-0.2376,-0.1778,-0.1671,-0.1639,0.1442,0.0747,0.0198,-0.0603,-0.1335,-0.149,-0.0934,0.0096,0.0438,-0.0037,-0.0529,-0.095,-0.086,-0.0283,-0.0187,-0.0667,-0.0881,-0.0667,-0.0406,-0.0272,-0.0416,-0.0828,-0.1361,-0.2162,-0.2995,-0.3508,-0.3668,-0.3049,-0.252,-0.2814,-0.3219,-0.3257,-0.3518,-0.4341,-0.4891,-0.488,-0.4415,-0.4154,-0.4261,-0.4325,-0.4346,-0.4127,-0.2942,-0.181,-0.157,-0.1564,0.0395,0.0763,0.0513,0.008,-0.0133,-0.0117,-0.0128,-0.0128,0.0117,0.0294,0.0101,-0.0497,-0.0865,-0.0806,0,0,-0.0988,-0.1826,-0.1799,-0.1431,-0.0678,-0.0534,-0.087,-0.15,-0.2077,-0.2461,-0.2723,-0.2782,0,0,0,-0.1447,-0.3374,-0.4239,-0.4757,-0.4517,-0.3753,-0.3545,-0.3689,-0.3663,-0.3673,0,-0.1143,-0.2056,-0.1714,-0.1586,0,0.0582,0.1153,0.0833,0.0475,0.0416,0.0416,0.0438,0.0454,0,0,0,-0.0635,-0.1698,-0.1559,-0.0993,0,-0.0897,-0.1954,-0.2114,0,0,0,0,0,0,0,-0.149,-0.1981,-0.0929,-0.1196,-0.1986,-0.2552,-0.2654,0,0,-0.1959,-0.3914,-0.4613,-0.5804,-0.5996,-0.3337,-0.0982,0,0,0,0,0,0.0678,0.1239,0.1041,0.0977,0.0934,0.0689,0.031,0.0123,0.0123,0.0294,0.0166,-0.0347,-0.0721,-0.102,-0.1127,-0.189,-0.3449,-0.4613,-0.4052,-0.2387,-0.1436,-0.1009,-0.0577,-0.0208,-0.0064,-0.0336,-0.0993,-0.1644,-0.2349,-0.3166,-0.4282,-0.5168,-0.48,-0.3946,-0.3567,-0.3518,0,0,0,-0.2595,-0.4933,-0.3823,-0.2408,0,0,0,0,0.0646,0.1458,0.1655,0.1757,0.1815,0.1463,0.0972,0.0785,0.0577,0.0224,-0.0069,-0.0224,-0.0347,-0.0625,-0.1185,-0.166,-0.1741,-0.166,-0.1372,-0.1207,-0.1703,-0.212,-0.1319,0.0043,0.0432,-0.0166,-0.0683,-0.0865,-0.157,-0.2584,-0.3054,-0.3166,-0.4095,-0.5627,-0.6241,-0.5718,-0.4634,-0.2365,-0.1046,-0.166,-0.1965,-0.1682,0,0,0,0,0,0,0,0,0,0.0411,0.1025,0.1292,0.1143,0.0806,0.0603,0.0497,0.0481,0.0432,0.0416,0.0491,0.0812,0.0977,0.0833,0.0822,0.0491,-0.0539,-0.1228,0,0,0,0,0.0085,0.0374,0.0235,-0.0155,-0.0208,0,0,0,0,0,-0.1095,-0.2173,-0.2232,-0.2162,-0.158,0,0,0,0,0,0,0,0,0,0,0,0,0.0342,0.0838,0.1025,0.1105,0.1223,0.1372,0.1404,0.1153,0.095,0,0,0,0,0,0,0,0,0,0,0,0,0.0304,0.0534,0.0454,0,0,0,0,0,-0.0747,-0.173,-0.2098,-0.213,-0.1612,0,0,0,0,0,0,0,0,0,0,0,0,0,0,0,0,0,0,0,0,0,0,0,0,0,0,0,0,0,0,0,0,0,0,0,0,0,0,0,0,0,-0.0715,-0.1639,-0.204,-0.2045,-0.165,0,0,0,0,0,0,0,0,0,0,0,0,0,0,0,0,0,0,0,0,0,0,0,0,0,0,0,0,0,0,0,0,0,0,0,0,0,0,0,0,0,-0.0721,-0.15,-0.1746,-0.1751,-0.1468,0,0,0,0,0,0,0,0,0,0,0,0,0,0,0,0,0,0,0,0,0,0,0,0,0,0,0,0,0,0,0,0,0,0,0,0,0,0,0,0,0,0,-0.1132,-0.1655,-0.1692,-0.15,0,0,0,0,0,0,0,0,0,0,0,0,0,0,0,0,0,0,0,0,0,0,0,0,0,0,0,0,0,0,0,0,0,0,0,0,0,0,0,0,0,0,-0.0849,-0.1805,-0.1735,-0.1442,0,0,0,0,0,0,0,0,0,0,0,0,0,0,0,0,0,0,0,0,0,0,0,0,0,0,0,0,0,0,0,0,0,0,0,0,0,0,0,0,0,0,-0.0662,-0.1217,-0.1249,-0.1132,0,0,0,0,0,0,0,0,0,0,0,0,0,0,0,0,0,0,0,0,0,0,0,0,0,0,0,0,0,0,0,0,0,0,0,0,0,0,0,0,0,0,0.0166,0.0107,-0.0507,-0.0641,0]}],[{"header":{"parameterUnit":"kt","parameterCategory":2,"dx":1,"dy":1,"la1":29.46422004699707,"la2":30.564109802246094,"lo1":-89.4342041015625,"lo2":-87.934326171875,"nx":46,"ny":34,"refTime":"2022-10-09T00:00:00:Z","depth":"0","parameterNumber":3,"parameterNumberName":"V-component_of_CURRENTS"},"data":[-0.1324,-0.2114,-0.283,-0.3321,-0.3561,-0.3668,-0.4143,0,-0.0993,-0.4063,-0.4453,-0.3817,-0.4811,-0.5158,-0.5216,-0.5131,-0.4971,-0.472,-0.4501,-0.4613,-0.5104,-0.5798,-0.5868,-0.4768,-0.3027,-0.1933,-0.158,-0.1308,-0.1201,-0.1207,-0.0881,0.0117,0.1095,0.094,0.0005,-0.0262,-0.0331,-0.0497,-0.0694,-0.0796,-0.095,-0.0982,-0.086,-0.0699,-0.0529,-0.0379,-0.1329,-0.2168,-0.3065,-0.3556,-0.3599,-0.3444,-0.3337,-0.1062,0,-0.5339,-0.5494,-0.3369,-0.4859,-0.5035,-0.504,-0.4976,-0.4869,-0.4677,-0.4426,-0.425,-0.4218,-0.456,-0.5499,-0.583,-0.4832,-0.3075,-0.2157,-0.1527,-0.0913,-0.0518,0.0,0.0865,0.1628,0.1628,0.1089,0.0513,-0.0037,-0.0481,-0.0801,-0.0897,-0.1159,-0.141,-0.1393,-0.1169,-0.0908,-0.0689,-0.1078,-0.2072,-0.315,-0.3631,-0.3513,-0.3209,-0.2974,-0.252,-0.1468,-0.4965,-0.5312,0,-0.5211,-0.4981,-0.4698,-0.4682,-0.4597,-0.4447,-0.4314,-0.417,-0.3999,-0.3903,-0.4282,-0.5211,-0.5665,-0.4608,-0.3118,-0.22,-0.1292,-0.0502,0.0224,0.0929,0.1292,0.1111,0.0523,-0.0288,-0.0918,-0.1196,-0.1276,-0.1329,-0.1554,-0.2002,-0.2184,-0.1821,-0.1319,-0.0924,-0.0763,-0.1943,-0.3086,-0.3497,-0.3353,-0.3171,-0.3123,-0.307,-0.3123,-0.3807,-0.409,-0.1709,-0.4805,-0.4704,-0.3796,-0.4084,-0.4154,-0.4095,-0.4058,-0.401,-0.3914,-0.3748,-0.3695,-0.4111,-0.4949,-0.527,-0.4084,-0.2862,-0.2098,-0.1324,-0.0598,0.0,0.0128,-0.0032,-0.0491,-0.1153,-0.1538,-0.1511,-0.1276,-0.1393,-0.1671,-0.2205,-0.2605,-0.221,-0.1564,-0.1095,-0.0464,-0.165,-0.2696,-0.3107,-0.307,-0.3086,-0.3182,-0.3251,-0.3358,-0.3588,-0.3769,-0.3705,-0.4362,-0.4869,-0.3134,-0.3177,-0.362,-0.3748,-0.3801,-0.3812,-0.3753,-0.3647,-0.3497,-0.3465,-0.3876,-0.464,-0.4463,-0.3182,-0.2419,-0.1644,-0.0982,-0.0459,-0.0326,-0.0294,-0.0432,-0.0886,-0.1458,-0.1351,-0.0689,-0.0897,-0.1351,-0.1997,-0.2328,-0.1933,-0.1335,-0.102,-0.0448,-0.1164,-0.1965,-0.2493,-0.2739,-0.2958,-0.3182,-0.3257,-0.3422,-0.3593,-0.3801,-0.4026,-0.4522,-0.512,0,-0.267,-0.3209,-0.3497,-0.3641,-0.3657,-0.3599,-0.3497,-0.3353,-0.3187,-0.3161,-0.3609,-0.4234,-0.3652,-0.2755,-0.1826,-0.102,-0.0352,-0.0059,0.0021,-0.0166,-0.0886,-0.1853,-0.1805,-0.0801,-0.079,-0.1361,-0.2007,-0.189,-0.1372,-0.0865,-0.0625,-0.0598,-0.032,-0.103,-0.1794,-0.2365,-0.2755,-0.33,-0.3262,-0.3438,-0.3561,-0.3711,-0.3892,-0.4159,-0.4319,-0.1602,0,-0.307,-0.3305,-0.3641,-0.3588,-0.3486,-0.3358,-0.3203,-0.3017,-0.2835,-0.2899,-0.3657,-0.4106,-0.3235,-0.2371,-0.1447,-0.0731,-0.0262,-0.0149,-0.0427,-0.1132,-0.1837,-0.1586,-0.0822,-0.0886,-0.1596,-0.1997,-0.15,-0.1009,-0.0657,-0.039,0,0.0123,-0.0513,-0.1329,-0.2013,-0.2627,-0.3625,-0.338,-0.3454,-0.3492,-0.3545,-0.3572,-0.3545,-0.338,-0.3001,-0.1276,0,-0.3203,-0.3871,-0.3599,-0.3422,-0.3262,-0.3086,-0.2888,-0.268,-0.2595,-0.3123,-0.4239,-0.354,-0.2755,-0.1783,-0.1169,-0.0694,-0.0497,-0.0646,-0.1062,-0.1244,-0.0849,-0.0657,-0.1062,-0.1746,-0.1735,-0.1046,-0.078,-0.0635,-0.0507,0,-0.0043,0,-0.1591,-0.1863,0,-0.3673,-0.346,-0.3454,-0.3428,-0.3406,-0.3342,-0.3193,-0.2723,-0.2686,-0.2472,-0.102,0,-0.3321,-0.3529,-0.3374,-0.3193,-0.3006,-0.2803,-0.2589,-0.2456,-0.276,-0.4068,-0.3855,-0.3102,-0.2029,-0.1329,-0.086,-0.0593,-0.0625,-0.071,-0.0577,-0.0475,-0.0742,-0.1276,-0.1709,-0.1287,-0.0721,-0.0646,-0.0614,-0.0667,0,-0.0075,0.0,-0.197,0,-0.063,-0.3193,-0.3337,-0.3438,-0.3422,-0.3369,-0.3289,-0.3214,-0.2365,-0.2835,-0.2552,-0.2221,0,-0.2589,-0.3668,-0.3401,-0.3145,-0.2926,-0.2718,-0.2488,-0.2339,-0.2493,-0.3657,-0.393,-0.3289,-0.2221,-0.1458,-0.1025,-0.0721,-0.0625,-0.055,-0.0513,-0.0619,-0.0924,-0.1415,-0.1479,-0.0865,-0.063,-0.0609,-0.0662,-0.078,0,0,0,0,0,-0.1255,-0.3123,-0.3284,-0.3497,-0.3529,-0.3449,-0.3332,-0.3316,0,-0.3171,-0.2819,-0.2194,0,0,-0.3663,-0.3358,-0.3043,-0.2814,-0.2605,-0.236,-0.2157,-0.2232,-0.3102,-0.3673,-0.3246,-0.2424,-0.1682,-0.1303,-0.0972,-0.0763,-0.0694,-0.0721,-0.0876,-0.1185,-0.1383,-0.1062,-0.0657,-0.0673,-0.0694,-0.0844,-0.0812,0,0,0,0,0,0,-0.3251,-0.3284,-0.3599,-0.3743,-0.3647,-0.3305,-0.3075,-0.126,-0.3107,-0.3193,-0.1986,0,0,-0.331,-0.3193,-0.2899,-0.2664,-0.2461,-0.2205,-0.1949,-0.1911,-0.2435,-0.3134,-0.3043,-0.2568,-0.1927,-0.1484,-0.1169,-0.0961,-0.0918,-0.1004,-0.1196,-0.1297,-0.1025,-0.0667,-0.063,-0.0753,-0.0908,-0.0956,-0.079,0,0,0,0,0,0,-0.2953,-0.3177,-0.3876,-0.3812,-0.3828,-0.3241,-0.291,-0.2664,-0.2969,-0.3385,0,0,0,-0.3134,-0.3086,-0.2776,-0.2509,-0.2312,-0.2072,-0.1773,-0.1607,-0.1783,-0.2376,-0.2616,-0.2445,-0.1986,-0.1575,-0.1324,-0.1169,-0.1153,-0.1212,-0.1196,-0.0988,-0.0667,-0.0577,-0.0715,-0.0918,-0.1057,-0.0908,-0.0742,0,0,0,0,0,0,-0.2771,-0.3006,-0.4656,-0.3545,-0.3679,-0.3097,-0.2808,-0.2696,-0.2702,-0.275,-0.0806,-0.0705,0,-0.3038,-0.3017,-0.2675,-0.2376,-0.2173,-0.1959,-0.1671,-0.1426,-0.1351,-0.1586,-0.1965,-0.2034,-0.1741,-0.149,-0.1319,-0.1191,-0.1121,-0.1052,-0.0897,-0.0731,-0.0678,-0.0753,-0.0908,-0.1025,-0.0966,-0.0806,-0.0678,0,0,0,0,0,0,0,-0.2888,-0.5862,-0.3428,-0.3161,-0.2819,-0.2563,-0.2461,-0.2312,-0.2104,-0.1687,-0.1511,0,-0.2974,-0.2931,-0.2563,-0.2264,-0.2072,-0.1885,-0.1628,-0.1372,-0.1201,-0.1148,-0.1297,-0.1404,-0.1308,-0.1244,-0.1148,-0.1052,-0.0988,-0.0929,-0.0844,-0.0817,-0.0822,-0.0881,-0.0961,-0.0934,-0.0817,-0.0721,-0.0657,0,0,0,-0.04,-0.047,0,0,0,-0.6813,-0.3764,-0.26,-0.2552,-0.2355,-0.2253,-0.2152,-0.2029,-0.1799,-0.1463,0,-0.2926,-0.2808,-0.244,-0.2173,-0.2007,-0.1842,-0.1623,-0.1388,-0.1212,-0.1068,-0.0934,-0.0924,-0.0956,-0.0993,-0.0993,-0.0982,-0.0977,-0.095,-0.0897,-0.0849,-0.0812,-0.0806,-0.0817,-0.0806,-0.0742,-0.0694,-0.0662,0,0,-0.0801,-0.0609,-0.103,-0.1361,0.0,0.0,-0.6439,-0.4218,-0.2344,-0.2371,-0.2189,-0.2109,-0.2088,-0.2066,-0.1938,-0.1313,0,-0.2899,-0.2632,-0.2285,-0.2077,-0.1938,-0.1789,-0.1618,-0.1442,-0.126,-0.1073,-0.0902,-0.0833,-0.0833,-0.0881,-0.0924,-0.0956,-0.0956,-0.0902,-0.0812,-0.0721,-0.0667,-0.0673,-0.071,-0.0721,-0.0699,-0.0689,-0.0683,0,0,-0.1634,-0.0416,-0.1121,-0.2723,0,0,-0.527,-0.4282,-0.2611,-0.2306,-0.2088,-0.2002,-0.2029,-0.2077,-0.1901,0,-0.0838,-0.2531,-0.2306,-0.2082,-0.1943,-0.1799,-0.1644,-0.1538,-0.1431,-0.1276,-0.1116,-0.0998,-0.0961,-0.0945,-0.0966,-0.0972,-0.0961,-0.0929,-0.0844,-0.0721,-0.0614,-0.0555,-0.0561,-0.0603,-0.0641,-0.0662,-0.0694,-0.0705,-0.0085,-0.0667,-0.118,0,0,0,0,0,-0.4319,-0.3898,-0.2894,-0.2365,-0.2066,-0.1911,-0.1858,-0.1901,-0.173,-0.0785,-0.166,-0.197,-0.1922,-0.1853,-0.1751,-0.157,-0.1431,-0.1404,-0.1345,-0.1217,-0.1153,-0.1132,-0.1159,-0.1143,-0.1148,-0.1089,-0.0972,-0.087,-0.0769,-0.0651,-0.0582,-0.055,-0.0518,-0.0534,-0.0598,-0.063,-0.0689,-0.0715,-0.0171,-0.0806,-0.0507,-0.0486,-0.0609,0,0,0,-0.3492,-0.3316,-0.2819,-0.2472,-0.2162,-0.1922,-0.1596,-0.165,-0.1762,-0.1703,-0.1655,-0.1666,-0.1634,-0.1628,-0.1543,-0.1324,-0.1212,-0.1271,-0.1239,-0.1153,-0.1159,-0.1281,-0.1361,-0.1345,-0.1361,-0.1223,-0.094,-0.0747,-0.0662,-0.0662,-0.0742,-0.0822,-0.0715,-0.0646,-0.0742,-0.0625,-0.0694,-0.0731,0,-0.0262,-0.0294,-0.0769,-0.102,-0.0555,0,0,-0.3075,-0.2584,-0.2488,-0.2413,-0.2451,-0.2205,-0.1329,-0.1383,-0.189,-0.1981,-0.1719,-0.1495,-0.1356,-0.1351,-0.1313,-0.1105,-0.0972,-0.1159,-0.1356,-0.142,-0.1095,-0.1356,-0.1532,-0.1612,-0.1564,-0.1527,-0.1207,-0.0929,-0.0774,-0.0721,-0.1078,-0.1426,-0.1175,-0.11,-0.1676,-0.0667,-0.0662,-0.0737,0.04,0.0224,0.0064,-0.0299,-0.0529,-0.1068,-0.086,-0.0785,-0.2664,-0.1436,-0.166,-0.1986,-0.2931,-0.3017,-0.1185,-0.1217,-0.1986,-0.2392,-0.2024,-0.1607,-0.1046,-0.0956,-0.0972,-0.1009,-0.1046,-0.1393,-0.2061,-0.26,-0.1057,-0.134,-0.1591,-0.2136,-0.1735,-0.1895,-0.1703,-0.1527,-0.1479,-0.0886,-0.1559,-0.2461,-0.2077,-0.1436,-0.3716,-0.1111,-0.0566,-0.0678,0.0806,0.0929,0.0635,0.0021,-0.0208,-0.0838,-0.1377,-0.1495,-0.2242,-0.0683,-0.1078,-0.1682,-0.3198,-0.3438,0,0,-0.2013,-0.3155,-0.3161,-0.3123,-0.0892,-0.0721,-0.0753,-0.1025,-0.1249,-0.1666,-0.2595,-0.4261,0,0,0,-0.1692,-0.2013,-0.1858,-0.1911,-0.1863,-0.2445,-0.1447,-0.2355,-0.3358,-0.3017,0,-0.4602,-0.1511,-0.0502,-0.0625,0,0.1164,0.1111,0.0326,-0.0283,-0.0662,-0.0977,-0.1313,-0.1527,0,0,0,-0.2621,-0.2504,-0.0678,-0.0486,0,-0.3268,-0.4079,-0.4447,0,0,0,0,0,0,0,-0.3508,-0.1036,-0.0299,-0.0224,-0.0929,-0.2435,-0.2387,0,0,-0.2408,-0.252,-0.2835,-0.3583,-0.3337,-0.3641,-0.3209,0,0,0,0,0,0.1335,0.078,-0.0448,-0.0902,-0.0998,-0.1084,-0.0539,-0.0144,-0.023,-0.0283,-0.158,-0.1388,-0.11,-0.086,-0.0529,-0.2162,-0.3102,-0.3251,-0.0828,-0.055,-0.0326,-0.0513,-0.0497,-0.0379,-0.0641,-0.1393,-0.1623,-0.0603,-0.0256,-0.0881,-0.2104,-0.252,-0.1719,-0.1372,-0.2547,-0.3353,0,0,0,-0.512,-0.2312,-0.1361,-0.1132,0,0,0,0,0.0972,-0.0518,-0.1137,-0.1089,-0.095,0.0267,-0.0091,-0.0352,-0.0315,-0.0774,-0.0849,-0.0694,-0.0593,-0.0828,-0.1089,-0.1719,-0.1853,-0.1233,-0.0833,-0.0635,-0.1527,-0.22,-0.2568,-0.1276,-0.0806,-0.118,-0.0609,0.0128,-0.008,-0.0892,-0.1751,-0.3129,-0.2744,-0.3166,-0.3524,0.0,0.0,-0.2403,-0.2712,-0.2157,-0.2531,-0.2397,0,0,0,0,0,0,0,0,0,0.0758,0.0112,-0.0246,0.0256,-0.0219,-0.0459,-0.0416,-0.0331,-0.0432,-0.0625,-0.1121,-0.1644,-0.0812,-0.0566,-0.0625,-0.2029,-0.3406,-0.4378,0,0,0,0,0.0326,0.0625,0.023,-0.1111,-0.1837,0,0,0,0,0,-0.4378,-0.2627,-0.1634,-0.2371,-0.2792,0,0,0,0,0,0,0,0,0,0,0,0,0.0582,0.0005,-0.0272,-0.0288,-0.023,-0.0262,-0.0518,-0.0908,-0.1666,0,0,0,0,0,0,0,0,0,0,0,0,0.071,-0.0657,-0.0854,0,0,0,0,0,-0.331,-0.2397,-0.1276,-0.2477,-0.3321,0,0,0,0,0,0,0,0,0,0,0,0,0,0,0,0,0,0,0,0,0,0,0,0,0,0,0,0,0,0,0,0,0,0,0,0,0,0,0,0,0,-0.229,-0.1965,-0.1153,-0.26,-0.3865,0,0,0,0,0,0,0,0,0,0,0,0,0,0,0,0,0,0,0,0,0,0,0,0,0,0,0,0,0,0,0,0,0,0,0,0,0,0,0,0,0,-0.1538,-0.1863,-0.1089,-0.268,-0.4373,0,0,0,0,0,0,0,0,0,0,0,0,0,0,0,0,0,0,0,0,0,0,0,0,0,0,0,0,0,0,0,0,0,0,0,0,0,0,0,0,0,0,-0.1554,-0.0822,-0.2824,-0.472,0,0,0,0,0,0,0,0,0,0,0,0,0,0,0,0,0,0,0,0,0,0,0,0,0,0,0,0,0,0,0,0,0,0,0,0,0,0,0,0,0,0,-0.094,-0.0785,-0.3017,-0.4869,0,0,0,0,0,0,0,0,0,0,0,0,0,0,0,0,0,0,0,0,0,0,0,0,0,0,0,0,0,0,0,0,0,0,0,0,0,0,0,0,0,0,-0.0176,-0.1068,-0.2915,-0.4907,0,0,0,0,0,0,0,0,0,0,0,0,0,0,0,0,0,0,0,0,0,0,0,0,0,0,0,0,0,0,0,0,0,0,0,0,0,0,0,0,0,0,0.0235,-0.1025,-0.2205,-0.48,0]}]],[[{"header":{"parameterUnit":"kt","parameterCategory":2,"dx":1,"dy":1,"la1":29.46422004699707,"la2":30.564109802246094,"lo1":-89.4342041015625,"lo2":-87.934326171875,"nx":46,"ny":34,"refTime":"2022-10-09T00:00:00:Z","depth":"2","parameterNumber":2,"parameterNumberName":"U-component_of_CURRENTS"},"data":[-0.0747,-0.0838,-0.0769,-0.0454,-0.0043,0.0235,0.0304,0,-0.0208,0.0182,0.1111,0.1078,0.063,0.0374,-0.0064,-0.0571,-0.102,-0.1367,-0.1741,-0.244,-0.3534,-0.4666,-0.5793,-0.6151,-0.5419,-0.4581,-0.3914,-0.3476,-0.3262,-0.3182,-0.307,-0.2835,-0.2605,-0.236,-0.2098,-0.2018,-0.2077,-0.2157,-0.2045,-0.1709,-0.1271,-0.0721,0.0,0.078,0.1511,0.2189,-0.0678,-0.0961,-0.102,-0.0769,-0.0502,-0.0561,-0.1025,-0.1351,0,0.04,0.1383,0.0817,-0.0149,0.0059,-0.0096,-0.0534,-0.1014,-0.142,-0.1719,-0.1933,-0.2328,-0.3134,-0.4159,-0.5136,-0.5579,-0.5371,-0.5099,-0.4816,-0.441,-0.3898,-0.3289,-0.275,-0.2563,-0.2696,-0.284,-0.2899,-0.2798,-0.2451,-0.2034,-0.1687,-0.1372,-0.094,-0.0395,0.0219,0.0854,0.1463,-0.0566,-0.0833,-0.0838,-0.0641,-0.0422,-0.031,-0.0182,0.0272,0.1607,0.1879,0.1159,0,0.0133,0.0294,0.0112,-0.039,-0.094,-0.1388,-0.1735,-0.1981,-0.2141,-0.2344,-0.2915,-0.3865,-0.4666,-0.5061,-0.5248,-0.536,-0.5195,-0.4576,-0.3716,-0.307,-0.284,-0.2947,-0.3107,-0.3102,-0.292,-0.2536,-0.1927,-0.1319,-0.0934,-0.0699,-0.0566,-0.04,-0.0139,0.0085,-0.0117,-0.0267,-0.0315,-0.0256,-0.0198,-0.0182,-0.008,0.016,0.0518,0.0561,0.0139,0.1073,0.1879,0.1303,0.0625,-0.0267,-0.094,-0.142,-0.173,-0.1949,-0.2109,-0.221,-0.2339,-0.2819,-0.3689,-0.425,-0.4202,-0.4068,-0.4058,-0.3914,-0.347,-0.2947,-0.2616,-0.2477,-0.2317,-0.1703,-0.0662,-0.0107,-0.0187,-0.0085,0.0085,-0.0011,-0.0304,-0.063,-0.0961,-0.1436,0.0822,0.0587,0.0315,0.0101,-0.0027,-0.0091,-0.0069,0.0021,0.016,0.0262,0.0326,0.063,0.1009,0.15,0.0838,-0.0614,-0.1244,-0.1596,-0.1805,-0.1922,-0.2013,-0.2088,-0.213,-0.2226,-0.2686,-0.3454,-0.3679,-0.3177,-0.2584,-0.2146,-0.1831,-0.1559,-0.1319,-0.1084,-0.0673,-0.0342,-0.0267,-0.0149,-0.0085,0.0016,0.0144,-0.0032,-0.0342,-0.0625,-0.0993,-0.1383,0.1057,0.1132,0.0731,0.0299,0.0,-0.0144,-0.0166,-0.0128,-0.0075,-0.0037,-0.0037,-0.0021,0.0027,0.0043,0,-0.0865,-0.1789,-0.1885,-0.1911,-0.1895,-0.1895,-0.1917,-0.1927,-0.1938,-0.2056,-0.2461,-0.2915,-0.2867,-0.2306,-0.1538,-0.0817,-0.0288,0.0091,0.0443,0.0806,0.0886,0.0593,0.0016,-0.0539,-0.0625,-0.0427,-0.0454,-0.0731,-0.0924,-0.0982,-0.1105,0.2173,0.1751,0.0908,0.031,-0.016,-0.055,-0.0561,-0.0363,-0.0283,-0.0262,-0.0331,-0.0523,-0.0966,-0.1789,-0.2296,0,-0.103,-0.2066,-0.1975,-0.1815,-0.1735,-0.1703,-0.1676,-0.166,-0.165,-0.1746,-0.2109,-0.2371,-0.2029,-0.1159,-0.0203,0.0464,0.0924,0.1228,0.1345,0.118,0.0747,0.0005,-0.0737,-0.087,-0.0683,-0.0812,-0.1073,-0.1159,-0.1143,-0.1143,0,0.0144,0.039,0.0432,0.0203,-0.0609,-0.0924,-0.0486,-0.0326,-0.0294,-0.0358,-0.0523,-0.0801,-0.1191,-0.157,-0.1725,0,-0.1062,-0.1927,-0.1644,-0.1522,-0.1458,-0.1415,-0.1377,-0.1319,-0.1265,-0.1415,-0.1725,-0.1826,-0.1527,-0.0982,-0.0363,0.0256,0.0742,0.0945,0.0806,0.024,-0.0619,-0.1068,-0.0956,-0.0924,-0.1143,-0.134,-0.1383,-0.1303,-0.1217,0,-0.0368,0,0.0347,0.0694,0,-0.0123,-0.0208,-0.0155,-0.0139,-0.0176,-0.0267,-0.0416,-0.0785,-0.1137,-0.1255,-0.1297,0,-0.0598,-0.1244,-0.1265,-0.1217,-0.1175,-0.1132,-0.1084,-0.102,-0.1057,-0.1377,-0.1869,-0.2093,-0.2007,-0.1751,-0.134,-0.0945,-0.0721,-0.0758,-0.1089,-0.1308,-0.1265,-0.1244,-0.1324,-0.1463,-0.1559,-0.1506,-0.1404,-0.1329,0,0.0731,0.0998,0.1073,0,0.0278,0.032,0.0027,-0.0043,-0.0032,-0.0011,0.0016,0.0149,-0.0422,-0.0913,-0.0582,-0.0438,0,-0.0817,-0.1415,-0.1111,-0.0993,-0.095,-0.0929,-0.0918,-0.0913,-0.0966,-0.1372,-0.2189,-0.2803,-0.2969,-0.2888,-0.2627,-0.2344,-0.2141,-0.1917,-0.166,-0.1548,-0.158,-0.158,-0.158,-0.1666,-0.1612,-0.1458,-0.1297,-0.1143,0,0,0,0,0,-0.0331,-0.0507,-0.0342,-0.0326,-0.0272,-0.0176,-0.0101,-0.008,0,-0.0005,0.0085,0.0182,0,0,-0.0246,-0.0571,-0.0673,-0.0715,-0.0742,-0.0785,-0.0844,-0.0972,-0.1442,-0.2264,-0.2936,-0.3246,-0.3262,-0.3102,-0.2835,-0.2504,-0.2253,-0.2184,-0.2093,-0.1826,-0.1676,-0.1719,-0.1767,-0.1639,-0.141,-0.1127,-0.0876,0,0,0,0,0,0,-0.0288,-0.079,-0.0988,-0.0881,-0.0667,-0.0582,-0.0753,-0.008,0.063,0.0753,0.0977,0,0,-0.0149,-0.0374,-0.0475,-0.0539,-0.0598,-0.0662,-0.0758,-0.0924,-0.1393,-0.2162,-0.2846,-0.3235,-0.3364,-0.3326,-0.3193,-0.3011,-0.2771,-0.2403,-0.1986,-0.1773,-0.1751,-0.1773,-0.1682,-0.1484,-0.1233,-0.0972,-0.0876,0,0,0,0,0,0,-0.0828,-0.1666,-0.1351,-0.0988,-0.0833,-0.0641,-0.0507,-0.0304,-0.0133,-0.0101,0,0,0,-0.0107,-0.0267,-0.0358,-0.0432,-0.0502,-0.0577,-0.0657,-0.078,-0.1095,-0.1821,-0.2573,-0.2963,-0.3139,-0.315,-0.3017,-0.2744,-0.2376,-0.2007,-0.1805,-0.1847,-0.1917,-0.1735,-0.1458,-0.126,-0.1062,-0.0972,-0.1009,0,0,0,0,0,0,-0.1046,-0.1933,-0.1185,-0.0518,-0.0454,-0.0497,-0.0566,-0.0651,-0.0892,-0.149,-0.1399,-0.0902,0,-0.0096,-0.023,-0.031,-0.0379,-0.0443,-0.0497,-0.055,-0.0593,-0.0705,-0.1127,-0.1858,-0.2408,-0.2563,-0.2525,-0.2387,-0.221,-0.2098,-0.2082,-0.2061,-0.1922,-0.1682,-0.142,-0.1201,-0.1041,-0.1036,-0.1137,-0.1207,0,0,0,0,0,0,0,-0.0769,-0.1009,-0.0278,-0.0208,-0.0384,-0.047,-0.0534,-0.0609,-0.0657,-0.0534,-0.04,0,-0.0091,-0.0219,-0.0294,-0.0352,-0.04,-0.0432,-0.0459,-0.0481,-0.0486,-0.0518,-0.0796,-0.1431,-0.1959,-0.2109,-0.2104,-0.2034,-0.1943,-0.1821,-0.165,-0.1436,-0.1217,-0.1084,-0.1078,-0.1175,-0.1281,-0.1329,-0.1313,0,0,0,-0.0107,-0.0214,0,0,0,-0.0144,-0.008,-0.0005,-0.0198,-0.0278,-0.0304,-0.0294,-0.0219,-0.008,0.0011,0,-0.0085,-0.0214,-0.0294,-0.0363,-0.0406,-0.0438,-0.0464,-0.0464,-0.0459,-0.0486,-0.055,-0.0657,-0.0833,-0.1025,-0.1153,-0.118,-0.1132,-0.1062,-0.1004,-0.0993,-0.1062,-0.1185,-0.1308,-0.1388,-0.1415,-0.1383,-0.1313,0,0,0.0117,-0.0379,-0.1036,-0.0411,-0.0027,-0.016,-0.0326,-0.0422,-0.0149,-0.0091,-0.0091,-0.0085,-0.0043,0.0064,0.0278,0.0411,0,-0.0059,-0.0187,-0.0299,-0.04,-0.0491,-0.0587,-0.0683,-0.0731,-0.0747,-0.079,-0.0838,-0.0854,-0.0849,-0.0844,-0.0844,-0.0854,-0.0881,-0.0934,-0.1036,-0.1164,-0.1297,-0.1399,-0.1458,-0.1479,-0.1458,-0.1399,-0.1308,0,0,-0.0806,-0.1313,-0.0497,0.0016,0,0,-0.0518,-0.0977,-0.0571,-0.016,-0.0064,-0.0027,-0.0011,0.0021,0.0043,0,0.039,0.0486,-0.0005,-0.0288,-0.0475,-0.0667,-0.0902,-0.1127,-0.1297,-0.1442,-0.1538,-0.1527,-0.1415,-0.1271,-0.1137,-0.1052,-0.103,-0.1062,-0.1121,-0.1191,-0.1255,-0.1308,-0.1367,-0.1426,-0.1463,-0.1452,-0.1404,-0.1324,-0.031,-0.039,-0.0166,0,0,0,0,0,-0.0502,-0.0897,-0.0614,-0.0331,-0.0155,-0.0075,-0.0144,-0.0331,-0.0443,-0.0027,0.0374,0.0182,-0.0117,-0.0368,-0.0603,-0.087,-0.1143,-0.1356,-0.1527,-0.1666,-0.1741,-0.1703,-0.1586,-0.142,-0.1249,-0.1132,-0.1105,-0.1169,-0.1276,-0.1404,-0.1516,-0.1564,-0.1538,-0.1495,-0.1458,-0.1426,-0.1383,-0.1313,-0.0235,-0.0427,-0.11,-0.1217,-0.1137,0,0,0,-0.0352,-0.071,-0.0689,-0.0566,-0.0331,-0.0117,-0.0123,-0.0251,-0.024,-0.0064,0.0048,-0.0027,-0.024,-0.0486,-0.0731,-0.0977,-0.1212,-0.1431,-0.1639,-0.1831,-0.1997,-0.2018,-0.1869,-0.1671,-0.1495,-0.1404,-0.1484,-0.1725,-0.2104,-0.2531,-0.2744,-0.2611,-0.2248,-0.1879,-0.158,-0.1404,-0.1351,-0.1287,0,-0.0144,-0.0342,-0.0742,-0.118,-0.126,0,0,-0.0075,-0.0326,-0.0662,-0.0796,-0.0545,-0.0149,-0.0075,-0.0272,-0.0283,-0.0085,0.0037,-0.0027,-0.0251,-0.0555,-0.0854,-0.1164,-0.157,-0.2061,-0.2365,-0.2312,-0.2274,-0.2403,-0.2472,-0.2408,-0.2435,-0.2691,-0.292,-0.3091,-0.3284,-0.3529,-0.3657,-0.3422,-0.2974,-0.2627,-0.1975,-0.1377,-0.1276,-0.1249,0.165,0.0961,0.0438,-0.0315,-0.1009,-0.1153,-0.0609,0.0411,0.0758,0.0294,-0.0187,-0.0598,-0.0513,0.0053,0.0155,-0.032,-0.0539,-0.0331,-0.0064,0.0059,-0.0091,-0.0497,-0.102,-0.1789,-0.2595,-0.3086,-0.3246,-0.2654,-0.2162,-0.2451,-0.2867,-0.2899,-0.3129,-0.3919,-0.4458,-0.4447,-0.3978,-0.37,-0.3743,-0.3636,-0.3513,-0.3481,-0.2483,-0.141,-0.118,-0.1191,0.047,0.0924,0.0689,0.0299,0.0117,0.0149,0.0144,0.0166,0.0422,0.0593,0.0416,-0.0155,-0.0513,-0.0459,0,0,-0.0822,-0.1468,-0.1388,-0.0993,-0.0315,-0.0224,-0.0566,-0.1169,-0.1709,-0.2056,-0.2296,-0.2371,0,0,0,-0.1255,-0.2947,-0.3753,-0.4335,-0.4111,-0.3273,-0.2888,-0.2739,-0.2499,-0.2408,0,-0.0961,-0.1682,-0.1345,-0.1239,0,0.0635,0.1271,0.0982,0.0662,0.0635,0.0657,0.0699,0.0721,0,0,0,-0.0475,-0.1383,-0.1255,-0.0705,0,-0.0705,-0.1532,-0.1655,0,0,0,0,0,0,0,-0.1329,-0.1687,-0.0657,-0.0902,-0.1628,-0.2136,-0.2221,0,0,-0.1591,-0.3006,-0.3155,-0.4159,-0.4939,-0.2734,-0.0438,0,0,0,0,0,0.0721,0.1351,0.1191,0.1164,0.1143,0.0913,0.0545,0.0363,0.0368,0.0545,0.0422,-0.0091,-0.0459,-0.0747,-0.0838,-0.1559,-0.3054,-0.4202,-0.3716,-0.213,-0.1207,-0.0785,-0.0358,0.0021,0.0182,-0.0091,-0.0747,-0.1377,-0.205,-0.2814,-0.386,-0.4688,-0.4287,-0.3337,-0.2424,-0.1938,0,0,0,-0.236,-0.4474,-0.3412,-0.2034,0,0,0,0,0.0694,0.157,0.1794,0.1906,0.1975,0.1623,0.1143,0.0977,0.0785,0.0438,0.0144,-0.0016,-0.0133,-0.04,-0.0945,-0.1415,-0.1506,-0.1447,-0.1169,-0.0998,-0.142,-0.1692,-0.0812,0.039,0.0614,0.0021,-0.047,-0.0635,-0.1297,-0.2264,-0.2696,-0.2424,-0.2435,-0.3572,-0.4704,-0.4875,-0.417,-0.1991,-0.0646,-0.1233,-0.1543,-0.1292,0,0,0,0,0,0,0,0,0,0.0464,0.1137,0.141,0.1271,0.0945,0.0747,0.0641,0.0619,0.0577,0.0566,0.0641,0.0945,0.1095,0.095,0.0945,0.0699,0.0117,-0.0219,0,0,0,0,0.0144,0.0502,0.0374,0.0005,-0.0032,0,0,0,0,0,-0.0902,-0.1783,-0.1831,-0.1767,-0.1223,0,0,0,0,0,0,0,0,0,0,0,0,0.0379,0.0918,0.1105,0.1185,0.1303,0.1447,0.1474,0.1223,0.102,0,0,0,0,0,0,0,0,0,0,0,0,0.0331,0.0593,0.0523,0,0,0,0,0,-0.0603,-0.1415,-0.1741,-0.1757,-0.1281,0,0,0,0,0,0,0,0,0,0,0,0,0,0,0,0,0,0,0,0,0,0,0,0,0,0,0,0,0,0,0,0,0,0,0,0,0,0,0,0,0,-0.0619,-0.1404,-0.1725,-0.1698,-0.1324,0,0,0,0,0,0,0,0,0,0,0,0,0,0,0,0,0,0,0,0,0,0,0,0,0,0,0,0,0,0,0,0,0,0,0,0,0,0,0,0,0,-0.063,-0.1297,-0.1484,-0.1468,-0.1191,0,0,0,0,0,0,0,0,0,0,0,0,0,0,0,0,0,0,0,0,0,0,0,0,0,0,0,0,0,0,0,0,0,0,0,0,0,0,0,0,0,0,-0.0956,-0.1436,-0.1447,-0.126,0,0,0,0,0,0,0,0,0,0,0,0,0,0,0,0,0,0,0,0,0,0,0,0,0,0,0,0,0,0,0,0,0,0,0,0,0,0,0,0,0,0,-0.078,-0.1618,-0.1527,-0.1244,0,0,0,0,0,0,0,0,0,0,0,0,0,0,0,0,0,0,0,0,0,0,0,0,0,0,0,0,0,0,0,0,0,0,0,0,0,0,0,0,0,0,-0.0603,-0.1084,-0.11,-0.0988,0,0,0,0,0,0,0,0,0,0,0,0,0,0,0,0,0,0,0,0,0,0,0,0,0,0,0,0,0,0,0,0,0,0,0,0,0,0,0,0,0,0,0.0203,0.0214,-0.0368,-0.0513,0]}],[{"header":{"parameterUnit":"kt","parameterCategory":2,"dx":1,"dy":1,"la1":29.46422004699707,"la2":30.564109802246094,"lo1":-89.4342041015625,"lo2":-87.934326171875,"nx":46,"ny":34,"refTime":"2022-10-09T00:00:00:Z","depth":"2","parameterNumber":3,"parameterNumberName":"V-component_of_CURRENTS"},"data":[-0.0769,-0.1516,-0.2205,-0.2686,-0.2931,-0.3038,-0.3497,0,-0.0416,-0.3401,-0.3785,-0.3182,-0.4143,-0.4474,-0.456,-0.4496,-0.4346,-0.4106,-0.3892,-0.4015,-0.4501,-0.52,-0.528,-0.4197,-0.2461,-0.1361,-0.1009,-0.0731,-0.0619,-0.063,-0.0299,0.0699,0.1682,0.1532,0.0603,0.0342,0.0272,0.0112,-0.0085,-0.0187,-0.0336,-0.0374,-0.0246,-0.0085,0.0085,0.023,-0.0769,-0.1559,-0.2424,-0.2899,-0.2947,-0.2803,-0.2702,-0.0758,0,-0.4645,-0.4805,-0.275,-0.4191,-0.4378,-0.4389,-0.4341,-0.4245,-0.4058,-0.3817,-0.3647,-0.362,-0.3962,-0.4901,-0.5243,-0.4261,-0.2509,-0.1591,-0.0966,-0.0347,0.0053,0.0577,0.1442,0.2216,0.2221,0.1682,0.1105,0.0561,0.0123,-0.0198,-0.0299,-0.0555,-0.0812,-0.0796,-0.0571,-0.031,-0.0091,-0.0529,-0.1474,-0.2509,-0.2974,-0.2862,-0.2568,-0.2333,-0.189,-0.1153,-0.4298,-0.464,0,-0.4544,-0.4335,-0.4063,-0.4052,-0.3972,-0.3833,-0.3705,-0.3567,-0.3401,-0.331,-0.3689,-0.4613,-0.5083,-0.4031,-0.2547,-0.1634,-0.0726,0.0069,0.0801,0.1511,0.1879,0.1698,0.1116,0.0304,-0.032,-0.0593,-0.0673,-0.0726,-0.0956,-0.1399,-0.1586,-0.1223,-0.0726,-0.0336,-0.0251,-0.1367,-0.2467,-0.2851,-0.2707,-0.2531,-0.2483,-0.2429,-0.2493,-0.3177,-0.3465,-0.141,-0.4164,-0.4068,-0.3193,-0.3465,-0.3534,-0.3486,-0.3454,-0.3412,-0.3321,-0.3155,-0.3102,-0.3518,-0.4357,-0.4682,-0.3502,-0.2296,-0.1527,-0.0753,-0.0021,0.0582,0.0715,0.0561,0.0101,-0.0555,-0.0945,-0.0918,-0.0683,-0.0796,-0.1073,-0.1607,-0.2007,-0.1612,-0.0961,-0.0491,-0.0005,-0.1121,-0.2109,-0.2488,-0.2451,-0.2461,-0.2541,-0.2616,-0.2734,-0.2969,-0.315,-0.3097,-0.3737,-0.4223,-0.2552,-0.2584,-0.3001,-0.3139,-0.3203,-0.3214,-0.3161,-0.3059,-0.291,-0.2878,-0.3289,-0.4047,-0.3876,-0.2605,-0.1842,-0.1073,-0.0406,0.0117,0.0256,0.0288,0.0155,-0.0294,-0.0865,-0.0758,-0.0101,-0.0299,-0.0753,-0.1399,-0.173,-0.1329,-0.0731,-0.0416,-0.0043,-0.0683,-0.142,-0.1917,-0.2141,-0.2339,-0.2552,-0.2632,-0.2803,-0.2979,-0.3182,-0.3406,-0.3892,-0.4469,0,-0.2088,-0.2611,-0.2888,-0.3038,-0.3065,-0.3006,-0.291,-0.2776,-0.2605,-0.2579,-0.3022,-0.3647,-0.3065,-0.2168,-0.1244,-0.0438,0.0224,0.0518,0.0603,0.0416,-0.0294,-0.126,-0.1212,-0.0208,-0.0192,-0.0758,-0.1404,-0.1287,-0.0774,-0.0262,-0.0016,-0.0224,0.0117,-0.0545,-0.126,-0.1789,-0.2152,-0.268,-0.2643,-0.2819,-0.2947,-0.3097,-0.3273,-0.354,-0.3695,-0.1308,0,-0.2488,-0.2707,-0.3033,-0.2995,-0.2899,-0.2776,-0.2627,-0.244,-0.2258,-0.2322,-0.3081,-0.3529,-0.2654,-0.1789,-0.086,-0.0144,0.0326,0.0432,0.0155,-0.0539,-0.1244,-0.0998,-0.023,-0.0283,-0.0993,-0.1399,-0.0897,-0.0406,-0.0053,0.0214,0,0.0502,-0.0059,-0.0849,-0.1479,-0.2034,-0.3017,-0.2766,-0.2846,-0.2888,-0.2942,-0.2969,-0.2947,-0.2782,-0.2419,-0.0993,0,-0.2616,-0.3262,-0.3006,-0.284,-0.2686,-0.2515,-0.2322,-0.2114,-0.2029,-0.2557,-0.3673,-0.2974,-0.2184,-0.1207,-0.0587,-0.0107,0.0091,-0.0059,-0.0475,-0.0657,-0.0262,-0.0059,-0.0459,-0.1143,-0.1132,-0.0448,-0.0176,-0.0027,0.0101,0,0.0267,0,-0.1164,-0.1361,0,-0.3081,-0.2856,-0.2856,-0.2835,-0.2819,-0.2755,-0.2605,-0.2146,-0.2114,-0.1906,-0.0742,0,-0.2734,-0.2936,-0.2792,-0.2621,-0.2435,-0.2237,-0.2029,-0.1901,-0.22,-0.3508,-0.33,-0.2541,-0.1463,-0.0758,-0.0283,-0.0016,-0.0043,-0.0133,0.0005,0.0112,-0.0144,-0.0678,-0.1105,-0.0683,-0.0117,-0.0043,-0.0005,-0.0064,0,0.0208,0.0,-0.1575,0,-0.04,-0.2627,-0.275,-0.2851,-0.283,-0.2782,-0.2702,-0.2632,-0.1799,-0.2269,-0.1986,-0.1666,0,-0.2029,-0.3075,-0.2824,-0.2573,-0.2365,-0.2157,-0.1938,-0.1783,-0.1943,-0.3097,-0.3374,-0.2728,-0.166,-0.0892,-0.0464,-0.0155,-0.0053,0.0027,0.0069,-0.0032,-0.0331,-0.0817,-0.0881,-0.0267,-0.0032,-0.0005,-0.0053,-0.0176,0,0,0,0,0,-0.0801,-0.2568,-0.2702,-0.2899,-0.2926,-0.2851,-0.2744,-0.2734,0,-0.26,-0.2253,-0.1644,0,0,-0.3081,-0.2787,-0.2483,-0.2258,-0.2056,-0.181,-0.1618,-0.1682,-0.2552,-0.3118,-0.2691,-0.1869,-0.1132,-0.0747,-0.0406,-0.0198,-0.0117,-0.0139,-0.0283,-0.0593,-0.079,-0.047,-0.0064,-0.0075,-0.0096,-0.0246,-0.0214,0,0,0,0,0,0,-0.2702,-0.2702,-0.2995,-0.3129,-0.3038,-0.2707,-0.2499,-0.0982,-0.2541,-0.2627,-0.1447,0,0,-0.2739,-0.2632,-0.2349,-0.212,-0.1922,-0.1671,-0.1415,-0.1372,-0.1895,-0.2589,-0.2499,-0.2013,-0.1372,-0.0929,-0.0609,-0.039,-0.0342,-0.0422,-0.0614,-0.0715,-0.0438,-0.008,-0.0043,-0.016,-0.0315,-0.0363,-0.0198,0,0,0,0,0,0,-0.2419,-0.26,-0.3284,-0.3214,-0.3235,-0.2659,-0.2339,-0.2114,-0.2413,-0.2824,0,0,0,-0.2579,-0.2531,-0.2237,-0.1975,-0.1778,-0.1543,-0.1249,-0.1078,-0.1249,-0.1837,-0.2077,-0.1901,-0.1436,-0.1014,-0.0763,-0.0603,-0.0582,-0.0641,-0.0625,-0.0411,-0.0096,0.0,-0.0133,-0.0331,-0.0464,-0.032,-0.0149,0,0,0,0,0,0,-0.2248,-0.2451,-0.409,-0.2995,-0.3118,-0.2547,-0.2264,-0.2152,-0.2162,-0.221,-0.055,-0.0459,0,-0.2493,-0.2467,-0.2141,-0.1853,-0.1655,-0.1442,-0.1153,-0.0913,-0.0833,-0.1057,-0.1431,-0.15,-0.1201,-0.0945,-0.0769,-0.0635,-0.0561,-0.0486,-0.0331,-0.0166,-0.0112,-0.0182,-0.0336,-0.0448,-0.0384,-0.0224,-0.0096,0,0,0,0,0,0,0,-0.2349,-0.528,-0.2915,-0.2638,-0.2296,-0.2045,-0.1938,-0.1794,-0.1591,-0.118,-0.1014,0,-0.244,-0.2392,-0.2045,-0.1751,-0.1564,-0.1377,-0.1121,-0.087,-0.0699,-0.0641,-0.0785,-0.0881,-0.078,-0.071,-0.0609,-0.0507,-0.0438,-0.0374,-0.0288,-0.0256,-0.0256,-0.0315,-0.039,-0.0363,-0.024,-0.0144,-0.008,0,0,0,-0.0224,-0.024,0,0,0,-0.6209,-0.3257,-0.2098,-0.205,-0.1853,-0.1757,-0.165,-0.1527,-0.1303,-0.0977,0,-0.2403,-0.2285,-0.1933,-0.1671,-0.1506,-0.1345,-0.1127,-0.0897,-0.0715,-0.0577,-0.0432,-0.0416,-0.0438,-0.0475,-0.047,-0.0448,-0.0438,-0.0406,-0.0347,-0.0288,-0.0246,-0.0235,-0.0246,-0.023,-0.0171,-0.0123,-0.0096,0,0,-0.0635,-0.0235,-0.0571,-0.1137,0.0,0.0,-0.5862,-0.37,-0.1853,-0.1874,-0.1703,-0.1628,-0.1602,-0.1575,-0.1452,-0.0838,0,-0.2387,-0.213,-0.1794,-0.1586,-0.1447,-0.1297,-0.1127,-0.095,-0.0769,-0.0582,-0.0406,-0.0331,-0.0326,-0.0374,-0.0406,-0.0432,-0.0427,-0.0363,-0.0267,-0.0166,-0.0112,-0.0107,-0.0139,-0.0155,-0.0133,-0.0128,-0.0123,0,0,-0.1265,-0.0027,-0.0657,-0.2274,0,0,-0.4741,-0.3764,-0.2125,-0.1821,-0.1612,-0.1527,-0.1554,-0.1602,-0.1426,0,-0.0603,-0.2029,-0.1826,-0.1607,-0.1463,-0.1313,-0.1159,-0.1052,-0.0945,-0.0785,-0.0614,-0.0497,-0.0454,-0.0438,-0.0459,-0.0459,-0.0438,-0.04,-0.031,-0.0182,-0.0069,-0.0005,0.0,-0.0043,-0.0085,-0.0107,-0.0139,-0.0155,0.0064,-0.0502,-0.0796,0,0,0,0,0,-0.3833,-0.3401,-0.2424,-0.189,-0.1596,-0.1447,-0.1393,-0.1431,-0.126,-0.0555,-0.1191,-0.1495,-0.1458,-0.1388,-0.1281,-0.1095,-0.095,-0.0924,-0.086,-0.0731,-0.0657,-0.063,-0.0651,-0.0641,-0.0646,-0.0582,-0.0454,-0.0347,-0.024,-0.0112,-0.0032,0.0,0.0032,0.0016,-0.0048,-0.0085,-0.0149,-0.0176,0.0128,-0.0486,-0.016,-0.0304,-0.0406,0,0,0,-0.3038,-0.2856,-0.2371,-0.2013,-0.1698,-0.1468,-0.1143,-0.1185,-0.1297,-0.1249,-0.1196,-0.1212,-0.1185,-0.1175,-0.1084,-0.086,-0.0742,-0.0796,-0.0763,-0.0678,-0.0673,-0.079,-0.087,-0.086,-0.0876,-0.0726,-0.0432,-0.0235,-0.0133,-0.0123,-0.0192,-0.0267,-0.0166,-0.0101,-0.0208,-0.0091,-0.0166,-0.0203,0,0.0048,0.0027,-0.0427,-0.0635,-0.0363,0,0,-0.2664,-0.2157,-0.2061,-0.197,-0.1991,-0.1746,-0.0892,-0.0945,-0.1436,-0.1532,-0.1281,-0.1068,-0.0924,-0.0918,-0.087,-0.0651,-0.0507,-0.0689,-0.0881,-0.0945,-0.0625,-0.0881,-0.1057,-0.1137,-0.1084,-0.103,-0.0699,-0.0416,-0.0256,-0.0187,-0.0523,-0.0833,-0.0619,-0.055,-0.1143,-0.0144,-0.0144,-0.0224,0.0502,0.0491,0.0342,0.0005,-0.0187,-0.0705,-0.0689,-0.0619,-0.2296,-0.1057,-0.126,-0.157,-0.2488,-0.2552,-0.0763,-0.079,-0.1564,-0.1949,-0.157,-0.1164,-0.0625,-0.0545,-0.0555,-0.0577,-0.0566,-0.0908,-0.1548,-0.2104,-0.0587,-0.087,-0.1116,-0.1666,-0.1244,-0.1383,-0.1191,-0.1009,-0.0956,-0.0347,-0.0956,-0.1586,-0.1153,-0.0828,-0.3123,-0.0577,-0.0064,-0.0182,0.1009,0.1132,0.0865,0.0283,0.0075,-0.0529,-0.1052,-0.1153,-0.1885,-0.0336,-0.0699,-0.1281,-0.2798,-0.3006,0,0,-0.1612,-0.2734,-0.2654,-0.2611,-0.0454,-0.0326,-0.0347,-0.0593,-0.0753,-0.1148,-0.2013,-0.3775,0,0,0,-0.1239,-0.1452,-0.1265,-0.1351,-0.1319,-0.1826,-0.0667,-0.1249,-0.2013,-0.181,0,-0.3962,-0.0945,-0.0005,-0.0133,0,0.1335,0.1281,0.055,-0.0032,-0.0384,-0.0667,-0.0988,-0.1191,0,0,0,-0.2269,-0.2141,-0.0518,-0.0336,0,-0.2878,-0.3567,-0.3919,0,0,0,0,0,0,0,-0.3118,-0.086,-0.0128,-0.0037,-0.0507,-0.1901,-0.1847,0,0,-0.1554,-0.1393,-0.1484,-0.2146,-0.2205,-0.3289,-0.2605,0,0,0,0,0,0.1474,0.0956,-0.0219,-0.0641,-0.0715,-0.079,-0.0246,-0.0021,-0.0101,-0.0155,-0.1271,-0.1084,-0.0796,-0.0561,-0.0379,-0.1821,-0.2696,-0.283,-0.0673,-0.0406,-0.0182,-0.0347,-0.0294,-0.0192,-0.0427,-0.1089,-0.1297,-0.0278,0.0091,-0.0475,-0.1639,-0.2029,-0.1281,-0.0993,-0.1276,-0.1954,0,0,0,-0.4442,-0.1746,-0.1095,-0.0881,0,0,0,0,0.1121,-0.031,-0.0881,-0.0822,-0.0673,0.0502,0.0139,-0.0112,-0.0069,-0.0518,-0.0587,-0.0427,-0.032,-0.0555,-0.0806,-0.142,-0.1559,-0.0961,-0.0571,-0.0368,-0.1169,-0.1586,-0.1751,-0.0849,-0.0545,-0.0876,-0.0299,0.0406,0.0235,-0.0529,-0.1388,-0.2392,-0.1986,-0.166,-0.2056,0.0,0.0,-0.2125,-0.2072,-0.1618,-0.1991,-0.1885,0,0,0,0,0,0,0,0,0,0.095,0.032,-0.0021,0.0459,-0.0011,-0.0251,-0.0208,-0.0117,-0.0219,-0.0411,-0.0908,-0.1431,-0.0577,-0.0336,-0.0368,-0.1644,-0.2584,-0.3123,0,0,0,0,0.055,0.087,0.0454,-0.0886,-0.1431,0,0,0,0,0,-0.3791,-0.2007,-0.1127,-0.1826,-0.2274,0,0,0,0,0,0,0,0,0,0,0,0,0.0753,0.0187,-0.0096,-0.0107,-0.0048,-0.008,-0.0336,-0.0726,-0.1484,0,0,0,0,0,0,0,0,0,0,0,0,0.087,-0.0486,-0.0646,0,0,0,0,0,-0.2814,-0.1874,-0.0812,-0.1949,-0.2808,0,0,0,0,0,0,0,0,0,0,0,0,0,0,0,0,0,0,0,0,0,0,0,0,0,0,0,0,0,0,0,0,0,0,0,0,0,0,0,0,0,-0.1954,-0.1554,-0.071,-0.2104,-0.3353,0,0,0,0,0,0,0,0,0,0,0,0,0,0,0,0,0,0,0,0,0,0,0,0,0,0,0,0,0,0,0,0,0,0,0,0,0,0,0,0,0,-0.1255,-0.1506,-0.0689,-0.2237,-0.3887,0,0,0,0,0,0,0,0,0,0,0,0,0,0,0,0,0,0,0,0,0,0,0,0,0,0,0,0,0,0,0,0,0,0,0,0,0,0,0,0,0,0,-0.1244,-0.0464,-0.2424,-0.4277,0,0,0,0,0,0,0,0,0,0,0,0,0,0,0,0,0,0,0,0,0,0,0,0,0,0,0,0,0,0,0,0,0,0,0,0,0,0,0,0,0,0,-0.0689,-0.0464,-0.2654,-0.4469,0,0,0,0,0,0,0,0,0,0,0,0,0,0,0,0,0,0,0,0,0,0,0,0,0,0,0,0,0,0,0,0,0,0,0,0,0,0,0,0,0,0,0.0016,-0.0801,-0.2611,-0.4549,0,0,0,0,0,0,0,0,0,0,0,0,0,0,0,0,0,0,0,0,0,0,0,0,0,0,0,0,0,0,0,0,0,0,0,0,0,0,0,0,0,0,0.04,-0.0801,-0.1874,-0.4405,0]}]],[[{"header":{"parameterUnit":"kt","parameterCategory":2,"dx":1,"dy":1,"la1":29.46422004699707,"la2":30.564109802246094,"lo1":-89.4342041015625,"lo2":-87.934326171875,"nx":46,"ny":34,"refTime":"2022-10-09T00:00:00:Z","depth":"4","parameterNumber":2,"parameterNumberName":"U-component_of_CURRENTS"},"data":[-0.0529,-0.0571,-0.0464,-0.016,0.0214,0.0443,0.0497,0,-0.0112,0.0352,0.1239,0.1196,0.0758,0.0486,0.0043,-0.0454,-0.0881,-0.1217,-0.1591,-0.2296,-0.338,-0.4501,-0.5627,-0.599,-0.527,-0.4431,-0.3764,-0.3316,-0.3102,-0.3022,-0.2931,-0.2696,-0.2456,-0.2184,-0.1922,-0.1847,-0.1922,-0.2013,-0.1901,-0.1564,-0.1132,-0.0577,0.0144,0.0924,0.165,0.2328,-0.047,-0.0694,-0.0705,-0.047,-0.0256,-0.0347,-0.0828,-0.1169,0,0.047,0.149,0.0934,-0.0005,0.0182,0.0011,-0.0416,-0.087,-0.1271,-0.1559,-0.1778,-0.2178,-0.2985,-0.3999,-0.4976,-0.5419,-0.5216,-0.4944,-0.465,-0.4245,-0.3748,-0.315,-0.2616,-0.2408,-0.2525,-0.2664,-0.2734,-0.2638,-0.2301,-0.1895,-0.1554,-0.1233,-0.0806,-0.0262,0.0352,0.0993,0.1596,-0.0368,-0.0593,-0.0571,-0.0374,-0.0192,-0.0112,0.0005,0.0438,0.1725,0.1975,0.1281,0,0.0192,0.04,0.0208,-0.0267,-0.079,-0.1233,-0.158,-0.1821,-0.1981,-0.2189,-0.2766,-0.3711,-0.4506,-0.4901,-0.5083,-0.5195,-0.504,-0.4426,-0.3577,-0.2926,-0.2686,-0.2782,-0.2942,-0.2947,-0.2766,-0.2381,-0.1778,-0.118,-0.0806,-0.0566,-0.0438,-0.0267,-0.0011,0.0219,0.0043,-0.0064,-0.008,-0.0027,0.0005,0.0011,0.0101,0.0331,0.0667,0.0694,0.0272,0.1175,0.1954,0.1377,0.071,-0.0133,-0.078,-0.126,-0.1575,-0.1789,-0.1949,-0.205,-0.2184,-0.2675,-0.354,-0.41,-0.4047,-0.3919,-0.3908,-0.3769,-0.3326,-0.2798,-0.2461,-0.2317,-0.2162,-0.1554,-0.0502,0.0059,-0.0021,0.0064,0.0219,0.0123,-0.0176,-0.0502,-0.0833,-0.1303,0.0972,0.0763,0.0513,0.0294,0.0155,0.0085,0.0107,0.0187,0.0304,0.0395,0.0459,0.0747,0.1111,0.158,0.0918,-0.0475,-0.1068,-0.1431,-0.1644,-0.1762,-0.1853,-0.1927,-0.1965,-0.2072,-0.2536,-0.331,-0.354,-0.3027,-0.2435,-0.1991,-0.1682,-0.141,-0.1164,-0.0934,-0.0534,-0.0208,-0.0128,0.0005,0.0075,0.0171,0.0288,0.0107,-0.0203,-0.0497,-0.086,-0.1239,0.1159,0.126,0.0881,0.0459,0.0171,0.0027,0.0005,0.0037,0.0069,0.0101,0.0096,0.0117,0.0166,0.0187,0,-0.078,-0.1612,-0.1703,-0.1746,-0.1735,-0.1741,-0.1757,-0.1773,-0.1783,-0.1906,-0.2317,-0.2776,-0.2728,-0.2168,-0.1393,-0.0667,-0.0139,0.0235,0.0582,0.094,0.102,0.0726,0.0155,-0.0384,-0.0475,-0.0278,-0.031,-0.0598,-0.079,-0.0849,-0.0961,0.2216,0.1831,0.1025,0.0448,0.0011,-0.0363,-0.0379,-0.0203,-0.0133,-0.0123,-0.0187,-0.0374,-0.0801,-0.1602,-0.2109,0,-0.094,-0.1879,-0.1799,-0.1655,-0.158,-0.1548,-0.1527,-0.1511,-0.1506,-0.1602,-0.197,-0.2221,-0.1879,-0.1004,-0.0053,0.0609,0.1062,0.1367,0.1479,0.1319,0.0886,0.0149,-0.0587,-0.0721,-0.0539,-0.0667,-0.0934,-0.1025,-0.1004,-0.0998,0,0.0198,0.0491,0.0566,0.039,-0.0395,-0.0742,-0.0336,-0.0182,-0.0155,-0.0219,-0.0368,-0.0641,-0.102,-0.1404,-0.1564,0,-0.0977,-0.1751,-0.1479,-0.1367,-0.1313,-0.1271,-0.1233,-0.118,-0.1132,-0.1281,-0.158,-0.1671,-0.1377,-0.0828,-0.0208,0.0406,0.0886,0.1089,0.095,0.0379,-0.0475,-0.0918,-0.0806,-0.0785,-0.1004,-0.1207,-0.1244,-0.1169,-0.1078,0,-0.0299,0,0.04,0.0806,0,-0.0053,-0.0075,-0.0027,-0.0016,-0.0043,-0.0128,-0.0267,-0.0625,-0.0972,-0.11,-0.1153,0,-0.0513,-0.1089,-0.1116,-0.1073,-0.103,-0.0993,-0.0945,-0.0886,-0.0929,-0.1249,-0.1725,-0.1943,-0.1853,-0.1596,-0.1185,-0.0796,-0.0577,-0.0619,-0.095,-0.1164,-0.1121,-0.1095,-0.118,-0.1324,-0.1415,-0.1361,-0.1271,-0.1196,0,0.0785,0.1057,0.1132,0,0.0326,0.0427,0.0144,0.008,0.0096,0.0123,0.0155,0.0294,-0.0278,-0.0769,-0.0427,-0.0294,0,-0.0742,-0.126,-0.0961,-0.0854,-0.0812,-0.079,-0.0785,-0.0785,-0.0844,-0.1244,-0.205,-0.2654,-0.2814,-0.2739,-0.2483,-0.22,-0.1997,-0.1773,-0.1516,-0.1404,-0.1436,-0.1431,-0.1436,-0.1527,-0.1479,-0.1319,-0.1164,-0.1009,0,0,0,0,0,-0.0283,-0.0395,-0.0203,-0.0182,-0.0128,-0.0032,0.0037,0.0059,0,0.0069,0.023,0.032,0,0,-0.0176,-0.0432,-0.0534,-0.0582,-0.0614,-0.0651,-0.0715,-0.0849,-0.1319,-0.213,-0.2798,-0.3107,-0.3123,-0.2963,-0.2696,-0.2365,-0.2109,-0.204,-0.1943,-0.1676,-0.1527,-0.158,-0.1623,-0.1495,-0.1276,-0.0993,-0.0747,0,0,0,0,0,0,-0.0208,-0.0609,-0.079,-0.0699,-0.0513,-0.0438,-0.0609,0.0048,0.0758,0.0886,0.1105,0,0,-0.008,-0.0235,-0.0342,-0.0411,-0.047,-0.0539,-0.063,-0.0801,-0.1271,-0.2034,-0.2712,-0.3102,-0.3225,-0.3187,-0.3054,-0.2872,-0.2627,-0.2253,-0.1831,-0.1623,-0.1612,-0.1634,-0.1543,-0.1345,-0.11,-0.0844,-0.0753,0,0,0,0,0,0,-0.0678,-0.1372,-0.1095,-0.0785,-0.0667,-0.0502,-0.0379,-0.0171,0.0005,0.0048,0,0,0,-0.0043,-0.0133,-0.023,-0.0304,-0.0384,-0.0454,-0.0534,-0.0657,-0.0972,-0.1692,-0.244,-0.283,-0.3006,-0.3011,-0.2878,-0.26,-0.2226,-0.1858,-0.166,-0.1714,-0.1783,-0.1602,-0.1324,-0.1127,-0.0929,-0.0838,-0.0876,0,0,0,0,0,0,-0.0892,-0.1655,-0.095,-0.0326,-0.031,-0.0368,-0.0443,-0.0523,-0.0742,-0.1324,-0.1249,-0.0774,0,-0.0027,-0.0096,-0.0187,-0.0256,-0.032,-0.0384,-0.0432,-0.047,-0.0587,-0.1009,-0.1735,-0.228,-0.2435,-0.2392,-0.2253,-0.2077,-0.1965,-0.1954,-0.1927,-0.1789,-0.1548,-0.1292,-0.1068,-0.0908,-0.0902,-0.1009,-0.1073,0,0,0,0,0,0,0,-0.0683,-0.0844,-0.0139,-0.0085,-0.0267,-0.0352,-0.0411,-0.0481,-0.0518,-0.0395,-0.0267,0,-0.0027,-0.0091,-0.0176,-0.024,-0.0288,-0.032,-0.0347,-0.0368,-0.0374,-0.0406,-0.0683,-0.1313,-0.1837,-0.1986,-0.1975,-0.1906,-0.1815,-0.1692,-0.1522,-0.1308,-0.1084,-0.095,-0.0945,-0.1041,-0.1148,-0.1196,-0.118,0,0,0,-0.0037,-0.0075,0,0,0,-0.0064,0.0059,0.0107,-0.0085,-0.0166,-0.0187,-0.0171,-0.0091,0.0053,0.0133,0,-0.0027,-0.0096,-0.0182,-0.0251,-0.0299,-0.0331,-0.0352,-0.0352,-0.0347,-0.0374,-0.0438,-0.0545,-0.0721,-0.0908,-0.103,-0.1057,-0.1009,-0.0934,-0.0876,-0.0865,-0.0934,-0.1052,-0.1175,-0.1255,-0.1281,-0.1255,-0.1185,0,0,0.0203,-0.0096,-0.0571,0.0166,0.0726,0.0464,-0.0032,-0.0235,-0.0021,0.0016,0.0021,0.0027,0.0069,0.0187,0.0395,0.0529,0,0.0,-0.0069,-0.0192,-0.0294,-0.0384,-0.0486,-0.0571,-0.0619,-0.0641,-0.0678,-0.0726,-0.0742,-0.0737,-0.0726,-0.0726,-0.0737,-0.0758,-0.0812,-0.0908,-0.103,-0.1164,-0.1265,-0.1324,-0.1345,-0.1324,-0.1271,-0.1185,0,0,-0.0555,-0.0475,0.0406,0.0646,0,0,-0.0416,-0.0785,-0.0432,-0.0059,0.0037,0.008,0.0107,0.0139,0.016,0,0.0443,0.0593,0.0107,-0.0182,-0.0368,-0.0561,-0.079,-0.1014,-0.1185,-0.1324,-0.1415,-0.141,-0.1303,-0.1153,-0.1025,-0.0934,-0.0908,-0.094,-0.0993,-0.1057,-0.1121,-0.1175,-0.1233,-0.1292,-0.1329,-0.1324,-0.1276,-0.1201,-0.0262,-0.024,0.0032,0,0,0,0,0,-0.0422,-0.0747,-0.0497,-0.0235,-0.0059,0.0027,-0.0032,-0.0203,-0.032,0.0091,0.0486,0.0294,-0.0005,-0.0262,-0.0497,-0.0758,-0.103,-0.1244,-0.141,-0.1548,-0.1612,-0.158,-0.1468,-0.1308,-0.1137,-0.1014,-0.0988,-0.1046,-0.1148,-0.1271,-0.1383,-0.142,-0.1399,-0.1361,-0.1324,-0.1297,-0.126,-0.1191,-0.0171,-0.0331,-0.0902,-0.0902,-0.0785,0,0,0,-0.0283,-0.0582,-0.0577,-0.0459,-0.023,-0.0021,-0.0005,-0.0128,-0.0117,0.0053,0.016,0.008,-0.0133,-0.0379,-0.0619,-0.0865,-0.11,-0.1313,-0.1522,-0.1703,-0.1863,-0.189,-0.1751,-0.1564,-0.1383,-0.1287,-0.1356,-0.1591,-0.1959,-0.2371,-0.2579,-0.2445,-0.2093,-0.1746,-0.1447,-0.1281,-0.1233,-0.1169,0,-0.0107,-0.0235,-0.055,-0.0838,-0.0838,0,0,-0.0021,-0.0219,-0.0545,-0.0678,-0.0443,-0.0053,0.0037,-0.0144,-0.0166,0.0021,0.0139,0.0069,-0.0149,-0.0443,-0.0742,-0.1046,-0.1458,-0.1943,-0.2242,-0.2184,-0.2136,-0.2269,-0.2344,-0.2285,-0.2312,-0.2547,-0.276,-0.2915,-0.3091,-0.3305,-0.3412,-0.3187,-0.2803,-0.2493,-0.1847,-0.1255,-0.1159,-0.1137,0.1746,0.102,0.0497,-0.0182,-0.0763,-0.087,-0.0395,0.0534,0.086,0.0406,-0.0069,-0.047,-0.0384,0.0166,0.0267,-0.0203,-0.0427,-0.0224,0.0037,0.0139,-0.0021,-0.0416,-0.0902,-0.1586,-0.2152,-0.2403,-0.2573,-0.2194,-0.1943,-0.2264,-0.2712,-0.2739,-0.2899,-0.3556,-0.4063,-0.4079,-0.3615,-0.3294,-0.3187,-0.2755,-0.2483,-0.2814,-0.2242,-0.1265,-0.1052,-0.1084,0.0497,0.0966,0.0726,0.0368,0.0214,0.0246,0.024,0.0272,0.0518,0.0683,0.0518,-0.0027,-0.0358,-0.0294,0,0,-0.0737,-0.1255,-0.078,-0.0048,0.0182,-0.0149,-0.0475,-0.0982,-0.1121,-0.0876,-0.1255,-0.1869,0,0,0,-0.1068,-0.229,-0.2584,-0.3604,-0.3625,-0.2675,-0.205,-0.1586,-0.0982,-0.0619,0,-0.0833,-0.15,-0.1228,-0.1137,0,0.0641,0.1287,0.102,0.0715,0.0699,0.0731,0.0785,0.0812,0,0,0,-0.0411,-0.1255,-0.1143,-0.0609,0,-0.0523,-0.063,-0.0214,0,0,0,0,0,0,0,-0.1196,-0.1506,-0.0561,-0.0758,-0.1228,-0.1089,-0.0726,0,0,-0.103,-0.157,-0.1345,-0.2242,-0.3193,-0.1372,0.0737,0,0,0,0,0,0.0726,0.1399,0.1292,0.1271,0.1244,0.0998,0.0614,0.0432,0.0448,0.0619,0.0491,-0.0016,-0.039,-0.0657,-0.0689,-0.1196,-0.2253,-0.3097,-0.307,-0.2013,-0.1137,-0.0721,-0.0294,0.0091,0.0278,0.0005,-0.0625,-0.1164,-0.1714,-0.2189,-0.2648,-0.2862,-0.2429,-0.1799,-0.0561,0.0384,0,0,0,-0.1895,-0.3604,-0.2862,-0.1778,0,0,0,0,0.0715,0.1687,0.1933,0.1975,0.2024,0.165,0.1169,0.102,0.0849,0.0502,0.0203,0.0043,-0.0069,-0.0299,-0.0753,-0.1159,-0.1303,-0.1324,-0.1084,-0.0844,-0.095,-0.0721,0.023,0.0838,0.0662,0.0198,-0.0155,-0.0299,-0.0763,-0.126,-0.1185,-0.0561,-0.0304,-0.0774,-0.1089,-0.134,-0.1927,-0.1116,-0.0235,-0.0737,-0.1073,-0.094,0,0,0,0,0,0,0,0,0,0.047,0.1148,0.1426,0.1292,0.0977,0.0785,0.0678,0.0662,0.0625,0.0625,0.0705,0.0993,0.1121,0.0977,0.1057,0.141,0.1271,0.0881,0,0,0,0,0.0182,0.0651,0.0796,0.0678,0.0694,0,0,0,0,0,-0.0625,-0.1281,-0.1361,-0.1303,-0.0902,0,0,0,0,0,0,0,0,0,0,0,0,0.039,0.0929,0.1121,0.1196,0.1313,0.1452,0.1479,0.1239,0.1036,0,0,0,0,0,0,0,0,0,0,0,0,0.0347,0.0619,0.0545,0,0,0,0,0,-0.0448,-0.1073,-0.1297,-0.126,-0.0929,0,0,0,0,0,0,0,0,0,0,0,0,0,0,0,0,0,0,0,0,0,0,0,0,0,0,0,0,0,0,0,0,0,0,0,0,0,0,0,0,0,-0.0545,-0.1169,-0.1292,-0.1169,-0.0854,0,0,0,0,0,0,0,0,0,0,0,0,0,0,0,0,0,0,0,0,0,0,0,0,0,0,0,0,0,0,0,0,0,0,0,0,0,0,0,0,0,-0.039,-0.0774,-0.0961,-0.103,-0.0614,0,0,0,0,0,0,0,0,0,0,0,0,0,0,0,0,0,0,0,0,0,0,0,0,0,0,0,0,0,0,0,0,0,0,0,0,0,0,0,0,0,0,-0.0315,-0.0806,-0.0945,-0.0534,0,0,0,0,0,0,0,0,0,0,0,0,0,0,0,0,0,0,0,0,0,0,0,0,0,0,0,0,0,0,0,0,0,0,0,0,0,0,0,0,0,0,-0.0566,-0.1111,-0.1009,-0.0657,0,0,0,0,0,0,0,0,0,0,0,0,0,0,0,0,0,0,0,0,0,0,0,0,0,0,0,0,0,0,0,0,0,0,0,0,0,0,0,0,0,0,-0.0363,-0.0619,-0.0673,-0.0539,0,0,0,0,0,0,0,0,0,0,0,0,0,0,0,0,0,0,0,0,0,0,0,0,0,0,0,0,0,0,0,0,0,0,0,0,0,0,0,0,0,0,0.0481,0.1004,0.0555,0.0059,0]}],[{"header":{"parameterUnit":"kt","parameterCategory":2,"dx":1,"dy":1,"la1":29.46422004699707,"la2":30.564109802246094,"lo1":-89.4342041015625,"lo2":-87.934326171875,"nx":46,"ny":34,"refTime":"2022-10-09T00:00:00:Z","depth":"4","parameterNumber":3,"parameterNumberName":"V-component_of_CURRENTS"},"data":[-0.0561,-0.1244,-0.1885,-0.2355,-0.2621,-0.2755,-0.3198,0,-0.0235,-0.3091,-0.3465,-0.292,-0.3823,-0.4138,-0.4271,-0.4245,-0.4111,-0.3892,-0.3695,-0.3828,-0.4303,-0.4997,-0.5088,-0.402,-0.2296,-0.1196,-0.0838,-0.0561,-0.0438,-0.0448,-0.0117,0.0876,0.1853,0.1719,0.0796,0.0529,0.0459,0.0299,0.0101,0.0,-0.0149,-0.0176,-0.0048,0.0112,0.0283,0.0427,-0.0555,-0.1281,-0.2088,-0.2557,-0.2659,-0.2536,-0.2445,-0.0646,0,-0.4293,-0.4447,-0.2515,-0.3871,-0.4063,-0.4095,-0.4084,-0.3999,-0.3833,-0.3604,-0.3449,-0.3433,-0.3759,-0.4698,-0.5056,-0.409,-0.2344,-0.142,-0.0796,-0.0171,0.0224,0.0753,0.1612,0.2387,0.2403,0.1863,0.1287,0.0737,0.0304,-0.0016,-0.0128,-0.0384,-0.0635,-0.0619,-0.04,-0.0139,0.008,-0.0326,-0.1212,-0.2189,-0.2643,-0.2579,-0.2312,-0.2088,-0.166,-0.1041,-0.3978,-0.4314,0,-0.4223,-0.4042,-0.3791,-0.3796,-0.3727,-0.3599,-0.3486,-0.3364,-0.3209,-0.3118,-0.3497,-0.4421,-0.4896,-0.3849,-0.2371,-0.1463,-0.0561,0.0235,0.0972,0.1682,0.2056,0.1879,0.1297,0.0486,-0.0139,-0.0411,-0.0486,-0.0555,-0.0785,-0.1228,-0.142,-0.1057,-0.0561,-0.0176,-0.0064,-0.1127,-0.2178,-0.2557,-0.2445,-0.228,-0.2232,-0.2189,-0.2258,-0.2926,-0.3209,-0.1303,-0.3882,-0.3785,-0.2969,-0.3219,-0.3289,-0.3251,-0.323,-0.3203,-0.3118,-0.2963,-0.2915,-0.3332,-0.417,-0.4496,-0.3321,-0.212,-0.1356,-0.0587,0.0149,0.0753,0.0892,0.0737,0.0278,-0.0374,-0.0769,-0.0737,-0.0502,-0.0619,-0.0902,-0.1431,-0.1837,-0.1442,-0.079,-0.032,0.0166,-0.0913,-0.1858,-0.2232,-0.2205,-0.2221,-0.2301,-0.2376,-0.2499,-0.2734,-0.2915,-0.2872,-0.3476,-0.3919,-0.2355,-0.2365,-0.2755,-0.2904,-0.2979,-0.3006,-0.2958,-0.2862,-0.2723,-0.2696,-0.3107,-0.386,-0.3695,-0.2429,-0.1666,-0.0902,-0.0235,0.0283,0.0427,0.0459,0.0326,-0.0123,-0.0699,-0.0587,0.0069,-0.0123,-0.0582,-0.1228,-0.1554,-0.1159,-0.0561,-0.0235,0.0107,-0.0513,-0.1217,-0.1692,-0.1917,-0.2104,-0.2312,-0.2392,-0.2568,-0.2744,-0.2942,-0.3161,-0.3615,-0.4159,0,-0.189,-0.2387,-0.2648,-0.2814,-0.2851,-0.2808,-0.2718,-0.2589,-0.2429,-0.2408,-0.284,-0.347,-0.2888,-0.1981,-0.1062,-0.0262,0.039,0.0678,0.0769,0.0582,-0.0128,-0.1095,-0.1041,-0.0043,-0.0016,-0.0587,-0.1233,-0.1116,-0.0603,-0.0085,0.016,-0.0085,0.0267,-0.0379,-0.1073,-0.1564,-0.1911,-0.244,-0.2408,-0.2589,-0.2718,-0.2862,-0.3033,-0.3278,-0.3422,-0.1201,0,-0.2274,-0.2477,-0.2798,-0.2776,-0.2702,-0.2584,-0.244,-0.2264,-0.2088,-0.2152,-0.2915,-0.3353,-0.2472,-0.1602,-0.0673,0.0037,0.0497,0.0598,0.0326,-0.0374,-0.1073,-0.0828,-0.0059,-0.0107,-0.0817,-0.1223,-0.0726,-0.0235,0.0123,0.039,0,0.063,0.0085,-0.0694,-0.1265,-0.1783,-0.2776,-0.2531,-0.2621,-0.267,-0.2718,-0.2744,-0.2712,-0.2547,-0.2205,-0.0892,0,-0.2397,-0.3011,-0.2787,-0.2638,-0.2493,-0.2333,-0.2146,-0.1943,-0.1863,-0.2397,-0.3502,-0.2808,-0.2013,-0.1025,-0.04,0.0075,0.0272,0.0112,-0.0304,-0.0491,-0.0091,0.0112,-0.0283,-0.0972,-0.0961,-0.0278,0.0,0.0144,0.0272,0,0.0363,0,-0.103,-0.1159,0,-0.2856,-0.2638,-0.2643,-0.2627,-0.2605,-0.2541,-0.2397,-0.1949,-0.1911,-0.1714,-0.0657,0,-0.2509,-0.2712,-0.2589,-0.2435,-0.2258,-0.2066,-0.1863,-0.1741,-0.204,-0.3342,-0.3139,-0.2381,-0.1297,-0.0587,-0.0112,0.0155,0.0123,0.0032,0.0171,0.0283,0.0027,-0.0502,-0.0934,-0.0513,0.0048,0.0133,0.0166,0.0112,0,0.0288,0.0,-0.1442,0,-0.0342,-0.2424,-0.2541,-0.2632,-0.2611,-0.2563,-0.2488,-0.2424,-0.1612,-0.2072,-0.1794,-0.1484,0,-0.1842,-0.284,-0.2616,-0.2387,-0.2189,-0.1991,-0.1773,-0.1628,-0.1783,-0.2942,-0.3214,-0.2568,-0.15,-0.0731,-0.0299,0.0005,0.0112,0.0187,0.0235,0.0139,-0.0155,-0.0641,-0.071,-0.0101,0.0139,0.0166,0.0112,-0.0005,0,0,0,0,0,-0.0678,-0.236,-0.2483,-0.2648,-0.2675,-0.2611,-0.2515,-0.2515,0,-0.2392,-0.205,-0.1463,0,0,-0.2846,-0.2579,-0.2301,-0.2088,-0.189,-0.1655,-0.1463,-0.1532,-0.2403,-0.2958,-0.2531,-0.1709,-0.0977,-0.0582,-0.0246,-0.0032,0.0048,0.0032,-0.0112,-0.0416,-0.0614,-0.0299,0.0101,0.0096,0.0075,-0.008,-0.0048,0,0,0,0,0,0,-0.2461,-0.2424,-0.2696,-0.283,-0.2766,-0.2467,-0.2274,-0.0892,-0.2333,-0.2413,-0.1271,0,0,-0.252,-0.2424,-0.2173,-0.1954,-0.1762,-0.1516,-0.1265,-0.1223,-0.1741,-0.2429,-0.2333,-0.1853,-0.1212,-0.0769,-0.0438,-0.0224,-0.0171,-0.0246,-0.0438,-0.0545,-0.0272,0.008,0.0123,0.0005,-0.0149,-0.0198,-0.0037,0,0,0,0,0,0,-0.213,-0.2269,-0.2974,-0.2915,-0.2958,-0.2424,-0.2125,-0.1917,-0.221,-0.2605,0,0,0,-0.2371,-0.2328,-0.2066,-0.1815,-0.1623,-0.1393,-0.1105,-0.0934,-0.1105,-0.1682,-0.1917,-0.1735,-0.1271,-0.0854,-0.0593,-0.0438,-0.0416,-0.047,-0.0454,-0.0246,0.0064,0.016,0.0027,-0.0171,-0.0304,-0.016,0.0011,0,0,0,0,0,0,-0.1922,-0.2125,-0.3785,-0.2755,-0.2888,-0.2339,-0.2066,-0.1959,-0.197,-0.2018,-0.047,-0.0384,0,-0.229,-0.2264,-0.1975,-0.1698,-0.15,-0.1292,-0.1009,-0.0774,-0.0694,-0.0913,-0.1281,-0.134,-0.1046,-0.0785,-0.0609,-0.0475,-0.0406,-0.0331,-0.0171,-0.0005,0.0048,-0.0021,-0.0176,-0.0288,-0.0224,-0.0064,0.0069,0,0,0,0,0,0,0,-0.2045,-0.4896,-0.2718,-0.2456,-0.212,-0.1869,-0.1762,-0.1618,-0.142,-0.102,-0.0865,0,-0.2237,-0.22,-0.1885,-0.1602,-0.1415,-0.1233,-0.0982,-0.0731,-0.0566,-0.0502,-0.0641,-0.0737,-0.063,-0.0561,-0.0459,-0.0358,-0.0283,-0.0219,-0.0133,-0.0096,-0.0101,-0.0155,-0.023,-0.0198,-0.0075,0.0016,0.0085,0,0,0,-0.0128,-0.0059,0,0,0,-0.5638,-0.3027,-0.1943,-0.1879,-0.1692,-0.1596,-0.1484,-0.1361,-0.1143,-0.0828,0,-0.2205,-0.2104,-0.1778,-0.1522,-0.1361,-0.1201,-0.0988,-0.0758,-0.0587,-0.0443,-0.0299,-0.0272,-0.0299,-0.0331,-0.032,-0.0304,-0.0288,-0.0256,-0.0198,-0.0139,-0.0085,-0.0075,-0.008,-0.0069,-0.0005,0.0037,0.0064,0,0,-0.0555,0.0005,0.0219,-0.0913,0.0,0.0,-0.5275,-0.339,-0.1687,-0.1698,-0.1543,-0.1474,-0.1442,-0.1415,-0.1292,-0.0699,0,-0.2194,-0.1959,-0.1644,-0.1442,-0.1303,-0.1153,-0.0982,-0.0812,-0.063,-0.0443,-0.0267,-0.0192,-0.0187,-0.023,-0.0267,-0.0288,-0.0278,-0.0214,-0.0112,-0.0011,0.0048,0.0059,0.0027,0.0011,0.0027,0.0032,0.0032,0,0,-0.0972,0.0267,0.0555,-0.1821,0,0,-0.4325,-0.3417,-0.1943,-0.1644,-0.1452,-0.1372,-0.1399,-0.1442,-0.1265,0,-0.0534,-0.1853,-0.1671,-0.1463,-0.1319,-0.1169,-0.1009,-0.0902,-0.0796,-0.063,-0.0459,-0.0342,-0.0304,-0.0294,-0.0315,-0.0315,-0.0294,-0.0251,-0.0155,-0.0021,0.0091,0.0155,0.016,0.0117,0.0075,0.0053,0.0021,0.0005,0.0112,-0.0443,-0.0475,0,0,0,0,0,-0.3534,-0.3102,-0.2248,-0.1714,-0.1431,-0.1292,-0.1239,-0.1271,-0.11,-0.0481,-0.1041,-0.134,-0.1313,-0.1249,-0.1143,-0.0945,-0.0796,-0.0769,-0.0699,-0.0571,-0.0491,-0.0464,-0.0491,-0.0486,-0.0491,-0.0432,-0.0304,-0.0198,-0.008,0.0053,0.0133,0.0171,0.0198,0.0176,0.0112,0.0075,0.0011,-0.0021,0.0219,-0.0368,0.0011,-0.0214,-0.0224,0,0,0,-0.2814,-0.2621,-0.2205,-0.1831,-0.1527,-0.1303,-0.0993,-0.1025,-0.1132,-0.1095,-0.1046,-0.1073,-0.1046,-0.1036,-0.094,-0.0715,-0.0593,-0.0641,-0.0609,-0.0513,-0.0502,-0.0619,-0.0705,-0.0705,-0.0721,-0.0571,-0.0272,-0.0069,0.0037,0.0069,0.0005,-0.0069,0.0011,0.0059,-0.0048,0.0069,-0.0011,-0.0059,0,0.0171,0.0139,-0.0278,-0.0326,-0.0182,0,0,-0.2499,-0.197,-0.1901,-0.1794,-0.1799,-0.1554,-0.0742,-0.079,-0.1271,-0.1372,-0.1132,-0.0934,-0.0806,-0.079,-0.0726,-0.0502,-0.0336,-0.0507,-0.0694,-0.0753,-0.0454,-0.071,-0.0881,-0.0972,-0.0913,-0.0838,-0.0502,-0.0208,-0.0037,0.0048,-0.0246,-0.0518,-0.0379,-0.0352,-0.095,0.0027,0.0,-0.008,0.0534,0.0598,0.0422,0.0112,0.0,-0.0448,-0.0614,-0.0566,-0.2162,-0.0929,-0.1116,-0.141,-0.2285,-0.2285,-0.0619,-0.0651,-0.1399,-0.1778,-0.1356,-0.1014,-0.0513,-0.0454,-0.0422,-0.0406,-0.0198,-0.0363,-0.0913,-0.1746,-0.0406,-0.0694,-0.0929,-0.1468,-0.0966,-0.1004,-0.0812,-0.0678,-0.0619,0.0053,-0.04,-0.0609,-0.0251,-0.0614,-0.2798,-0.0352,0.0069,-0.0037,0.1062,0.1185,0.0934,0.0374,0.0182,-0.0406,-0.0924,-0.103,-0.1735,-0.024,-0.0566,-0.1127,-0.2611,-0.2739,0,0,-0.1452,-0.2515,-0.189,-0.1655,-0.0342,-0.0251,-0.0224,-0.0406,-0.0101,-0.0166,-0.0731,-0.33,0,0,0,-0.0956,-0.0603,-0.016,-0.0742,-0.0833,-0.1137,0.0283,-0.0096,-0.0753,-0.0166,0,-0.3006,-0.0651,0.0112,0.0005,0,0.1372,0.134,0.0646,0.0075,-0.0267,-0.0545,-0.0844,-0.1036,0,0,0,-0.2114,-0.1975,-0.047,-0.0294,0,-0.2627,-0.2461,-0.2317,0,0,0,0,0,0,0,-0.2851,-0.0763,-0.0059,0.0069,-0.0101,-0.0769,-0.0166,0,0,-0.0411,0.0251,-0.0123,-0.1132,-0.0491,-0.2568,-0.1447,0,0,0,0,0,0.1511,0.1046,0.0021,-0.0432,-0.0555,-0.0641,-0.0123,0.0016,-0.0059,-0.0112,-0.1159,-0.0977,-0.0694,-0.0464,-0.0315,-0.1575,-0.2002,-0.1922,-0.0582,-0.0358,-0.0128,-0.0256,-0.0182,-0.0112,-0.0091,-0.0993,-0.1111,-0.0053,0.0347,0.0027,-0.0662,-0.031,-0.0315,-0.0416,0.0123,0.039,0,0,0,-0.3268,-0.0956,-0.0844,-0.071,0,0,0,0,0.1201,0.0043,-0.0598,-0.063,-0.0518,0.0587,0.0203,-0.0032,0.0011,-0.0422,-0.0502,-0.0336,-0.0219,-0.0448,-0.0625,-0.1137,-0.1335,-0.0828,-0.0486,-0.0171,-0.0534,-0.0539,-0.0886,-0.0182,-0.0486,-0.0689,0.0021,0.0603,0.0587,0.008,-0.0187,-0.0913,-0.0838,-0.024,0.0555,0.0,0.0,-0.1431,-0.1244,-0.1046,-0.1468,-0.1484,0,0,0,0,0,0,0,0,0,0.1004,0.0384,0.0059,0.0529,0.0059,-0.0182,-0.0133,-0.0043,-0.0139,-0.0315,-0.0801,-0.1335,-0.0491,-0.0262,-0.0085,-0.055,-0.0715,-0.1548,0,0,0,0,0.0646,0.1052,0.0651,-0.0347,-0.0876,0,0,0,0,0,-0.2371,-0.1217,-0.0635,-0.126,-0.1789,0,0,0,0,0,0,0,0,0,0,0,0,0.0806,0.0246,-0.0032,-0.0043,0.0016,-0.0011,-0.0267,-0.0657,-0.141,0,0,0,0,0,0,0,0,0,0,0,0,0.0934,-0.04,-0.0555,0,0,0,0,0,-0.1842,-0.1207,-0.0347,-0.1329,-0.2232,0,0,0,0,0,0,0,0,0,0,0,0,0,0,0,0,0,0,0,0,0,0,0,0,0,0,0,0,0,0,0,0,0,0,0,0,0,0,0,0,0,-0.1426,-0.0988,-0.0214,-0.1495,-0.2584,0,0,0,0,0,0,0,0,0,0,0,0,0,0,0,0,0,0,0,0,0,0,0,0,0,0,0,0,0,0,0,0,0,0,0,0,0,0,0,0,0,-0.0587,-0.063,-0.0069,-0.1698,-0.2867,0,0,0,0,0,0,0,0,0,0,0,0,0,0,0,0,0,0,0,0,0,0,0,0,0,0,0,0,0,0,0,0,0,0,0,0,0,0,0,0,0,0,-0.0059,0.0267,-0.1863,-0.3033,0,0,0,0,0,0,0,0,0,0,0,0,0,0,0,0,0,0,0,0,0,0,0,0,0,0,0,0,0,0,0,0,0,0,0,0,0,0,0,0,0,0,0.0347,0.0315,-0.1997,-0.3139,0,0,0,0,0,0,0,0,0,0,0,0,0,0,0,0,0,0,0,0,0,0,0,0,0,0,0,0,0,0,0,0,0,0,0,0,0,0,0,0,0,0,0.078,-0.0027,-0.1831,-0.3235,0,0,0,0,0,0,0,0,0,0,0,0,0,0,0,0,0,0,0,0,0,0,0,0,0,0,0,0,0,0,0,0,0,0,0,0,0,0,0,0,0,0,0.1062,0.0101,-0.0614,-0.2803,0]}]],[[{"header":{"parameterUnit":"kt","parameterCategory":2,"dx":1,"dy":1,"la1":29.46422004699707,"la2":30.564109802246094,"lo1":-89.4342041015625,"lo2":-87.934326171875,"nx":46,"ny":34,"refTime":"2022-10-09T00:00:00:Z","depth":"6","parameterNumber":2,"parameterNumberName":"U-component_of_CURRENTS"},"data":[-0.0342,-0.0262,-0.0069,0.0203,0.0459,0.0593,0.0619,0,-0.0048,0.0454,0.1276,0.1228,0.0812,0.0534,0.0085,-0.0395,-0.0801,-0.1132,-0.1506,-0.221,-0.3284,-0.4389,-0.5521,-0.5889,-0.5184,-0.4351,-0.3679,-0.3225,-0.3006,-0.2931,-0.2846,-0.2621,-0.2371,-0.2077,-0.1805,-0.1741,-0.1831,-0.1933,-0.1826,-0.149,-0.1057,-0.0497,0.0224,0.0998,0.1725,0.2397,-0.0278,-0.0379,-0.0288,-0.0107,-0.0027,-0.0187,-0.0694,-0.1046,0,0.0497,0.1511,0.0972,0.008,0.024,0.0053,-0.0352,-0.0785,-0.1175,-0.1463,-0.1687,-0.2093,-0.2894,-0.3903,-0.4875,-0.5323,-0.512,-0.4843,-0.4549,-0.4143,-0.3657,-0.3075,-0.2541,-0.2322,-0.2424,-0.2563,-0.2638,-0.2541,-0.2216,-0.1815,-0.1479,-0.1159,-0.0731,-0.0187,0.0427,0.1062,0.1666,-0.0192,-0.0331,-0.0224,-0.0059,0.0016,0.0032,0.0123,0.0534,0.1757,0.1986,0.1313,0,0.0219,0.0438,0.0246,-0.0198,-0.0699,-0.1137,-0.1479,-0.1725,-0.1879,-0.2098,-0.268,-0.362,-0.441,-0.4794,-0.4981,-0.5099,-0.4949,-0.4346,-0.3497,-0.2846,-0.2595,-0.2686,-0.2846,-0.2851,-0.267,-0.2285,-0.1692,-0.1105,-0.0737,-0.0497,-0.0368,-0.0203,0.0059,0.0283,0.0176,0.0139,0.0187,0.0208,0.016,0.0133,0.0214,0.0432,0.0742,0.0758,0.0342,0.1201,0.1938,0.1372,0.0731,-0.0059,-0.0678,-0.1153,-0.1474,-0.1687,-0.1847,-0.1949,-0.2088,-0.2589,-0.3454,-0.4004,-0.3946,-0.3828,-0.3823,-0.3684,-0.3246,-0.2718,-0.2365,-0.2221,-0.2072,-0.1463,-0.0406,0.0171,0.0085,0.0149,0.0294,0.0187,-0.0107,-0.0432,-0.0763,-0.1233,0.1111,0.0934,0.0705,0.0459,0.0278,0.0192,0.0214,0.0283,0.0384,0.0459,0.0518,0.079,0.1143,0.158,0.0929,-0.039,-0.094,-0.1313,-0.1532,-0.166,-0.1751,-0.1826,-0.1869,-0.1975,-0.2445,-0.3225,-0.346,-0.2947,-0.2344,-0.1906,-0.1591,-0.1324,-0.1078,-0.0854,-0.0459,-0.0139,-0.0053,0.0096,0.0171,0.0262,0.0363,0.0182,-0.0128,-0.0427,-0.079,-0.1159,0.1244,0.1351,0.0988,0.0561,0.0272,0.0133,0.0112,0.0133,0.0149,0.0171,0.0171,0.0192,0.0246,0.0272,0,-0.0715,-0.1474,-0.1559,-0.1623,-0.1628,-0.1644,-0.166,-0.1676,-0.1692,-0.1821,-0.2237,-0.2702,-0.2654,-0.2088,-0.1313,-0.0587,-0.0059,0.0315,0.0657,0.1009,0.1089,0.0796,0.023,-0.0299,-0.039,-0.0198,-0.0235,-0.0529,-0.0721,-0.0774,-0.0881,0.221,0.1858,0.1089,0.0534,0.0139,-0.0203,-0.0246,-0.0101,-0.0048,-0.0043,-0.0107,-0.0278,-0.0683,-0.1458,-0.1954,0,-0.0876,-0.1735,-0.1666,-0.1548,-0.1484,-0.1458,-0.1436,-0.1426,-0.1426,-0.1527,-0.189,-0.2136,-0.1783,-0.0913,0.0027,0.0683,0.1137,0.1436,0.1554,0.1393,0.0961,0.0224,-0.0502,-0.0635,-0.0459,-0.0593,-0.0865,-0.0956,-0.0934,-0.0918,0,0.023,0.0555,0.0646,0.0582,-0.0139,-0.0577,-0.024,-0.0107,-0.008,-0.0133,-0.0278,-0.0534,-0.0902,-0.1281,-0.1447,0,-0.0908,-0.1623,-0.1372,-0.1276,-0.1223,-0.1185,-0.1153,-0.11,-0.1062,-0.1212,-0.15,-0.1586,-0.1287,-0.0742,-0.0123,0.0491,0.0966,0.1164,0.1025,0.0454,-0.04,-0.0838,-0.0731,-0.071,-0.0929,-0.1132,-0.1175,-0.1095,-0.1004,0,-0.0256,0,0.0438,0.0876,0,-0.0011,-0.0005,0.0037,0.0053,0.0027,-0.0043,-0.0171,-0.0523,-0.0865,-0.0993,-0.1052,0,-0.0459,-0.0982,-0.1025,-0.0988,-0.095,-0.0913,-0.087,-0.0822,-0.0865,-0.118,-0.165,-0.1858,-0.1757,-0.1506,-0.11,-0.071,-0.0497,-0.0545,-0.0876,-0.1089,-0.1041,-0.1014,-0.11,-0.1249,-0.1345,-0.1287,-0.1196,-0.1127,0,0.0812,0.1084,0.1159,0,0.0342,0.0481,0.0203,0.0139,0.016,0.0192,0.023,0.0379,-0.0198,-0.0673,-0.0331,-0.0198,0,-0.0683,-0.1153,-0.0865,-0.0769,-0.0737,-0.0715,-0.0715,-0.0715,-0.078,-0.118,-0.1975,-0.2568,-0.2723,-0.2648,-0.2403,-0.2125,-0.1922,-0.1692,-0.1442,-0.1329,-0.1351,-0.1345,-0.1356,-0.1452,-0.1404,-0.1249,-0.1095,-0.0934,0,0,0,0,0,-0.0256,-0.0326,-0.0123,-0.0096,-0.0037,0.0048,0.0117,0.0139,0,0.0112,0.0315,0.0406,0,0,-0.0128,-0.0347,-0.0454,-0.0507,-0.0539,-0.0582,-0.0651,-0.0785,-0.126,-0.2061,-0.2723,-0.3027,-0.3043,-0.2888,-0.2621,-0.2285,-0.2034,-0.1959,-0.1858,-0.1591,-0.1442,-0.15,-0.1548,-0.142,-0.1201,-0.0924,-0.0678,0,0,0,0,0,0,-0.0133,-0.0427,-0.0593,-0.055,-0.0406,-0.0352,-0.0518,0.0123,0.0822,0.095,0.1169,0,0,-0.0037,-0.0155,-0.0267,-0.0342,-0.0406,-0.047,-0.0566,-0.0742,-0.1212,-0.1965,-0.2643,-0.3027,-0.315,-0.3113,-0.2974,-0.2792,-0.2547,-0.2168,-0.1746,-0.1543,-0.1538,-0.1564,-0.1468,-0.1276,-0.103,-0.0774,-0.0683,0,0,0,0,0,0,-0.0363,-0.0849,-0.0753,-0.0571,-0.0539,-0.0416,-0.0304,-0.0091,0.0091,0.0133,0,0,0,0.0,-0.0059,-0.016,-0.024,-0.032,-0.0395,-0.047,-0.0598,-0.0913,-0.1623,-0.2365,-0.276,-0.2931,-0.2936,-0.2798,-0.2515,-0.2146,-0.1778,-0.158,-0.1639,-0.1709,-0.1532,-0.1255,-0.1052,-0.086,-0.0774,-0.0812,0,0,0,0,0,0,-0.0336,-0.0908,-0.0614,-0.0112,-0.0198,-0.0294,-0.0374,-0.0448,-0.0646,-0.1201,-0.1148,-0.0694,0,0.0011,-0.0021,-0.0117,-0.0192,-0.0262,-0.032,-0.0368,-0.0411,-0.0529,-0.0945,-0.1666,-0.221,-0.2365,-0.2322,-0.2184,-0.2007,-0.1895,-0.1885,-0.1858,-0.1719,-0.1479,-0.1223,-0.0998,-0.0838,-0.0833,-0.094,-0.1004,0,0,0,0,0,0,0,-0.0545,-0.063,-0.0032,-0.0021,-0.0203,-0.0283,-0.0342,-0.04,-0.0427,-0.031,-0.0187,0,0.0016,-0.0016,-0.0112,-0.0176,-0.023,-0.0267,-0.0294,-0.031,-0.0315,-0.0347,-0.0625,-0.1255,-0.1773,-0.1922,-0.1911,-0.1842,-0.1746,-0.1623,-0.1458,-0.1239,-0.1014,-0.0881,-0.0876,-0.0972,-0.1073,-0.1127,-0.1111,0,0,0,0.0059,0.0117,0,0,0,0.0069,0.0219,0.0155,-0.0037,-0.0101,-0.0123,-0.0101,-0.0016,0.0128,0.0208,0,0.0016,-0.0021,-0.0117,-0.0192,-0.0246,-0.0278,-0.0299,-0.0299,-0.0294,-0.0315,-0.0379,-0.0486,-0.0657,-0.0849,-0.0972,-0.0993,-0.094,-0.087,-0.0812,-0.0796,-0.0865,-0.0982,-0.11,-0.118,-0.1212,-0.118,-0.1121,0,0,0.0288,0.0833,0.0731,0.0966,0.2077,0.2018,0.0726,-0.0011,0.0043,0.0064,0.0075,0.0085,0.0139,0.0256,0.0464,0.0593,0,0.0037,-0.0005,-0.0133,-0.024,-0.0331,-0.0432,-0.0518,-0.0566,-0.0582,-0.0619,-0.0667,-0.0683,-0.0678,-0.0667,-0.0667,-0.0673,-0.0694,-0.0747,-0.0838,-0.0961,-0.1089,-0.1191,-0.1249,-0.1271,-0.1255,-0.1196,-0.1116,0,0,-0.0005,0.0774,0.1767,0.2029,0,0,-0.0176,-0.0464,-0.0326,-0.0011,0.0091,0.0133,0.0171,0.0208,0.0235,0,0.047,0.0651,0.0166,-0.0123,-0.0315,-0.0507,-0.0737,-0.0956,-0.1127,-0.126,-0.1351,-0.134,-0.1239,-0.1095,-0.0961,-0.0876,-0.0844,-0.0876,-0.0929,-0.0988,-0.1046,-0.11,-0.1153,-0.1217,-0.1255,-0.1249,-0.1207,-0.1132,-0.0208,0.0027,0.047,0,0,0,0,0,-0.0064,-0.0331,-0.0416,-0.0187,-0.0011,0.008,0.0037,-0.0128,-0.024,0.016,0.055,0.0358,0.0053,-0.0208,-0.0438,-0.0699,-0.0972,-0.118,-0.134,-0.1474,-0.1538,-0.1511,-0.1404,-0.1249,-0.1078,-0.0956,-0.0924,-0.0977,-0.1078,-0.1196,-0.1303,-0.134,-0.1324,-0.1287,-0.1255,-0.1223,-0.1191,-0.1121,-0.0139,-0.0262,-0.0454,-0.0107,0.0016,0,0,0,-0.0075,-0.0331,-0.0507,-0.0395,-0.0176,0.0032,0.0059,-0.0048,-0.0043,0.0123,0.0224,0.0139,-0.0075,-0.032,-0.0561,-0.0796,-0.103,-0.1249,-0.1447,-0.1623,-0.1778,-0.1815,-0.1682,-0.15,-0.1324,-0.1228,-0.1287,-0.1511,-0.1869,-0.2258,-0.2456,-0.2328,-0.1997,-0.1666,-0.1377,-0.1212,-0.1164,-0.1105,0,-0.0064,-0.0107,0.008,0.008,-0.0101,0,0,0.0037,-0.0117,-0.0459,-0.0593,-0.0384,-0.0005,0.0107,-0.0069,-0.0096,0.0085,0.0198,0.0123,-0.0091,-0.0384,-0.0678,-0.0988,-0.1393,-0.1869,-0.2152,-0.2077,-0.204,-0.2178,-0.2264,-0.221,-0.2221,-0.2419,-0.2595,-0.2723,-0.2862,-0.3017,-0.3054,-0.2888,-0.2632,-0.2387,-0.1762,-0.118,-0.1095,-0.1078,0.2002,0.1137,0.0534,0.0171,0.0091,0.0091,0.0427,0.1169,0.1217,0.0561,0.0032,-0.0363,-0.0278,0.0262,0.0352,-0.0123,-0.0363,-0.0155,0.0112,0.0198,0.0021,-0.0374,-0.0822,-0.1367,-0.1666,-0.1783,-0.1842,-0.1458,-0.1543,-0.2056,-0.2557,-0.2579,-0.2573,-0.2878,-0.3187,-0.3294,-0.2953,-0.2675,-0.2493,-0.2109,-0.1933,-0.2429,-0.1826,-0.1175,-0.1009,-0.103,0.0534,0.1004,0.0742,0.0448,0.0587,0.0763,0.0609,0.0518,0.0657,0.0747,0.0593,0.0085,-0.0203,-0.0117,0,0,-0.0614,-0.0972,-0.0342,0.0454,0.039,-0.0101,-0.0406,-0.0785,-0.063,-0.0064,-0.0176,-0.0651,0,0,0,-0.0822,-0.1676,-0.166,-0.1901,-0.2152,-0.1714,-0.1335,-0.0609,0.023,0.0731,0,-0.0502,-0.1143,-0.1191,-0.1089,0,0.063,0.1276,0.103,0.0753,0.0742,0.0769,0.0828,0.0865,0,0,0,-0.0347,-0.1121,-0.1041,-0.0545,0,-0.024,0.0133,0.0731,0,0,0,0,0,0,0,-0.0844,-0.1121,-0.0502,-0.0603,-0.0683,-0.0037,0.0539,0,0,-0.0561,-0.0785,-0.0192,-0.0363,-0.1329,0.0166,0.2178,0,0,0,0,0,0.0705,0.15,0.1538,0.1474,0.1388,0.1089,0.0678,0.0497,0.0529,0.0683,0.0529,0.0021,-0.0347,-0.0587,-0.0481,-0.0683,-0.1399,-0.2013,-0.2077,-0.1575,-0.1089,-0.0678,-0.0256,0.0128,0.0374,0.0128,-0.0497,-0.094,-0.1201,-0.1159,-0.11,-0.1041,-0.0256,0.0443,0.1249,0.1981,0,0,0,-0.1169,-0.205,-0.1393,-0.0763,0,0,0,0,0.0625,0.158,0.2157,0.2301,0.2077,0.1623,0.1159,0.1041,0.0886,0.0545,0.024,0.008,-0.0027,-0.0198,-0.0443,-0.0646,-0.071,-0.0801,-0.0817,-0.0705,-0.055,-0.0053,0.0833,0.1105,0.0694,0.0326,0.0155,0.0283,0.0486,0.0673,0.1014,0.1265,0.1084,0.1025,0.1415,0.1911,0.1516,0.0945,0.0673,0.0256,-0.0091,-0.024,0,0,0,0,0,0,0,0,0,0.047,0.1143,0.141,0.1292,0.0988,0.0801,0.0694,0.0678,0.0657,0.0694,0.079,0.1046,0.1137,0.0988,0.1116,0.1367,0.1895,0.2258,0,0,0,0,0.0256,0.1479,0.2269,0.1564,0.1014,0,0,0,0,0,-0.0347,-0.0593,-0.055,-0.0582,-0.0438,0,0,0,0,0,0,0,0,0,0,0,0,0.039,0.0929,0.1116,0.1196,0.1303,0.1442,0.1474,0.1239,0.1041,0,0,0,0,0,0,0,0,0,0,0,0,0.0358,0.0641,0.0566,0,0,0,0,0,-0.0043,-0.0283,-0.0518,-0.0448,-0.0283,0,0,0,0,0,0,0,0,0,0,0,0,0,0,0,0,0,0,0,0,0,0,0,0,0,0,0,0,0,0,0,0,0,0,0,0,0,0,0,0,0,-0.0091,-0.0363,-0.0486,-0.0288,0.0016,0,0,0,0,0,0,0,0,0,0,0,0,0,0,0,0,0,0,0,0,0,0,0,0,0,0,0,0,0,0,0,0,0,0,0,0,0,0,0,0,0,0.0166,0.0283,-0.0037,-0.0288,0.0133,0,0,0,0,0,0,0,0,0,0,0,0,0,0,0,0,0,0,0,0,0,0,0,0,0,0,0,0,0,0,0,0,0,0,0,0,0,0,0,0,0,0,0.1265,0.0497,0.0021,0.023,0,0,0,0,0,0,0,0,0,0,0,0,0,0,0,0,0,0,0,0,0,0,0,0,0,0,0,0,0,0,0,0,0,0,0,0,0,0,0,0,0,0,0.016,0.0459,0.0443,0.0187,0,0,0,0,0,0,0,0,0,0,0,0,0,0,0,0,0,0,0,0,0,0,0,0,0,0,0,0,0,0,0,0,0,0,0,0,0,0,0,0,0,0,0.0497,0.1447,0.1463,0.0908,0,0,0,0,0,0,0,0,0,0,0,0,0,0,0,0,0,0,0,0,0,0,0,0,0,0,0,0,0,0,0,0,0,0,0,0,0,0,0,0,0,0,0.1837,0.3903,0.3748,0.1986,0]}],[{"header":{"parameterUnit":"kt","parameterCategory":2,"dx":1,"dy":1,"la1":29.46422004699707,"la2":30.564109802246094,"lo1":-89.4342041015625,"lo2":-87.934326171875,"nx":46,"ny":34,"refTime":"2022-10-09T00:00:00:Z","depth":"6","parameterNumber":3,"parameterNumberName":"V-component_of_CURRENTS"},"data":[-0.0406,-0.0956,-0.1479,-0.1911,-0.2274,-0.2499,-0.2936,0,-0.0133,-0.2819,-0.3171,-0.2702,-0.3518,-0.3807,-0.402,-0.4047,-0.3946,-0.3748,-0.3572,-0.3711,-0.4175,-0.4864,-0.4971,-0.3924,-0.2205,-0.1111,-0.0747,-0.0464,-0.0331,-0.0342,-0.0011,0.0966,0.1943,0.1821,0.0902,0.0635,0.0561,0.04,0.0203,0.0096,-0.0048,-0.0069,0.0059,0.0224,0.0395,0.0539,-0.039,-0.0982,-0.166,-0.2114,-0.236,-0.2317,-0.2237,-0.0571,0,-0.3946,-0.409,-0.2328,-0.3567,-0.3759,-0.3828,-0.3876,-0.3817,-0.3673,-0.3465,-0.3326,-0.3321,-0.3641,-0.457,-0.4944,-0.3988,-0.2253,-0.1335,-0.0705,-0.0075,0.032,0.0849,0.1703,0.2477,0.2499,0.1959,0.1383,0.0833,0.04,0.008,-0.0043,-0.0294,-0.055,-0.0534,-0.031,-0.0048,0.0166,-0.0176,-0.094,-0.1794,-0.2232,-0.2317,-0.2114,-0.1906,-0.15,-0.0956,-0.3673,-0.3999,0,-0.3914,-0.3759,-0.3545,-0.3572,-0.3529,-0.3428,-0.3337,-0.323,-0.3086,-0.3006,-0.3385,-0.4298,-0.4778,-0.3748,-0.2274,-0.1367,-0.047,0.0326,0.1062,0.1767,0.2146,0.1975,0.1393,0.0587,-0.0032,-0.0304,-0.0379,-0.0464,-0.0699,-0.1143,-0.1335,-0.0977,-0.0481,-0.0096,0.0064,-0.0902,-0.1831,-0.2226,-0.2221,-0.2093,-0.205,-0.2007,-0.2088,-0.2718,-0.2995,-0.1228,-0.3615,-0.3518,-0.2782,-0.3006,-0.3086,-0.3075,-0.3075,-0.3065,-0.299,-0.2846,-0.2803,-0.323,-0.4058,-0.4378,-0.3209,-0.2018,-0.1265,-0.0491,0.024,0.0838,0.0982,0.0828,0.0379,-0.0278,-0.0673,-0.063,-0.04,-0.0523,-0.0817,-0.1345,-0.1746,-0.1356,-0.071,-0.0235,0.0288,-0.0742,-0.1591,-0.1991,-0.2024,-0.204,-0.212,-0.2194,-0.2322,-0.2552,-0.2723,-0.2696,-0.3246,-0.3631,-0.221,-0.2194,-0.2552,-0.2723,-0.2819,-0.2862,-0.283,-0.2744,-0.2611,-0.2595,-0.3006,-0.3748,-0.3583,-0.2328,-0.157,-0.0812,-0.0144,0.0368,0.0518,0.055,0.0416,-0.0032,-0.0619,-0.0497,0.0155,-0.0027,-0.0497,-0.1143,-0.1463,-0.1073,-0.047,-0.0144,0.0224,-0.0384,-0.1041,-0.1527,-0.1751,-0.1927,-0.2125,-0.2216,-0.2392,-0.2563,-0.275,-0.2958,-0.3369,-0.386,0,-0.1746,-0.2205,-0.2456,-0.2648,-0.2707,-0.2675,-0.2595,-0.2477,-0.2328,-0.2306,-0.2744,-0.3369,-0.2787,-0.1874,-0.0956,-0.016,0.047,0.0763,0.0849,0.0667,-0.0043,-0.1009,-0.0961,0.0043,0.0075,-0.0502,-0.1148,-0.1025,-0.0518,0.0,0.0251,0.0027,0.0374,-0.0267,-0.0961,-0.1377,-0.1687,-0.2237,-0.2232,-0.2408,-0.2536,-0.2675,-0.283,-0.3054,-0.3182,-0.1116,0,-0.2104,-0.229,-0.2616,-0.2627,-0.2568,-0.2467,-0.2333,-0.2162,-0.1997,-0.2061,-0.2824,-0.3251,-0.2365,-0.149,-0.0566,0.0133,0.0587,0.0689,0.0411,-0.0283,-0.0982,-0.0742,0.0027,-0.0016,-0.0731,-0.1137,-0.0641,-0.0149,0.0208,0.0481,0,0.071,0.0171,-0.0609,-0.1025,-0.1516,-0.2552,-0.236,-0.2451,-0.2499,-0.2547,-0.2568,-0.2531,-0.2365,-0.204,-0.0828,0,-0.2221,-0.2803,-0.2627,-0.2504,-0.2376,-0.2226,-0.2045,-0.1853,-0.1778,-0.2312,-0.3412,-0.2718,-0.1922,-0.0924,-0.0299,0.0176,0.0368,0.0203,-0.0219,-0.0406,-0.0005,0.0198,-0.0192,-0.0881,-0.0876,-0.0192,0.0085,0.0235,0.0363,0,0.0422,0,-0.0945,-0.0908,0,-0.2654,-0.2472,-0.2483,-0.2467,-0.2445,-0.2381,-0.2237,-0.1805,-0.1767,-0.158,-0.0603,0,-0.2333,-0.2541,-0.2456,-0.2312,-0.2152,-0.197,-0.1773,-0.1655,-0.1954,-0.3257,-0.3054,-0.2296,-0.1207,-0.0491,-0.0016,0.0251,0.0214,0.0117,0.0256,0.0368,0.0117,-0.0411,-0.0844,-0.0427,0.0133,0.0219,0.0251,0.0198,0,0.0331,0.0,-0.1351,0,-0.0304,-0.2269,-0.2387,-0.2467,-0.244,-0.2397,-0.2322,-0.2264,-0.149,-0.1927,-0.166,-0.1367,0,-0.1703,-0.2654,-0.2472,-0.2269,-0.2082,-0.1895,-0.1687,-0.1543,-0.1703,-0.2862,-0.3129,-0.2483,-0.1415,-0.0646,-0.0214,0.0091,0.0198,0.0272,0.032,0.023,-0.0064,-0.055,-0.0619,-0.0016,0.0224,0.0251,0.0198,0.008,0,0,0,0,0,-0.0609,-0.2194,-0.2296,-0.2424,-0.2456,-0.2408,-0.2333,-0.2344,0,-0.2232,-0.1906,-0.1345,0,0,-0.2654,-0.2435,-0.2189,-0.1986,-0.1794,-0.157,-0.1383,-0.1452,-0.2322,-0.2872,-0.2445,-0.1623,-0.0892,-0.0502,-0.0155,0.0053,0.0133,0.0123,-0.0016,-0.032,-0.0523,-0.0214,0.0187,0.0182,0.0155,0.0005,0.0032,0,0,0,0,0,0,-0.221,-0.212,-0.2371,-0.2531,-0.2515,-0.2269,-0.2104,-0.0822,-0.2168,-0.2242,-0.1159,0,0,-0.2344,-0.228,-0.2061,-0.1858,-0.1671,-0.1436,-0.1191,-0.1148,-0.1666,-0.2344,-0.2248,-0.1762,-0.1127,-0.0678,-0.0347,-0.0133,-0.008,-0.0149,-0.0342,-0.0454,-0.0187,0.0166,0.0203,0.0085,-0.0069,-0.0117,0.0043,0,0,0,0,0,0,-0.1372,-0.1783,-0.2573,-0.2563,-0.268,-0.2237,-0.1954,-0.1773,-0.2056,-0.2424,0,0,0,-0.22,-0.2178,-0.1959,-0.1725,-0.1538,-0.1313,-0.103,-0.086,-0.103,-0.1596,-0.1831,-0.1644,-0.118,-0.0763,-0.0502,-0.0347,-0.0326,-0.0384,-0.0368,-0.0166,0.0149,0.0246,0.0107,-0.0091,-0.0224,-0.008,0.0091,0,0,0,0,0,0,-0.0721,-0.1458,-0.3358,-0.2472,-0.2664,-0.2184,-0.1917,-0.1815,-0.1826,-0.1869,-0.0416,-0.0336,0,-0.2125,-0.212,-0.1869,-0.1607,-0.142,-0.1217,-0.094,-0.0699,-0.0625,-0.0838,-0.1201,-0.126,-0.0961,-0.0699,-0.0523,-0.0395,-0.032,-0.0246,-0.0091,0.0075,0.0133,0.0059,-0.0101,-0.0208,-0.0144,0.0016,0.0149,0,0,0,0,0,0,0,-0.1297,-0.4277,-0.2488,-0.2328,-0.1986,-0.1751,-0.1639,-0.1495,-0.1303,-0.0918,-0.0769,0,-0.2082,-0.2061,-0.1783,-0.1516,-0.1335,-0.1159,-0.0908,-0.0667,-0.0497,-0.0438,-0.0571,-0.0657,-0.0555,-0.0486,-0.0379,-0.0278,-0.0208,-0.0139,-0.0053,-0.0021,-0.0016,-0.0075,-0.0149,-0.0117,0.0005,0.0101,0.0166,0,0,0,0.0069,0.0208,0,0,0,-0.4282,-0.2605,-0.1858,-0.1757,-0.158,-0.1484,-0.1377,-0.1255,-0.1041,-0.0737,0,-0.205,-0.1975,-0.1682,-0.1442,-0.1281,-0.1127,-0.0918,-0.0689,-0.0518,-0.0379,-0.0235,-0.0203,-0.0224,-0.0256,-0.0251,-0.023,-0.0214,-0.0176,-0.0117,-0.0059,-0.0005,0.0011,0.0005,0.0016,0.008,0.0123,0.0144,0,0,-0.0486,0.0844,0.1009,-0.0224,0.0,0.0,-0.3583,-0.2691,-0.1602,-0.1575,-0.1436,-0.1367,-0.134,-0.1308,-0.1185,-0.0609,0,-0.204,-0.1847,-0.1554,-0.1361,-0.1223,-0.1078,-0.0908,-0.0737,-0.0561,-0.0368,-0.0192,-0.0123,-0.0112,-0.016,-0.0192,-0.0214,-0.0203,-0.0139,-0.0037,0.0069,0.0133,0.0144,0.0112,0.0096,0.0112,0.0112,0.0117,0,0,-0.0481,0.1554,0.1596,-0.0448,0,0,-0.2782,-0.2515,-0.1821,-0.1516,-0.134,-0.1271,-0.1292,-0.1329,-0.1164,0,-0.0486,-0.1725,-0.1575,-0.1377,-0.1239,-0.1089,-0.0929,-0.0817,-0.071,-0.0545,-0.0374,-0.0251,-0.0219,-0.0208,-0.0235,-0.024,-0.0219,-0.0171,-0.0075,0.0059,0.0176,0.024,0.0246,0.0208,0.016,0.0139,0.0107,0.0085,0.0144,-0.04,0.0176,0,0,0,0,0,-0.2018,-0.2173,-0.2125,-0.1575,-0.1319,-0.1185,-0.1132,-0.1159,-0.0998,-0.0432,-0.094,-0.1244,-0.1228,-0.1164,-0.1057,-0.086,-0.071,-0.0678,-0.0609,-0.0475,-0.039,-0.0363,-0.0395,-0.04,-0.0411,-0.0358,-0.023,-0.0112,0.0005,0.0144,0.023,0.0267,0.0288,0.0267,0.0198,0.016,0.0091,0.0059,0.0288,-0.0278,0.0304,0.0075,0.0048,0,0,0,-0.1837,-0.2013,-0.2093,-0.1682,-0.1399,-0.1191,-0.0886,-0.0918,-0.1014,-0.0988,-0.0956,-0.0982,-0.0966,-0.0956,-0.086,-0.063,-0.0507,-0.055,-0.0513,-0.0416,-0.0395,-0.0513,-0.0598,-0.0614,-0.0635,-0.0481,-0.0182,0.0027,0.0144,0.0198,0.0155,0.008,0.0112,0.0139,0.0037,0.016,0.0075,0.0021,0,0.0368,0.023,0.0149,0.024,0.0043,0,0,-0.212,-0.1698,-0.1767,-0.1644,-0.1634,-0.1383,-0.0635,-0.0694,-0.1153,-0.126,-0.1036,-0.0849,-0.0737,-0.0721,-0.0646,-0.0406,-0.0235,-0.0384,-0.055,-0.0593,-0.0331,-0.0587,-0.0758,-0.086,-0.0796,-0.0667,-0.031,-0.0016,0.016,0.0283,0.0069,-0.0133,-0.0187,-0.0224,-0.0817,0.0133,0.0075,0.0,0.0577,0.0833,0.047,0.0294,0.0432,0.0112,-0.0395,-0.0411,-0.1933,-0.079,-0.0988,-0.1281,-0.2066,-0.1933,-0.0502,-0.0566,-0.1276,-0.1618,-0.1185,-0.0886,-0.0443,-0.0395,-0.0347,-0.0256,0.0096,0.0048,-0.0347,-0.1004,-0.0283,-0.0571,-0.0774,-0.1292,-0.0635,-0.0481,-0.0149,-0.0064,-0.0112,0.0513,0.023,0.0112,0.0384,-0.0326,-0.2018,-0.0139,0.0112,0.0043,0.1153,0.1271,0.0977,0.0464,0.0368,-0.0016,-0.0657,-0.0812,-0.1436,-0.0171,-0.0454,-0.1004,-0.2392,-0.236,0,0,-0.1313,-0.22,-0.1377,-0.1036,-0.0256,-0.0203,-0.0155,-0.0166,0.0315,0.0459,0.0187,-0.205,0,0,0,-0.0587,0.0107,0.0683,0.0555,0.0406,-0.0144,0.0982,0.0726,0.0187,0.1073,0,-0.0774,0.0715,0.0139,0.0091,0,0.1372,0.1361,0.0769,0.0203,-0.0123,-0.0438,-0.0726,-0.0715,0,0,0,-0.1959,-0.1794,-0.0432,-0.0267,0,-0.2232,-0.1735,-0.1191,0,0,0,0,0,0,0,-0.2146,-0.0667,-0.0021,0.0198,0.0454,0.0107,0.1276,0,0,0.0838,0.1196,0.0555,-0.0214,0.1041,-0.1698,0.0358,0,0,0,0,0,0.1516,0.1249,0.063,0.0256,-0.0027,-0.0336,0.008,0.0037,-0.0027,-0.008,-0.1062,-0.0902,-0.0625,-0.04,-0.0246,-0.1233,-0.1442,-0.1111,-0.0272,-0.0176,-0.0101,-0.0182,-0.0096,-0.0069,0.0107,-0.086,-0.094,0.0112,0.071,0.0705,0.0235,0.1068,0.0149,0.0037,0.1212,0.173,0,0,0,-0.173,0.0133,-0.0336,-0.0251,0,0,0,0,0.1442,0.11,0.0603,0.0299,-0.0016,0.0678,0.0246,0.0032,0.0075,-0.0358,-0.0443,-0.0272,-0.0149,-0.0336,-0.039,-0.0806,-0.1041,-0.0481,-0.0278,-0.0021,0.0053,0.0208,-0.0198,0.0214,-0.0427,-0.0545,0.0267,0.0902,0.1084,0.0555,0.0299,-0.0561,0.008,0.0523,0.2045,0.0,0.0,-0.0486,-0.0064,-0.0192,-0.0555,-0.0678,0,0,0,0,0,0,0,0,0,0.103,0.0416,0.0117,0.0577,0.0112,-0.0128,-0.008,0.0011,-0.0075,-0.0208,-0.0662,-0.1223,-0.0422,-0.0208,0.0155,0.0481,0.0614,-0.0256,0,0,0,0,0.0769,0.1367,0.071,-0.0187,-0.0977,0,0,0,0,0,-0.0171,0.0,0.0064,-0.0475,-0.1052,0,0,0,0,0,0,0,0,0,0,0,0,0.0833,0.0283,0.0011,0.0,0.0059,0.0037,-0.0208,-0.0582,-0.1335,0,0,0,0,0,0,0,0,0,0,0,0,0.095,-0.0288,-0.0486,0,0,0,0,0,0.0769,0.024,0.0283,-0.055,-0.1313,0,0,0,0,0,0,0,0,0,0,0,0,0,0,0,0,0,0,0,0,0,0,0,0,0,0,0,0,0,0,0,0,0,0,0,0,0,0,0,0,0,0.1175,0.0705,0.0464,-0.0699,-0.1404,0,0,0,0,0,0,0,0,0,0,0,0,0,0,0,0,0,0,0,0,0,0,0,0,0,0,0,0,0,0,0,0,0,0,0,0,0,0,0,0,0,0.1474,0.118,0.0801,-0.0924,-0.1591,0,0,0,0,0,0,0,0,0,0,0,0,0,0,0,0,0,0,0,0,0,0,0,0,0,0,0,0,0,0,0,0,0,0,0,0,0,0,0,0,0,0,0.1959,0.1388,-0.0908,-0.1714,0,0,0,0,0,0,0,0,0,0,0,0,0,0,0,0,0,0,0,0,0,0,0,0,0,0,0,0,0,0,0,0,0,0,0,0,0,0,0,0,0,0,0.2878,0.1831,-0.047,-0.1345,0,0,0,0,0,0,0,0,0,0,0,0,0,0,0,0,0,0,0,0,0,0,0,0,0,0,0,0,0,0,0,0,0,0,0,0,0,0,0,0,0,0,0.3219,0.1933,0.0395,-0.0806,0,0,0,0,0,0,0,0,0,0,0,0,0,0,0,0,0,0,0,0,0,0,0,0,0,0,0,0,0,0,0,0,0,0,0,0,0,0,0,0,0,0,0.3235,0.2034,0.102,0.0117,0]}]],[[{"header":{"parameterUnit":"kt","parameterCategory":2,"dx":1,"dy":1,"la1":29.46422004699707,"la2":30.564109802246094,"lo1":-89.4342041015625,"lo2":-87.934326171875,"nx":46,"ny":34,"refTime":"2022-10-09T00:00:00:Z","depth":"8","parameterNumber":2,"parameterNumberName":"U-component_of_CURRENTS"},"data":[-0.0101,0.0182,0.0475,0.0667,0.0726,0.071,0.0699,0,0.0011,0.0513,0.1239,0.1185,0.0806,0.0529,0.0101,-0.0352,-0.0742,-0.1062,-0.1442,-0.2136,-0.3203,-0.4293,-0.5425,-0.5809,-0.5115,-0.4287,-0.3615,-0.3155,-0.2926,-0.2851,-0.2782,-0.2568,-0.2306,-0.1991,-0.1714,-0.166,-0.1767,-0.1874,-0.1767,-0.1436,-0.1004,-0.0443,0.0278,0.1052,0.1778,0.2451,-0.0016,0.0107,0.0299,0.0368,0.023,-0.0037,-0.0561,-0.0913,0,0.0486,0.1442,0.0956,0.0133,0.0256,0.0069,-0.031,-0.0715,-0.1095,-0.1388,-0.1618,-0.2029,-0.2824,-0.3817,-0.4784,-0.5243,-0.5045,-0.4768,-0.4463,-0.4058,-0.3583,-0.3017,-0.2493,-0.2264,-0.2344,-0.2483,-0.2557,-0.2472,-0.2152,-0.1762,-0.1431,-0.1111,-0.0678,-0.0139,0.0475,0.1111,0.1714,0.0048,0.0075,0.0294,0.0363,0.0246,0.0155,0.0219,0.0598,0.1703,0.1885,0.126,0,0.0219,0.0432,0.0246,-0.0149,-0.0619,-0.1046,-0.1393,-0.1639,-0.1799,-0.2024,-0.2611,-0.3545,-0.4325,-0.4709,-0.4885,-0.5013,-0.4875,-0.4282,-0.3444,-0.2792,-0.2531,-0.2611,-0.2776,-0.2776,-0.2584,-0.22,-0.1623,-0.1057,-0.0694,-0.0454,-0.032,-0.0155,0.0101,0.0326,0.0315,0.0422,0.0587,0.0507,0.032,0.0235,0.0304,0.0497,0.0774,0.0774,0.0384,0.1169,0.1826,0.1281,0.0694,-0.0005,-0.0571,-0.1057,-0.1377,-0.1596,-0.1757,-0.1863,-0.2013,-0.252,-0.3385,-0.3919,-0.386,-0.3753,-0.3753,-0.362,-0.3187,-0.2654,-0.2296,-0.2146,-0.2002,-0.1393,-0.0315,0.0278,0.0182,0.0219,0.0342,0.0235,-0.0059,-0.039,-0.0721,-0.1185,0.1281,0.1148,0.0956,0.0641,0.0379,0.0283,0.0299,0.0352,0.0432,0.0491,0.0545,0.079,0.1105,0.15,0.0881,-0.0304,-0.0796,-0.1191,-0.1431,-0.157,-0.1666,-0.1746,-0.1789,-0.1906,-0.2381,-0.3161,-0.3401,-0.2883,-0.228,-0.1831,-0.1527,-0.126,-0.1014,-0.079,-0.0406,-0.0091,0.0,0.0166,0.0256,0.0331,0.0422,0.0235,-0.0075,-0.0384,-0.0742,-0.1105,0.1393,0.1431,0.1078,0.0651,0.0347,0.0214,0.0192,0.0203,0.0208,0.0219,0.0219,0.024,0.0294,0.0326,0,-0.0641,-0.1308,-0.1393,-0.1506,-0.1532,-0.1554,-0.158,-0.1602,-0.1623,-0.1751,-0.2178,-0.2648,-0.26,-0.2034,-0.1255,-0.0529,-0.0005,0.0368,0.0705,0.1057,0.1132,0.0838,0.0283,-0.0235,-0.0326,-0.0139,-0.0182,-0.0481,-0.0673,-0.0721,-0.0822,0.2077,0.1773,0.1116,0.0603,0.0331,0.0096,-0.0048,-0.0016,0.0016,0.0016,-0.0037,-0.0192,-0.0561,-0.1281,-0.1746,0,-0.0785,-0.1548,-0.1522,-0.1447,-0.1404,-0.1383,-0.1367,-0.1356,-0.1361,-0.1474,-0.1837,-0.2066,-0.1714,-0.0844,0.0091,0.0742,0.1185,0.1484,0.1602,0.1442,0.1009,0.0278,-0.0443,-0.0571,-0.0406,-0.0539,-0.0817,-0.0908,-0.0886,-0.0865,0,0.0294,0.0641,0.0699,0.0822,0.031,-0.0283,-0.016,-0.0048,-0.0021,-0.0069,-0.0198,-0.0427,-0.0774,-0.1137,-0.1303,0,-0.0812,-0.1463,-0.1265,-0.1196,-0.1153,-0.1121,-0.1089,-0.1046,-0.1014,-0.1159,-0.1442,-0.1516,-0.1217,-0.0667,-0.0053,0.055,0.1025,0.1223,0.1078,0.0507,-0.0347,-0.078,-0.0673,-0.0657,-0.0881,-0.1084,-0.1127,-0.1041,-0.095,0,-0.0203,0,0.0454,0.0908,0,0.0021,0.0053,0.008,0.0101,0.008,0.0021,-0.0091,-0.0427,-0.0747,-0.0881,-0.095,0,-0.0395,-0.0881,-0.0945,-0.0924,-0.0892,-0.086,-0.0817,-0.0774,-0.0822,-0.1132,-0.1596,-0.1789,-0.1682,-0.1431,-0.103,-0.0641,-0.0432,-0.0491,-0.0828,-0.1036,-0.0988,-0.0956,-0.1046,-0.1196,-0.1292,-0.1239,-0.1148,-0.1078,0,0.0822,0.1084,0.1153,0,0.0347,0.0502,0.0235,0.0176,0.0203,0.0235,0.0278,0.0432,-0.0123,-0.0582,-0.024,-0.0117,0,-0.0614,-0.1036,-0.078,-0.0705,-0.0678,-0.0662,-0.0662,-0.0673,-0.0737,-0.1137,-0.1917,-0.2504,-0.2654,-0.2579,-0.2339,-0.2066,-0.1863,-0.1634,-0.1383,-0.1276,-0.1297,-0.1287,-0.1303,-0.1399,-0.1351,-0.1196,-0.1046,-0.0886,0,0,0,0,0,-0.023,-0.0267,-0.0053,-0.0021,0.0032,0.0112,0.0176,0.0198,0,0.0144,0.0374,0.0459,0,0,-0.0085,-0.0272,-0.0395,-0.0454,-0.0491,-0.0534,-0.0609,-0.0747,-0.1217,-0.2013,-0.267,-0.2963,-0.2985,-0.283,-0.2568,-0.2232,-0.1981,-0.1906,-0.1799,-0.1527,-0.1377,-0.1447,-0.1495,-0.1367,-0.1153,-0.0876,-0.0635,0,0,0,0,0,0,-0.0032,-0.016,-0.0326,-0.0379,-0.0304,-0.0267,-0.0432,0.0182,0.0849,0.0977,0.1191,0,0,0.0,-0.0091,-0.0208,-0.0288,-0.0358,-0.0427,-0.0523,-0.0699,-0.1169,-0.1917,-0.2595,-0.2974,-0.3097,-0.3059,-0.292,-0.2739,-0.2488,-0.2104,-0.1682,-0.1479,-0.1479,-0.1516,-0.142,-0.1223,-0.0982,-0.0731,-0.0641,0,0,0,0,0,0,0.0037,-0.0123,-0.0235,-0.0272,-0.0374,-0.0331,-0.024,-0.0032,0.016,0.0208,0,0,0,0.0037,0.0005,-0.0107,-0.0192,-0.0272,-0.0352,-0.0427,-0.0555,-0.087,-0.1575,-0.2317,-0.2712,-0.2883,-0.2883,-0.2739,-0.2456,-0.2082,-0.1714,-0.1522,-0.1586,-0.166,-0.1479,-0.1207,-0.1004,-0.0812,-0.0726,-0.0769,0,0,0,0,0,0,0.0486,0.0283,-0.0043,0.0187,-0.0064,-0.0224,-0.0315,-0.0379,-0.0545,-0.1062,-0.103,-0.0619,0,0.0048,0.0043,-0.0064,-0.0149,-0.0219,-0.0283,-0.0331,-0.0374,-0.0491,-0.0908,-0.1623,-0.2162,-0.2317,-0.228,-0.2136,-0.1959,-0.1847,-0.1837,-0.181,-0.1671,-0.1431,-0.118,-0.0956,-0.0785,-0.0785,-0.0892,-0.0956,0,0,0,0,0,0,0,-0.0214,-0.0187,0.0123,0.0053,-0.0144,-0.0224,-0.0283,-0.0331,-0.0347,-0.023,-0.0117,0,0.0048,0.0043,-0.0064,-0.0139,-0.0187,-0.023,-0.0251,-0.0272,-0.0278,-0.031,-0.0587,-0.1212,-0.1725,-0.1874,-0.1863,-0.1794,-0.1698,-0.1575,-0.141,-0.1196,-0.0966,-0.0833,-0.0833,-0.0924,-0.1025,-0.1073,-0.1062,0,0,0,0.0198,0.0395,0,0,0,0.0139,0.0304,0.0187,0.0005,-0.0048,-0.0069,-0.0048,0.0043,0.0187,0.0267,0,0.0048,0.0032,-0.0075,-0.0155,-0.0208,-0.0246,-0.0267,-0.0262,-0.0256,-0.0278,-0.0342,-0.0448,-0.0619,-0.0806,-0.0929,-0.095,-0.0897,-0.0822,-0.0763,-0.0753,-0.0817,-0.0934,-0.1046,-0.1132,-0.1159,-0.1132,-0.1073,0,0,0.1399,0.2403,0.1148,0.0155,0.0646,0.1778,0.1313,0.0267,0.0091,0.0101,0.0117,0.0128,0.0187,0.031,0.0513,0.0641,0,0.0064,0.0043,-0.0091,-0.0203,-0.0294,-0.0395,-0.0486,-0.0529,-0.0545,-0.0582,-0.0625,-0.0646,-0.0641,-0.063,-0.063,-0.0635,-0.0657,-0.0705,-0.0796,-0.0913,-0.1036,-0.1137,-0.1196,-0.1217,-0.1201,-0.1148,-0.1068,0,0,0.0699,0.1153,0.0774,0.0689,0,0,0.0251,0.0107,-0.0166,0.0027,0.0123,0.0176,0.0219,0.0262,0.0288,0,0.0481,0.0683,0.0208,-0.0085,-0.0278,-0.047,-0.0694,-0.0913,-0.1084,-0.1217,-0.1303,-0.1297,-0.1196,-0.1052,-0.0924,-0.0833,-0.0801,-0.0828,-0.0881,-0.094,-0.0993,-0.1041,-0.11,-0.1164,-0.1201,-0.1201,-0.1159,-0.1084,-0.0005,0.0614,0.1255,0,0,0,0,0,0.0155,0.0,-0.0272,-0.0149,0.0016,0.0117,0.0091,-0.0059,-0.0171,0.0214,0.0593,0.04,0.0096,-0.0166,-0.0395,-0.0657,-0.0924,-0.1137,-0.1292,-0.142,-0.1484,-0.1458,-0.1356,-0.1207,-0.1041,-0.0913,-0.0876,-0.0929,-0.1025,-0.1143,-0.1244,-0.1281,-0.1265,-0.1233,-0.1201,-0.1169,-0.1137,-0.1073,0.0363,0.0123,0.0352,0.0998,0.1116,0,0,0,0.0192,0.0032,-0.0352,-0.031,-0.0133,0.0064,0.0112,0.0016,0.0021,0.0182,0.0278,0.0182,-0.0032,-0.0272,-0.0513,-0.0747,-0.0982,-0.1196,-0.1393,-0.1559,-0.1709,-0.1746,-0.1628,-0.1458,-0.1287,-0.1185,-0.1244,-0.1458,-0.1794,-0.2146,-0.2312,-0.2205,-0.1917,-0.1607,-0.1324,-0.1164,-0.1116,-0.1057,0,0.0027,0.0128,0.0715,0.149,0.1751,0,0,0.0646,0.0715,-0.0123,-0.0443,-0.0326,0.0027,0.0149,-0.0016,-0.0043,0.0133,0.024,0.0166,-0.0053,-0.0342,-0.063,-0.0934,-0.1329,-0.1773,-0.2024,-0.1965,-0.1954,-0.2109,-0.2189,-0.2141,-0.212,-0.2226,-0.2317,-0.2397,-0.2483,-0.2573,-0.2579,-0.2467,-0.2301,-0.2093,-0.1575,-0.1116,-0.1057,-0.1036,0.0587,0.032,0.0416,0.0892,0.1372,0.1639,0.2045,0.2157,0.2413,0.2061,0.0646,-0.0176,-0.0096,0.0443,0.0475,-0.0064,-0.0304,-0.008,0.0176,0.0246,0.0053,-0.0342,-0.0758,-0.0966,-0.0966,-0.1132,-0.1329,-0.1143,-0.1164,-0.1666,-0.2274,-0.2232,-0.221,-0.2216,-0.2221,-0.2344,-0.2168,-0.1895,-0.1687,-0.1404,-0.1201,-0.1383,-0.102,-0.0929,-0.0977,-0.0993,0.0416,0.0646,0.0486,0.0785,0.1137,0.1361,0.1554,0.1602,0.1196,0.0785,0.0657,0.0224,0.0117,0.0326,0,0,-0.0315,-0.0256,0.0443,0.086,0.0523,-0.0064,-0.0347,-0.0208,0.032,0.0577,0.0198,-0.0128,0,0,0,-0.0336,-0.0603,-0.0641,-0.0972,-0.0929,-0.0817,-0.0149,0.0966,0.173,0.2184,0,-0.0464,-0.1062,-0.1148,-0.1046,0,0.0582,0.0817,0.0593,0.0833,0.094,0.0892,0.0865,0.0886,0,0,0,-0.0171,-0.0662,-0.0726,-0.047,0,0.0331,0.1137,0.1623,0,0,0,0,0,0,0,-0.0304,-0.055,-0.0443,-0.039,0.0294,0.1089,0.1223,0,0,0.0934,0.142,0.103,0.0924,0.1399,0.2242,0.2435,0,0,0,0,0,0.0598,0.0998,0.094,0.1175,0.1265,0.1073,0.0705,0.0555,0.094,0.1089,0.0571,0.0043,-0.032,-0.0502,-0.0053,0.0448,0.0064,-0.0363,-0.0395,-0.0737,-0.0918,-0.0513,-0.0149,0.0155,0.0566,0.047,-0.0107,-0.0304,0.0011,0.0753,0.1415,0.1447,0.1207,0.1159,0.1207,0.1196,0,0,0,-0.0267,-0.0091,0.055,0.0924,0,0,0,0,0.0443,0.1116,0.1452,0.157,0.1591,0.141,0.1116,0.1036,0.0929,0.0598,0.0272,0.0101,0.0011,-0.0021,0.0149,0.032,0.0352,0.0208,-0.031,-0.0614,-0.0112,0.0881,0.1447,0.1185,0.0715,0.0427,0.0929,0.181,0.1975,0.1703,0.1393,0.1159,0.0934,0.103,0.1639,0.2018,0.2109,0.1815,0.1997,0.2184,0.1399,0.0934,0,0,0,0,0,0,0,0,0,0.0459,0.1105,0.1372,0.1265,0.0982,0.0801,0.0699,0.0689,0.0689,0.0876,0.1057,0.1153,0.1127,0.0982,0.1068,0.1121,0.1249,0.1426,0,0,0,0,0.0625,0.1511,0.1474,0.1132,0.1095,0,0,0,0,0,0.0673,0.1474,0.1153,0.0502,0.0182,0,0,0,0,0,0,0,0,0,0,0,0,0.0384,0.0913,0.1095,0.1169,0.1276,0.1404,0.1431,0.1212,0.1025,0,0,0,0,0,0,0,0,0,0,0,0,0.0518,0.0806,0.0577,0,0,0,0,0,0.0561,0.134,0.1281,0.0876,0.0481,0,0,0,0,0,0,0,0,0,0,0,0,0,0,0,0,0,0,0,0,0,0,0,0,0,0,0,0,0,0,0,0,0,0,0,0,0,0,0,0,0,0.0427,0.1244,0.1943,0.189,0.1383,0,0,0,0,0,0,0,0,0,0,0,0,0,0,0,0,0,0,0,0,0,0,0,0,0,0,0,0,0,0,0,0,0,0,0,0,0,0,0,0,0,0.0523,0.1217,0.1917,0.2509,0.204,0,0,0,0,0,0,0,0,0,0,0,0,0,0,0,0,0,0,0,0,0,0,0,0,0,0,0,0,0,0,0,0,0,0,0,0,0,0,0,0,0,0,0.1191,0.1377,0.1511,0.1244,0,0,0,0,0,0,0,0,0,0,0,0,0,0,0,0,0,0,0,0,0,0,0,0,0,0,0,0,0,0,0,0,0,0,0,0,0,0,0,0,0,0,0.0486,0.1089,0.1164,0.0998,0,0,0,0,0,0,0,0,0,0,0,0,0,0,0,0,0,0,0,0,0,0,0,0,0,0,0,0,0,0,0,0,0,0,0,0,0,0,0,0,0,0,0.0459,0.0993,0.1116,0.0934,0,0,0,0,0,0,0,0,0,0,0,0,0,0,0,0,0,0,0,0,0,0,0,0,0,0,0,0,0,0,0,0,0,0,0,0,0,0,0,0,0,0,0.063,0.1175,0.0998,0.0817,0]}],[{"header":{"parameterUnit":"kt","parameterCategory":2,"dx":1,"dy":1,"la1":29.46422004699707,"la2":30.564109802246094,"lo1":-89.4342041015625,"lo2":-87.934326171875,"nx":46,"ny":34,"refTime":"2022-10-09T00:00:00:Z","depth":"8","parameterNumber":3,"parameterNumberName":"V-component_of_CURRENTS"},"data":[-0.0224,-0.0545,-0.0892,-0.1239,-0.1719,-0.2125,-0.2584,0,-0.0043,-0.2461,-0.2776,-0.2392,-0.3091,-0.3342,-0.3716,-0.3839,-0.3785,-0.362,-0.3465,-0.3609,-0.4058,-0.4752,-0.4875,-0.3849,-0.2141,-0.1052,-0.0678,-0.0395,-0.0246,-0.0256,0.0075,0.1036,0.2002,0.189,0.0982,0.0705,0.0635,0.047,0.0272,0.0166,0.0027,0.0005,0.0139,0.031,0.0475,0.0619,-0.0187,-0.0566,-0.1041,-0.1452,-0.1901,-0.2045,-0.1991,-0.0502,0,-0.3454,-0.3583,-0.2072,-0.315,-0.3326,-0.3454,-0.3631,-0.3625,-0.3518,-0.3348,-0.3219,-0.3225,-0.3534,-0.4463,-0.4848,-0.3914,-0.2194,-0.1271,-0.0641,-0.0005,0.0395,0.0929,0.1762,0.2536,0.2568,0.2024,0.1447,0.0902,0.047,0.0144,0.0016,-0.0235,-0.0491,-0.047,-0.0251,0.0011,0.0224,-0.0005,-0.0561,-0.1175,-0.1596,-0.1927,-0.1879,-0.1698,-0.1324,-0.0849,-0.3235,-0.3534,0,-0.3465,-0.3342,-0.3166,-0.3278,-0.331,-0.3251,-0.3193,-0.3113,-0.2985,-0.2915,-0.33,-0.4202,-0.4682,-0.3663,-0.2194,-0.1297,-0.0406,0.039,0.1132,0.1826,0.2205,0.204,0.1458,0.0662,0.0048,-0.0219,-0.0299,-0.0406,-0.0641,-0.1089,-0.1281,-0.0924,-0.0427,-0.0048,0.0198,-0.0598,-0.1244,-0.1666,-0.1911,-0.1869,-0.1826,-0.1794,-0.1869,-0.2435,-0.2691,-0.1116,-0.3214,-0.3129,-0.2509,-0.2702,-0.2835,-0.2888,-0.2926,-0.2936,-0.2878,-0.2744,-0.2712,-0.3145,-0.3967,-0.4277,-0.3113,-0.1938,-0.1196,-0.0427,0.031,0.0897,0.1046,0.0892,0.0443,-0.0198,-0.0598,-0.0545,-0.032,-0.0454,-0.0763,-0.1292,-0.1687,-0.1297,-0.0651,-0.0182,0.047,-0.0529,-0.1132,-0.1596,-0.1794,-0.1826,-0.1895,-0.1975,-0.2093,-0.2306,-0.2461,-0.244,-0.2904,-0.3214,-0.2007,-0.1981,-0.2285,-0.2509,-0.2659,-0.2728,-0.2712,-0.2638,-0.252,-0.2515,-0.2931,-0.3657,-0.3497,-0.2253,-0.1495,-0.0747,-0.008,0.0427,0.0577,0.0609,0.0475,0.0027,-0.0566,-0.0432,0.0219,0.0037,-0.0443,-0.1084,-0.1404,-0.1014,-0.0416,-0.0085,0.047,-0.0219,-0.0774,-0.1308,-0.1559,-0.1714,-0.189,-0.2002,-0.2157,-0.2317,-0.2488,-0.2664,-0.3011,-0.3422,0,-0.1575,-0.1975,-0.221,-0.2467,-0.2563,-0.2557,-0.2493,-0.2387,-0.2248,-0.2237,-0.267,-0.33,-0.2712,-0.1789,-0.0881,-0.0091,0.0529,0.0817,0.0902,0.0721,0.0016,-0.095,-0.0902,0.0096,0.0139,-0.0443,-0.1089,-0.0966,-0.0459,0.0059,0.031,0.0294,0.0513,-0.0123,-0.0854,-0.1078,-0.1255,-0.1869,-0.2029,-0.2178,-0.2296,-0.2419,-0.2552,-0.2739,-0.284,-0.1004,0,-0.189,-0.2045,-0.2397,-0.2477,-0.2445,-0.2365,-0.2242,-0.2088,-0.1927,-0.1997,-0.2766,-0.3182,-0.2285,-0.141,-0.0481,0.0208,0.0646,0.0747,0.047,-0.023,-0.0924,-0.0689,0.0085,0.0048,-0.0673,-0.1078,-0.0582,-0.0091,0.0267,0.0539,0,0.0844,0.0278,-0.0534,-0.0662,-0.0886,-0.2056,-0.2152,-0.2226,-0.2274,-0.2312,-0.2328,-0.2285,-0.213,-0.1837,-0.0747,0,-0.1991,-0.2541,-0.2461,-0.2381,-0.2274,-0.2136,-0.197,-0.1789,-0.1714,-0.2253,-0.3348,-0.2659,-0.1853,-0.0849,-0.0219,0.0251,0.0432,0.0267,-0.0155,-0.0347,0.0048,0.0256,-0.0133,-0.0822,-0.0817,-0.0133,0.0144,0.0294,0.0422,0,0.0513,0,-0.086,-0.0566,0,-0.2258,-0.2264,-0.2264,-0.2248,-0.2226,-0.2168,-0.2034,-0.1639,-0.1602,-0.1431,-0.0545,0,-0.2098,-0.2355,-0.2322,-0.221,-0.2066,-0.1895,-0.1709,-0.1596,-0.1901,-0.3198,-0.2995,-0.2237,-0.1143,-0.0422,0.0053,0.0315,0.0278,0.0176,0.031,0.0422,0.0176,-0.0347,-0.0785,-0.0368,0.0187,0.0278,0.031,0.0256,0,0.0374,0.0,-0.1249,0,-0.0278,-0.2056,-0.2189,-0.2237,-0.2216,-0.2173,-0.2109,-0.2056,-0.1361,-0.1757,-0.1511,-0.1239,0,-0.1543,-0.2419,-0.2328,-0.2168,-0.2002,-0.1826,-0.1623,-0.149,-0.1644,-0.2808,-0.307,-0.2419,-0.1356,-0.0582,-0.0149,0.0155,0.0256,0.0331,0.0379,0.0288,0.0,-0.0486,-0.0555,0.0043,0.0283,0.031,0.0256,0.0133,0,0,0,0,0,-0.0555,-0.197,-0.204,-0.2114,-0.2162,-0.2146,-0.2098,-0.212,0,-0.2024,-0.173,-0.1217,0,0,-0.2397,-0.228,-0.2088,-0.1906,-0.173,-0.1511,-0.1329,-0.1399,-0.2269,-0.2814,-0.2381,-0.1564,-0.0838,-0.0438,-0.0096,0.0112,0.0192,0.0187,0.0048,-0.0256,-0.0459,-0.0149,0.024,0.024,0.0214,0.0059,0.0085,0,0,0,0,0,0,-0.1842,-0.165,-0.1874,-0.2093,-0.2162,-0.2018,-0.1885,-0.0747,-0.1954,-0.2018,-0.1046,0,0,-0.2109,-0.2125,-0.1965,-0.1778,-0.1607,-0.1377,-0.1137,-0.1095,-0.1612,-0.2285,-0.2184,-0.1698,-0.1068,-0.0619,-0.0283,-0.0069,-0.0016,-0.0085,-0.0278,-0.039,-0.0128,0.0219,0.0256,0.0139,-0.0016,-0.0069,0.0091,0,0,0,0,0,0,-0.0518,-0.1089,-0.189,-0.1997,-0.2237,-0.1997,-0.1746,-0.1607,-0.1858,-0.2178,0,0,0,-0.1981,-0.2018,-0.1863,-0.165,-0.1474,-0.1255,-0.0977,-0.0812,-0.0977,-0.1543,-0.1767,-0.1586,-0.1116,-0.0699,-0.0438,-0.0283,-0.0262,-0.032,-0.031,-0.0107,0.0203,0.0299,0.016,-0.0043,-0.0171,-0.0032,0.0144,0,0,0,0,0,0,0.0534,-0.0432,-0.2413,-0.1981,-0.2264,-0.1981,-0.1735,-0.1639,-0.1655,-0.1687,-0.0368,-0.0299,0,-0.1911,-0.1954,-0.1783,-0.1538,-0.1361,-0.1164,-0.0892,-0.0657,-0.0577,-0.079,-0.1148,-0.1201,-0.0902,-0.0641,-0.0464,-0.0336,-0.0267,-0.0192,-0.0037,0.0128,0.0187,0.0112,-0.0048,-0.0155,-0.0091,0.0069,0.0203,0,0,0,0,0,0,0,-0.0005,-0.2899,-0.2088,-0.2098,-0.1831,-0.1602,-0.1495,-0.1361,-0.118,-0.0822,-0.0689,0,-0.1874,-0.1906,-0.1703,-0.1452,-0.1281,-0.1105,-0.086,-0.0619,-0.0454,-0.0395,-0.0523,-0.0603,-0.0502,-0.0432,-0.0331,-0.0224,-0.0155,-0.0085,0.0,0.0032,0.0037,-0.0021,-0.0096,-0.0059,0.0059,0.0155,0.0224,0,0,0,0.0486,0.0539,0,0,0,-0.2568,-0.204,-0.1757,-0.1618,-0.1452,-0.1367,-0.126,-0.1143,-0.0945,-0.0657,0,-0.1847,-0.1842,-0.1607,-0.1377,-0.1228,-0.1073,-0.0865,-0.0646,-0.0475,-0.0336,-0.0192,-0.016,-0.0176,-0.0208,-0.0198,-0.0176,-0.016,-0.0123,-0.0064,-0.0005,0.0048,0.0069,0.0064,0.0075,0.0133,0.0176,0.0203,0,0,0.0037,0.1436,0.1356,0.0502,0.0,0.0,-0.1292,-0.1628,-0.1495,-0.1436,-0.1313,-0.1255,-0.1228,-0.1191,-0.1078,-0.0534,0,-0.1842,-0.1741,-0.1484,-0.1297,-0.1169,-0.1025,-0.0854,-0.0689,-0.0507,-0.032,-0.0144,-0.0075,-0.0064,-0.0112,-0.0144,-0.0166,-0.0155,-0.0085,0.0016,0.0123,0.0192,0.0203,0.0171,0.016,0.0171,0.0171,0.0171,0,0,0.0913,0.1895,0.1623,0.1004,0,0,-0.0545,-0.118,-0.1591,-0.1377,-0.1217,-0.1159,-0.118,-0.1212,-0.1052,0,-0.0432,-0.1575,-0.149,-0.1313,-0.118,-0.103,-0.087,-0.0758,-0.0646,-0.0481,-0.031,-0.0187,-0.0155,-0.0155,-0.0182,-0.0192,-0.0166,-0.0117,-0.0016,0.0117,0.0235,0.0304,0.031,0.0267,0.0224,0.0198,0.0166,0.0144,0.095,-0.0155,0.1639,0,0,0,0,0,-0.0523,-0.1116,-0.1799,-0.1415,-0.1191,-0.1073,-0.1025,-0.1046,-0.0892,-0.0384,-0.0844,-0.1148,-0.1159,-0.1105,-0.0998,-0.0796,-0.0641,-0.0609,-0.0539,-0.04,-0.031,-0.0283,-0.032,-0.0336,-0.0352,-0.0299,-0.0171,-0.0053,0.0069,0.0214,0.0304,0.0342,0.0358,0.0326,0.0256,0.0219,0.0149,0.0117,0.1901,0.0192,0.0972,0.0219,0.0352,0,0,0,-0.0091,-0.1004,-0.1714,-0.1442,-0.126,-0.1062,-0.0796,-0.0812,-0.0902,-0.0881,-0.0865,-0.0913,-0.0902,-0.0897,-0.0796,-0.0566,-0.0438,-0.0475,-0.0432,-0.0331,-0.031,-0.0427,-0.0513,-0.0545,-0.0566,-0.0406,-0.0107,0.0101,0.0235,0.0326,0.0304,0.0219,0.0208,0.0214,0.0107,0.0224,0.0128,0.0075,0,0.1057,0.0464,0.0406,0.0539,0.0432,0,0,0.0374,-0.0288,-0.1116,-0.1383,-0.1415,-0.1169,-0.0539,-0.0619,-0.1025,-0.1121,-0.094,-0.0785,-0.0683,-0.0667,-0.0587,-0.0326,-0.0144,-0.0251,-0.0368,-0.0432,-0.0235,-0.0491,-0.0625,-0.0769,-0.0673,-0.0454,-0.0053,0.0235,0.0411,0.0566,0.0432,0.024,0.008,0.008,-0.0497,0.0214,0.0112,0.0059,0.0459,0.1319,0.0753,0.0507,0.0486,0.0785,0.0635,0.0262,0.0048,0.0048,-0.0443,-0.1089,-0.1548,-0.1095,-0.0395,-0.0507,-0.1121,-0.1351,-0.0977,-0.0774,-0.0384,-0.0352,-0.0294,0.0037,0.0454,0.0352,0.0048,-0.0635,-0.0139,-0.0384,-0.0539,-0.0961,-0.0294,0.0016,0.0529,0.0614,0.0411,0.1009,0.0865,0.0774,0.1127,0.0406,-0.0641,0.0646,0.0133,0.0107,0.0918,0.1255,0.1169,0.0828,0.0635,0.0603,0.0715,0.0,-0.0699,-0.0133,-0.023,-0.0854,-0.1682,-0.1169,0,0,-0.1148,-0.141,-0.0598,-0.0513,-0.0182,-0.0166,-0.0107,0.0336,0.0934,0.0753,0.0438,-0.1201,0,0,0,0.0069,0.0897,0.1442,0.1062,0.1228,0.0828,0.1954,0.1506,0.1084,0.2029,0,0.0763,0.1164,0.0166,0.0149,0,0.1319,0.1361,0.1233,0.1036,0.0683,0.0155,-0.0513,-0.0529,0,0,0,-0.1442,-0.1249,-0.0395,-0.0246,0,-0.126,-0.0502,-0.0278,0,0,0,0,0,0,0,-0.1116,-0.0432,0.0027,0.0363,0.1255,0.1345,0.1879,0,0,0.1842,0.2061,0.1116,0.0272,0.2018,0.0192,0.197,0,0,0,0,0,0.1415,0.1458,0.1367,0.0982,0.0513,0.0021,0.0198,0.0059,0.0064,0.0053,-0.0796,-0.0838,-0.0561,-0.0342,-0.0123,-0.0614,-0.0534,-0.0432,0.0144,0.0053,-0.0064,0.0096,0.0107,-0.0032,0.0342,-0.0422,-0.0603,0.039,0.118,0.1276,0.1191,0.1212,0.0251,0.0374,0.1692,0.1751,0,0,0,0.1095,0.1324,0.0166,0.0336,0,0,0,0,0.1458,0.1313,0.1095,0.0881,0.0518,0.0737,0.0278,0.016,0.024,-0.0235,-0.039,-0.0219,-0.0085,-0.016,0.0021,-0.0235,-0.071,-0.0037,-0.0021,0.0059,0.0598,0.0561,0.0416,0.0683,-0.0358,-0.0331,0.0726,0.1212,0.0742,0.0849,0.0571,0.0299,0.0747,0.094,0.1559,0.0,0.0,0.1271,0.2312,0.0982,0.039,0.0347,0,0,0,0,0,0,0,0,0,0.1025,0.0443,0.0192,0.0609,0.016,-0.0085,-0.0027,0.0059,0.0011,0.0,-0.0363,-0.1009,-0.0363,-0.0144,0.0251,0.1004,0.0908,0.0908,0,0,0,0,0.0785,0.0384,0.0865,0.0598,-0.016,0,0,0,0,0,0.2563,0.268,0.1292,0.0411,-0.0192,0,0,0,0,0,0,0,0,0,0,0,0,0.0849,0.0315,0.0048,0.0043,0.0101,0.0096,-0.0128,-0.0491,-0.1207,0,0,0,0,0,0,0,0,0,0,0,0,0.1009,0.0651,-0.0416,0,0,0,0,0,0.2339,0.2413,0.1511,0.0432,-0.0294,0,0,0,0,0,0,0,0,0,0,0,0,0,0,0,0,0,0,0,0,0,0,0,0,0,0,0,0,0,0,0,0,0,0,0,0,0,0,0,0,0,0.2194,0.2109,0.1714,0.0651,0.0198,0,0,0,0,0,0,0,0,0,0,0,0,0,0,0,0,0,0,0,0,0,0,0,0,0,0,0,0,0,0,0,0,0,0,0,0,0,0,0,0,0,0.1911,0.1751,0.1532,0.0913,0.0822,0,0,0,0,0,0,0,0,0,0,0,0,0,0,0,0,0,0,0,0,0,0,0,0,0,0,0,0,0,0,0,0,0,0,0,0,0,0,0,0,0,0,0.1831,0.1474,0.103,0.1068,0,0,0,0,0,0,0,0,0,0,0,0,0,0,0,0,0,0,0,0,0,0,0,0,0,0,0,0,0,0,0,0,0,0,0,0,0,0,0,0,0,0,0.2285,0.1703,0.1004,0.0998,0,0,0,0,0,0,0,0,0,0,0,0,0,0,0,0,0,0,0,0,0,0,0,0,0,0,0,0,0,0,0,0,0,0,0,0,0,0,0,0,0,0,0.1927,0.166,0.1009,0.0924,0,0,0,0,0,0,0,0,0,0,0,0,0,0,0,0,0,0,0,0,0,0,0,0,0,0,0,0,0,0,0,0,0,0,0,0,0,0,0,0,0,0,0.1388,0.1516,0.1105,0.0924,0]}]],[[{"header":{"parameterUnit":"kt","parameterCategory":2,"dx":1,"dy":1,"la1":29.46422004699707,"la2":30.564109802246094,"lo1":-89.4342041015625,"lo2":-87.934326171875,"nx":46,"ny":34,"refTime":"2022-10-09T00:00:00:Z","depth":"10","parameterNumber":2,"parameterNumberName":"U-component_of_CURRENTS"},"data":[0.0155,0.0657,0.0902,0.0902,0.0801,0.0721,0.0689,0,0.0043,0.0513,0.1137,0.1078,0.0747,0.0481,0.0096,-0.032,-0.0683,-0.1004,-0.1377,-0.205,-0.3086,-0.418,-0.5334,-0.5745,-0.5061,-0.4239,-0.3556,-0.3091,-0.284,-0.2755,-0.2712,-0.252,-0.2253,-0.1917,-0.1623,-0.158,-0.1709,-0.1826,-0.1725,-0.1393,-0.0961,-0.04,0.0326,0.1095,0.1815,0.2488,0.0448,0.0892,0.094,0.0705,0.0368,0.0037,-0.047,-0.0806,0,0.0443,0.1303,0.0876,0.0149,0.0246,0.0069,-0.0262,-0.0641,-0.1009,-0.1308,-0.1554,-0.1965,-0.2744,-0.3721,-0.4682,-0.5163,-0.4976,-0.4693,-0.4373,-0.3962,-0.3502,-0.2958,-0.2451,-0.221,-0.2274,-0.2408,-0.2493,-0.2413,-0.2098,-0.1719,-0.1393,-0.1068,-0.0641,-0.0096,0.0518,0.1148,0.1751,0.079,0.1057,0.0988,0.0683,0.0363,0.0214,0.0262,0.0609,0.1564,0.1692,0.1137,0,0.0203,0.0395,0.0224,-0.0107,-0.0518,-0.0945,-0.1292,-0.1548,-0.1725,-0.1954,-0.2531,-0.346,-0.4223,-0.4602,-0.4784,-0.4917,-0.48,-0.4223,-0.3396,-0.275,-0.2477,-0.2547,-0.2707,-0.2702,-0.2499,-0.2104,-0.1554,-0.102,-0.0662,-0.0416,-0.0288,-0.0123,0.0139,0.0363,0.102,0.1111,0.0998,0.0694,0.0384,0.0278,0.0331,0.0507,0.0742,0.0731,0.0379,0.1073,0.1634,0.1143,0.063,0.0021,-0.0438,-0.0918,-0.1265,-0.15,-0.1666,-0.1778,-0.1933,-0.244,-0.331,-0.3817,-0.3759,-0.3673,-0.3689,-0.3567,-0.3139,-0.26,-0.2232,-0.2082,-0.1933,-0.1319,-0.0203,0.0448,0.0342,0.0294,0.0384,0.0272,-0.0027,-0.0352,-0.0683,-0.1148,0.1078,0.1111,0.103,0.071,0.0411,0.031,0.0326,0.0368,0.0427,0.0475,0.0523,0.0737,0.1009,0.1356,0.0796,-0.0251,-0.0678,-0.0982,-0.1292,-0.1458,-0.157,-0.1655,-0.1714,-0.1842,-0.2317,-0.3097,-0.3337,-0.2824,-0.2216,-0.1767,-0.1463,-0.1201,-0.0956,-0.0737,-0.0363,-0.0053,0.0048,0.0246,0.0347,0.04,0.047,0.0283,-0.0037,-0.0347,-0.071,-0.1062,0.1004,0.1111,0.1014,0.0678,0.0379,0.0251,0.0224,0.0224,0.0224,0.023,0.023,0.0246,0.0294,0.0326,0,-0.0571,-0.1153,-0.1196,-0.1303,-0.141,-0.1458,-0.15,-0.1527,-0.1559,-0.1703,-0.2136,-0.2605,-0.2552,-0.1986,-0.1207,-0.0481,0.0043,0.0411,0.0747,0.1089,0.1164,0.087,0.032,-0.0182,-0.0272,-0.0085,-0.0133,-0.0443,-0.0635,-0.0678,-0.0774,0.1842,0.1586,0.1062,0.0619,0.0374,0.0155,0.0005,0.0021,0.0043,0.0043,-0.0005,-0.0144,-0.047,-0.1116,-0.1532,0,-0.0699,-0.1367,-0.1265,-0.1308,-0.1308,-0.1303,-0.1303,-0.1297,-0.1308,-0.1426,-0.1789,-0.2002,-0.1639,-0.078,0.0139,0.0785,0.1223,0.1516,0.1634,0.1479,0.1046,0.032,-0.039,-0.0518,-0.0358,-0.0502,-0.0774,-0.087,-0.0849,-0.0817,0,0.0299,0.0651,0.071,0.0822,0.0347,-0.0214,-0.0112,-0.0016,0.0005,-0.0032,-0.0144,-0.0352,-0.0667,-0.1009,-0.1169,0,-0.0721,-0.1249,-0.11,-0.11,-0.1084,-0.1062,-0.1036,-0.0998,-0.0972,-0.1121,-0.1388,-0.1458,-0.1153,-0.0603,0.0005,0.0609,0.1068,0.1265,0.1127,0.055,-0.0304,-0.0737,-0.063,-0.0614,-0.0838,-0.1046,-0.1089,-0.1004,-0.0908,0,-0.0182,0,0.0448,0.0892,0,0.0037,0.0075,0.0096,0.0117,0.0101,0.0053,-0.0048,-0.0358,-0.0657,-0.0785,-0.086,0,-0.0336,-0.0721,-0.0849,-0.0854,-0.0833,-0.0806,-0.0774,-0.0737,-0.079,-0.1095,-0.1548,-0.173,-0.1607,-0.1356,-0.0961,-0.0582,-0.0379,-0.0448,-0.0785,-0.0993,-0.0945,-0.0913,-0.0998,-0.1153,-0.1249,-0.1196,-0.1111,-0.1041,0,0.0806,0.1046,0.1111,0,0.0336,0.0491,0.024,0.0182,0.0214,0.0246,0.0288,0.0448,-0.008,-0.0513,-0.0182,-0.0075,0,-0.055,-0.0876,-0.0678,-0.0641,-0.0625,-0.0619,-0.0619,-0.0635,-0.0705,-0.11,-0.1869,-0.2445,-0.2584,-0.2509,-0.228,-0.2013,-0.1815,-0.1586,-0.134,-0.1233,-0.1249,-0.1233,-0.1255,-0.1356,-0.1313,-0.1159,-0.1009,-0.0849,0,0,0,0,0,-0.0214,-0.023,-0.0016,0.0016,0.0064,0.0133,0.0192,0.0219,0,0.0155,0.039,0.047,0,0,-0.0053,-0.0192,-0.0336,-0.0406,-0.0448,-0.0497,-0.0571,-0.0715,-0.1185,-0.1975,-0.2621,-0.291,-0.2936,-0.2782,-0.2515,-0.2184,-0.1933,-0.1858,-0.1751,-0.1468,-0.1324,-0.1399,-0.1452,-0.1324,-0.1111,-0.0838,-0.0598,0,0,0,0,0,0,0.0096,0.0112,-0.0101,-0.0262,-0.0235,-0.0219,-0.0374,0.0198,0.0822,0.0945,0.1148,0,0,0.0021,-0.0016,-0.016,-0.0246,-0.032,-0.039,-0.0486,-0.0667,-0.1137,-0.1879,-0.2552,-0.2931,-0.3049,-0.3011,-0.2878,-0.2696,-0.244,-0.2045,-0.1623,-0.1426,-0.1436,-0.1474,-0.1377,-0.1185,-0.095,-0.0694,-0.0609,0,0,0,0,0,0,0.0497,0.0753,0.0358,0.0011,-0.023,-0.0267,-0.0198,0.0,0.0187,0.0235,0,0,0,0.0053,0.0069,-0.0059,-0.0149,-0.024,-0.0315,-0.0395,-0.0523,-0.0838,-0.1538,-0.2269,-0.267,-0.284,-0.284,-0.2691,-0.2403,-0.2029,-0.166,-0.1474,-0.1548,-0.1623,-0.1442,-0.1169,-0.0966,-0.0774,-0.0689,-0.0731,0,0,0,0,0,0,0.055,0.0897,0.0726,0.0513,0.008,-0.0171,-0.0272,-0.0326,-0.047,-0.094,-0.0929,-0.0566,0,0.0064,0.0096,-0.0021,-0.0112,-0.0187,-0.0251,-0.0299,-0.0342,-0.0464,-0.0876,-0.1586,-0.2125,-0.228,-0.2237,-0.2098,-0.1922,-0.181,-0.1799,-0.1773,-0.1628,-0.1393,-0.1143,-0.0918,-0.0747,-0.0747,-0.0854,-0.0918,0,0,0,0,0,0,0,-0.0043,0.0053,0.0224,0.0101,-0.0107,-0.0187,-0.024,-0.0283,-0.0294,-0.0182,-0.0075,0,0.0064,0.0096,-0.0021,-0.0101,-0.016,-0.0198,-0.0224,-0.024,-0.0246,-0.0283,-0.0555,-0.118,-0.1692,-0.1837,-0.1826,-0.1757,-0.166,-0.1538,-0.1377,-0.1159,-0.0929,-0.0796,-0.0796,-0.0886,-0.0988,-0.1036,-0.1025,0,0,0,0.0112,0.0224,0,0,0,0.0139,0.0315,0.0198,0.0021,-0.0021,-0.0043,-0.0016,0.0075,0.0219,0.0294,0,0.0064,0.0085,-0.0037,-0.0123,-0.0176,-0.0219,-0.024,-0.0235,-0.023,-0.0251,-0.031,-0.0422,-0.0587,-0.0774,-0.0892,-0.0913,-0.086,-0.079,-0.0726,-0.0715,-0.078,-0.0897,-0.1009,-0.1089,-0.1116,-0.1095,-0.1036,0,0,0.023,0.023,0.0048,0.0166,0.047,0.0929,0.0822,0.0331,0.0128,0.0112,0.0133,0.0149,0.0203,0.0326,0.0529,0.0651,0,0.008,0.0091,-0.0053,-0.0171,-0.0267,-0.0368,-0.0459,-0.0502,-0.0518,-0.055,-0.0593,-0.0614,-0.0609,-0.0598,-0.0598,-0.0603,-0.0625,-0.0673,-0.0758,-0.0876,-0.0993,-0.1089,-0.1153,-0.1175,-0.1159,-0.1111,-0.103,0,0,0.0096,0.0155,0.0352,0.0582,0,0,0.0368,0.0395,0.0027,0.0048,0.0133,0.0192,0.0235,0.0283,0.031,0,0.047,0.0678,0.0246,-0.0048,-0.0246,-0.0438,-0.0667,-0.0881,-0.1046,-0.118,-0.1265,-0.126,-0.1159,-0.102,-0.0892,-0.0801,-0.0769,-0.0796,-0.0844,-0.0902,-0.095,-0.0998,-0.1052,-0.1116,-0.1159,-0.1159,-0.1116,-0.1046,0.0139,0.0272,0.0262,0,0,0,0,0,0.039,0.0507,0.0021,-0.0123,0.0032,0.0128,0.0112,-0.0021,-0.0128,0.0235,0.0598,0.0432,0.0133,-0.0133,-0.0363,-0.0619,-0.0886,-0.1095,-0.1255,-0.1377,-0.1436,-0.1415,-0.1319,-0.1175,-0.1009,-0.0881,-0.0844,-0.0892,-0.0988,-0.11,-0.1196,-0.1228,-0.1212,-0.1185,-0.1153,-0.1127,-0.1095,-0.1036,0.0283,0.0416,0.0635,0.0908,0.095,0,0,0,0.0315,0.0518,0.0107,-0.0192,-0.0107,0.008,0.0139,0.0053,0.0059,0.0203,0.031,0.0219,0.0005,-0.0235,-0.047,-0.0705,-0.094,-0.1153,-0.1345,-0.15,-0.1634,-0.1682,-0.158,-0.142,-0.1255,-0.1153,-0.1201,-0.1404,-0.1698,-0.1981,-0.2098,-0.2034,-0.1826,-0.1564,-0.1287,-0.1121,-0.1073,-0.102,0,0.0059,0.0368,0.078,0.0977,0.1009,0,0,0.0326,0.0657,0.0342,-0.0187,-0.0272,0.0037,0.0171,0.0021,-0.0011,0.0155,0.0272,0.0198,-0.0016,-0.0299,-0.0587,-0.0886,-0.1249,-0.1644,-0.1853,-0.1799,-0.1783,-0.1869,-0.1911,-0.1949,-0.1991,-0.2007,-0.1991,-0.1997,-0.2002,-0.2002,-0.1981,-0.1933,-0.1901,-0.1778,-0.1383,-0.1057,-0.102,-0.0998,0.0384,0.0144,0.0299,0.0683,0.0945,0.0956,0.0828,0.0763,0.0913,0.0897,0.0593,0.0139,0.0021,0.0459,0.0491,-0.0027,-0.0262,-0.0048,0.0192,0.0278,0.0091,-0.0294,-0.0641,-0.0667,-0.0571,-0.0833,-0.0966,-0.0689,-0.0806,-0.0972,-0.1591,-0.1821,-0.165,-0.1548,-0.1602,-0.1634,-0.1452,-0.1105,-0.0699,-0.0133,0.0096,-0.0812,-0.0683,-0.0838,-0.0929,-0.095,0.0374,0.0534,0.0368,0.0657,0.0929,0.0908,0.0763,0.0758,0.0833,0.0822,0.0812,0.0502,0.031,0.0427,0,0,-0.0128,0.0037,0.0566,0.086,0.0534,-0.0011,-0.0091,0.0315,0.0673,0.0662,0.0705,0.0747,0,0,0,-0.0005,-0.0037,-0.0027,-0.0214,-0.0144,0.0689,0.0603,0.0699,0.094,0.1127,0,-0.04,-0.0929,-0.1041,-0.0977,0,0.0529,0.0737,0.0529,0.0737,0.0828,0.0812,0.0806,0.0806,0,0,0,-0.0091,-0.0448,-0.0566,-0.0416,0,0.055,0.0982,0.0865,0,0,0,0,0,0,0,-0.0176,-0.04,-0.04,0.0021,0.0534,0.0678,0.0673,0,0,0.0422,0.0635,0.0657,0.1046,0.1399,0.1447,0.1292,0,0,0,0,0,0.0529,0.0828,0.071,0.094,0.1041,0.0924,0.0678,0.0593,0.0705,0.0763,0.0513,0.0053,-0.0299,-0.0363,0.0464,0.1159,0.1052,0.0854,0.0582,-0.023,-0.0796,-0.0427,-0.0101,0.0166,0.0571,0.0497,0.0075,0.0336,0.0705,0.0694,0.0801,0.0977,0.0956,0.0737,0.063,0.063,0,0,0,0.0582,0.1415,0.1559,0.1388,0,0,0,0,0.04,0.0929,0.1121,0.1201,0.1201,0.1137,0.1004,0.0897,0.0828,0.0598,0.0283,0.0112,0.0048,0.0347,0.0838,0.0977,0.0908,0.0817,0.0133,-0.0448,0.0107,0.0699,0.1004,0.1046,0.071,0.0641,0.086,0.1052,0.1068,0.0998,0.1009,0.0972,0.0838,0.0961,0.1516,0.1858,0.1874,0.1393,0.0934,0.1175,0.1367,0.1324,0,0,0,0,0,0,0,0,0,0.0438,0.1052,0.1303,0.1217,0.0956,0.0785,0.0694,0.0678,0.0796,0.0929,0.094,0.1009,0.1036,0.095,0.102,0.1025,0.1046,0.1143,0,0,0,0,0.0545,0.1143,0.1084,0.0924,0.0892,0,0,0,0,0,0.0256,0.0731,0.1062,0.1196,0.1159,0,0,0,0,0,0,0,0,0,0,0,0,0.0374,0.0881,0.1052,0.1121,0.1217,0.1329,0.1361,0.1159,0.0988,0,0,0,0,0,0,0,0,0,0,0,0,0.0283,0.0566,0.0571,0,0,0,0,0,0.032,0.0758,0.0993,0.1116,0.103,0,0,0,0,0,0,0,0,0,0,0,0,0,0,0,0,0,0,0,0,0,0,0,0,0,0,0,0,0,0,0,0,0,0,0,0,0,0,0,0,0,0.0294,0.0742,0.0993,0.1052,0.0881,0,0,0,0,0,0,0,0,0,0,0,0,0,0,0,0,0,0,0,0,0,0,0,0,0,0,0,0,0,0,0,0,0,0,0,0,0,0,0,0,0,0.0267,0.0715,0.1105,0.1228,0.0876,0,0,0,0,0,0,0,0,0,0,0,0,0,0,0,0,0,0,0,0,0,0,0,0,0,0,0,0,0,0,0,0,0,0,0,0,0,0,0,0,0,0,0.0966,0.1111,0.1175,0.0876,0,0,0,0,0,0,0,0,0,0,0,0,0,0,0,0,0,0,0,0,0,0,0,0,0,0,0,0,0,0,0,0,0,0,0,0,0,0,0,0,0,0,0.0331,0.0812,0.0956,0.078,0,0,0,0,0,0,0,0,0,0,0,0,0,0,0,0,0,0,0,0,0,0,0,0,0,0,0,0,0,0,0,0,0,0,0,0,0,0,0,0,0,0,0.0208,0.0609,0.0881,0.0737,0,0,0,0,0,0,0,0,0,0,0,0,0,0,0,0,0,0,0,0,0,0,0,0,0,0,0,0,0,0,0,0,0,0,0,0,0,0,0,0,0,0,0.0443,0.0876,0.0828,0.0667,0]}],[{"header":{"parameterUnit":"kt","parameterCategory":2,"dx":1,"dy":1,"la1":29.46422004699707,"la2":30.564109802246094,"lo1":-89.4342041015625,"lo2":-87.934326171875,"nx":46,"ny":34,"refTime":"2022-10-09T00:00:00:Z","depth":"10","parameterNumber":3,"parameterNumberName":"V-component_of_CURRENTS"},"data":[-0.0016,-0.0075,-0.0166,-0.0555,-0.1212,-0.1778,-0.2248,0,0.0005,-0.2141,-0.2403,-0.2088,-0.2686,-0.2894,-0.3198,-0.355,-0.3593,-0.3481,-0.3358,-0.3481,-0.3898,-0.4624,-0.4789,-0.3785,-0.2093,-0.0998,-0.0625,-0.0336,-0.0166,-0.0166,0.0166,0.1089,0.2045,0.1943,0.1046,0.0769,0.0689,0.0523,0.0331,0.0219,0.008,0.0064,0.0203,0.0374,0.0539,0.0683,0.0182,0.0144,-0.0107,-0.0737,-0.1484,-0.1799,-0.1773,-0.0448,0,-0.2974,-0.3075,-0.1821,-0.2739,-0.2888,-0.2915,-0.3209,-0.3364,-0.3326,-0.3214,-0.3102,-0.3129,-0.3422,-0.4351,-0.4768,-0.3849,-0.2141,-0.1212,-0.0587,0.0064,0.047,0.1004,0.181,0.2579,0.2621,0.2077,0.15,0.0961,0.0523,0.0198,0.0059,-0.0187,-0.0443,-0.0427,-0.0203,0.0059,0.0267,0.0411,0.0326,-0.0075,-0.0844,-0.1559,-0.1676,-0.1522,-0.1185,-0.0747,-0.2798,-0.3059,0,-0.3001,-0.291,-0.2766,-0.2755,-0.2942,-0.3011,-0.3022,-0.2985,-0.2883,-0.2819,-0.3193,-0.4095,-0.4586,-0.3583,-0.2114,-0.1223,-0.0347,0.0454,0.1191,0.1869,0.2253,0.2093,0.1516,0.0731,0.0128,-0.0128,-0.0224,-0.0358,-0.0598,-0.1046,-0.1239,-0.0881,-0.039,-0.0016,0.0534,0.04,-0.0107,-0.0988,-0.1612,-0.1666,-0.1628,-0.1602,-0.1655,-0.2152,-0.2381,-0.0993,-0.2798,-0.2728,-0.2216,-0.2387,-0.2387,-0.2584,-0.2723,-0.2782,-0.2755,-0.2648,-0.2627,-0.3043,-0.3871,-0.4164,-0.3011,-0.1858,-0.1137,-0.0368,0.0363,0.0945,0.1095,0.0945,0.0502,-0.0128,-0.0518,-0.0432,-0.023,-0.04,-0.0721,-0.1244,-0.1644,-0.1255,-0.0609,-0.0139,0.0625,0.0432,-0.0203,-0.1089,-0.158,-0.1634,-0.1692,-0.1762,-0.1869,-0.205,-0.2184,-0.2162,-0.2541,-0.2792,-0.1789,-0.1773,-0.2018,-0.2125,-0.2424,-0.2557,-0.2579,-0.2531,-0.2435,-0.2435,-0.2851,-0.3567,-0.3406,-0.2184,-0.1426,-0.0689,-0.0027,0.047,0.0625,0.0657,0.0529,0.008,-0.0523,-0.0363,0.0278,0.0096,-0.04,-0.1041,-0.1356,-0.0972,-0.0368,-0.0037,0.0507,0.031,-0.0299,-0.1036,-0.1399,-0.1532,-0.1687,-0.1789,-0.1927,-0.2066,-0.2205,-0.2355,-0.2638,-0.2969,0,-0.142,-0.1757,-0.1917,-0.2152,-0.2376,-0.2419,-0.2381,-0.2296,-0.2178,-0.2178,-0.2605,-0.3235,-0.2643,-0.1714,-0.0812,-0.0032,0.0577,0.086,0.0945,0.0763,0.0053,-0.0908,-0.086,0.0139,0.0192,-0.04,-0.1046,-0.0918,-0.0416,0.0107,0.0358,0.0342,0.0603,-0.0005,-0.0747,-0.0966,-0.1116,-0.1671,-0.181,-0.1949,-0.205,-0.2152,-0.2264,-0.2408,-0.2488,-0.0892,0,-0.1682,-0.1805,-0.2018,-0.2264,-0.2301,-0.2253,-0.2157,-0.2018,-0.1869,-0.1949,-0.2718,-0.3118,-0.2216,-0.1335,-0.0406,0.0272,0.0699,0.079,0.0513,-0.0187,-0.0876,-0.0646,0.0128,0.0096,-0.0625,-0.1036,-0.0539,-0.0048,0.0315,0.0582,0,0.0838,0.0315,-0.0481,-0.0582,-0.0785,-0.1837,-0.1922,-0.1991,-0.2034,-0.2066,-0.2077,-0.204,-0.1895,-0.1639,-0.0673,0,-0.1762,-0.2168,-0.2178,-0.2226,-0.2168,-0.2056,-0.1901,-0.173,-0.1666,-0.221,-0.3294,-0.2605,-0.1794,-0.078,-0.0144,0.0315,0.0491,0.032,-0.0112,-0.0304,0.0091,0.0304,-0.0085,-0.078,-0.0769,-0.0091,0.0187,0.0336,0.047,0,0.0523,0,-0.0785,-0.0502,0,-0.2013,-0.2024,-0.2029,-0.2018,-0.1997,-0.1949,-0.1831,-0.1484,-0.1447,-0.1297,-0.0497,0,-0.1853,-0.2002,-0.2152,-0.2104,-0.1981,-0.1831,-0.1655,-0.1548,-0.1853,-0.3155,-0.2953,-0.2189,-0.1084,-0.0358,0.0117,0.0374,0.0331,0.0224,0.0352,0.047,0.0219,-0.0299,-0.0737,-0.032,0.023,0.032,0.0352,0.0299,0,0.0384,0.0,-0.1143,0,-0.0262,-0.1847,-0.1959,-0.1997,-0.1975,-0.1943,-0.189,-0.1847,-0.1249,-0.1586,-0.1372,-0.1132,0,-0.1393,-0.2066,-0.2114,-0.2056,-0.1922,-0.1762,-0.1575,-0.1442,-0.1602,-0.2766,-0.3022,-0.2371,-0.1303,-0.0529,-0.0091,0.0208,0.031,0.0374,0.0422,0.0331,0.0048,-0.0432,-0.0507,0.0085,0.0326,0.0352,0.0294,0.0171,0,0,0,0,0,-0.0518,-0.1703,-0.1751,-0.1815,-0.189,-0.1895,-0.1863,-0.189,0,-0.181,-0.1559,-0.1111,0,0,-0.2088,-0.2013,-0.197,-0.1831,-0.1666,-0.1463,-0.1287,-0.1356,-0.2232,-0.2766,-0.2328,-0.1516,-0.0796,-0.039,-0.0043,0.016,0.024,0.0235,0.0096,-0.0203,-0.0406,-0.0101,0.0283,0.0283,0.0251,0.0096,0.0123,0,0,0,0,0,0,-0.1201,-0.102,-0.1356,-0.1698,-0.1826,-0.1789,-0.1676,-0.0678,-0.1746,-0.1794,-0.0956,0,0,-0.1874,-0.1842,-0.1858,-0.1709,-0.1548,-0.1329,-0.1095,-0.1057,-0.1575,-0.2232,-0.213,-0.165,-0.102,-0.0566,-0.0235,-0.0021,0.0037,-0.0032,-0.0224,-0.0342,-0.008,0.0262,0.0299,0.0182,0.0027,-0.0027,0.0128,0,0,0,0,0,0,0.0005,-0.0048,-0.0982,-0.1228,-0.1692,-0.1767,-0.1559,-0.1452,-0.166,-0.1933,0,0,0,-0.1767,-0.1735,-0.1762,-0.1586,-0.142,-0.1212,-0.094,-0.0774,-0.094,-0.1495,-0.1719,-0.1532,-0.1062,-0.0646,-0.0384,-0.023,-0.0208,-0.0267,-0.0262,-0.0064,0.0246,0.0336,0.0198,0.0,-0.0133,0.0005,0.0182,0,0,0,0,0,0,0.0683,0.0481,-0.1287,-0.1004,-0.1591,-0.1778,-0.1559,-0.1479,-0.149,-0.1511,-0.0336,-0.0272,0,-0.1709,-0.1682,-0.1687,-0.1479,-0.1308,-0.1121,-0.0854,-0.0625,-0.0545,-0.0747,-0.11,-0.1153,-0.0854,-0.0598,-0.0416,-0.0288,-0.0219,-0.0149,0.0005,0.0171,0.023,0.0149,-0.0011,-0.0112,-0.0048,0.0112,0.0246,0,0,0,0,0,0,0,0.0646,-0.1831,-0.1367,-0.166,-0.1666,-0.1458,-0.1356,-0.1233,-0.1078,-0.0753,-0.063,0,-0.1676,-0.1644,-0.1618,-0.1393,-0.1233,-0.1062,-0.0828,-0.0587,-0.0427,-0.0363,-0.0486,-0.0566,-0.0459,-0.039,-0.0288,-0.0187,-0.0112,-0.0043,0.0037,0.0075,0.008,0.0021,-0.0053,-0.0016,0.0101,0.0198,0.0262,0,0,0,0.0203,0.0064,0,0,0,-0.1602,-0.149,-0.1591,-0.1479,-0.1329,-0.1255,-0.1153,-0.1046,-0.0865,-0.0603,0,-0.1655,-0.1612,-0.1532,-0.1324,-0.118,-0.1036,-0.0828,-0.0609,-0.0443,-0.031,-0.0166,-0.0123,-0.0139,-0.0171,-0.016,-0.0139,-0.0123,-0.0085,-0.0027,0.0032,0.0091,0.0112,0.0107,0.0123,0.0182,0.0219,0.0246,0,0,0.0363,0.0491,0.04,0.0427,0.0,0.0,-0.0214,-0.0956,-0.1335,-0.1313,-0.1201,-0.1153,-0.1127,-0.1095,-0.0988,-0.0486,0,-0.165,-0.158,-0.142,-0.1249,-0.1121,-0.0977,-0.0817,-0.0646,-0.047,-0.0283,-0.0107,-0.0037,-0.0027,-0.0075,-0.0107,-0.0128,-0.0112,-0.0048,0.0059,0.0166,0.0235,0.0251,0.0219,0.0203,0.0219,0.0214,0.0214,0,0,0.0908,0.0582,0.0673,0.086,0,0,0.0828,-0.0139,-0.1116,-0.1265,-0.1111,-0.1062,-0.1084,-0.1105,-0.0966,0,-0.0395,-0.1388,-0.1388,-0.1255,-0.1127,-0.0977,-0.0817,-0.0705,-0.0598,-0.0432,-0.0256,-0.0139,-0.0107,-0.0107,-0.0144,-0.0149,-0.0128,-0.0075,0.0027,0.016,0.0278,0.0347,0.0358,0.0315,0.0272,0.0246,0.0208,0.0187,0.0374,0.0214,0.0982,0,0,0,0,0,0.094,0.0507,-0.095,-0.1271,-0.1084,-0.0982,-0.094,-0.095,-0.0812,-0.0352,-0.0769,-0.1014,-0.1084,-0.1046,-0.0945,-0.0742,-0.0582,-0.0545,-0.0481,-0.0336,-0.024,-0.0214,-0.0256,-0.0283,-0.0304,-0.0256,-0.0128,-0.0011,0.0117,0.0272,0.0368,0.0406,0.0411,0.0374,0.0304,0.0267,0.0198,0.016,0.0753,0.0582,0.0699,0.0166,0.0278,0,0,0,0.0908,0.0726,-0.063,-0.1121,-0.1143,-0.0961,-0.0726,-0.0737,-0.0812,-0.0801,-0.0758,-0.0833,-0.0844,-0.0838,-0.0742,-0.0507,-0.0374,-0.04,-0.0352,-0.0256,-0.0219,-0.0336,-0.0427,-0.0486,-0.0507,-0.0347,-0.0048,0.0171,0.0326,0.047,0.0475,0.0384,0.0304,0.0267,0.016,0.0267,0.0171,0.0123,0,0.0977,0.0614,0.032,0.0416,0.0214,0,0,0.0657,0.0614,0.0112,-0.0881,-0.1239,-0.0998,-0.047,-0.0566,-0.0924,-0.102,-0.0822,-0.0705,-0.0625,-0.0614,-0.0534,-0.0251,-0.0043,-0.0096,-0.0208,-0.0256,-0.0101,-0.024,-0.0262,-0.0582,-0.055,-0.0251,0.0182,0.047,0.0667,0.0881,0.0817,0.0651,0.0384,0.0342,-0.0187,0.0283,0.0144,0.0107,0.0406,0.1105,0.0763,0.0416,0.0395,0.0464,0.0187,0.0144,0.0358,0.0475,0.0459,-0.0523,-0.1244,-0.0646,-0.0315,-0.0464,-0.0988,-0.118,-0.087,-0.0635,-0.0315,-0.0304,-0.0198,0.024,0.0646,0.0523,0.0315,-0.0144,0.0037,0.0037,0.0059,-0.063,0.0149,0.0502,0.0828,0.1062,0.0876,0.1458,0.1506,0.1527,0.1281,0.0758,-0.0032,0.0769,0.0166,0.0155,0.0806,0.1095,0.1014,0.0731,0.055,0.0491,0.0422,0.0347,0.0176,0.0422,0.0326,-0.0256,-0.1265,-0.0577,0,0,-0.0982,-0.0945,-0.0235,-0.0336,-0.0107,-0.0112,0.0096,0.0689,0.0998,0.0774,0.0699,-0.0507,0,0,0,0.0288,0.0956,0.1228,0.126,0.15,0.0998,0.1068,0.0796,0.0838,0.1356,0,0.0924,0.1089,0.0198,0.0203,0,0.1207,0.1255,0.1116,0.086,0.0641,0.0427,0.0166,0.0144,0,0,0,-0.1057,-0.095,-0.0358,-0.0224,0,-0.0358,0.0155,0.0155,0,0,0,0,0,0,0,-0.0705,-0.0304,0.0053,0.0432,0.0977,0.0993,0.1388,0,0,0.1345,0.1292,0.0678,0.0657,0.1297,0.0539,0.1805,0,0,0,0,0,0.1313,0.1297,0.1116,0.087,0.0609,0.0288,0.0342,0.0075,0.0149,0.0171,-0.0534,-0.078,-0.0507,-0.0278,0.0166,-0.0021,-0.0144,0.0037,0.0005,0.0123,-0.0043,0.0299,0.0182,-0.0005,0.0331,-0.0363,-0.0352,0.0336,0.078,0.0747,0.0699,0.094,0.0235,0.0326,0.1228,0.1345,0,0,0,0.1271,0.142,0.0304,0.032,0,0,0,0,0.1297,0.1095,0.0924,0.0833,0.0651,0.0747,0.0299,0.0272,0.0363,-0.0117,-0.0358,-0.0182,-0.0027,0.0358,0.0128,-0.0053,-0.0101,-0.0101,0.0075,0.0101,0.0758,0.0566,0.0347,0.0667,-0.032,-0.0101,0.0566,0.0699,0.0518,0.0614,0.0502,0.032,0.0651,0.0865,0.1372,0.0,0.0,0.0849,0.1436,0.1078,0.0763,0.0715,0,0,0,0,0,0,0,0,0,0.0972,0.0448,0.0235,0.0614,0.0182,-0.0053,0.0,0.008,0.0262,0.0085,-0.0171,-0.0481,-0.0208,-0.0107,0.0288,0.0918,0.0769,0.071,0,0,0,0,0.071,0.0384,0.071,0.0555,-0.0091,0,0,0,0,0,0.1644,0.1399,0.1062,0.0886,0.078,0,0,0,0,0,0,0,0,0,0,0,0,0.0833,0.0326,0.0069,0.0064,0.0117,0.0139,-0.0069,-0.0406,-0.1025,0,0,0,0,0,0,0,0,0,0,0,0,0.0801,0.0619,-0.0358,0,0,0,0,0,0.1596,0.1372,0.0961,0.0833,0.0763,0,0,0,0,0,0,0,0,0,0,0,0,0,0,0,0,0,0,0,0,0,0,0,0,0,0,0,0,0,0,0,0,0,0,0,0,0,0,0,0,0,0.1559,0.1345,0.0956,0.0763,0.0747,0,0,0,0,0,0,0,0,0,0,0,0,0,0,0,0,0,0,0,0,0,0,0,0,0,0,0,0,0,0,0,0,0,0,0,0,0,0,0,0,0,0.1345,0.1276,0.1041,0.0763,0.079,0,0,0,0,0,0,0,0,0,0,0,0,0,0,0,0,0,0,0,0,0,0,0,0,0,0,0,0,0,0,0,0,0,0,0,0,0,0,0,0,0,0,0.142,0.118,0.0854,0.0849,0,0,0,0,0,0,0,0,0,0,0,0,0,0,0,0,0,0,0,0,0,0,0,0,0,0,0,0,0,0,0,0,0,0,0,0,0,0,0,0,0,0,0.1554,0.1239,0.0876,0.0828,0,0,0,0,0,0,0,0,0,0,0,0,0,0,0,0,0,0,0,0,0,0,0,0,0,0,0,0,0,0,0,0,0,0,0,0,0,0,0,0,0,0,0.1233,0.1105,0.0897,0.079,0,0,0,0,0,0,0,0,0,0,0,0,0,0,0,0,0,0,0,0,0,0,0,0,0,0,0,0,0,0,0,0,0,0,0,0,0,0,0,0,0,0,0.0977,0.1078,0.0966,0.0801,0]}]],[[{"header":{"parameterUnit":"kt","parameterCategory":2,"dx":1,"dy":1,"la1":29.46422004699707,"la2":30.564109802246094,"lo1":-89.4342041015625,"lo2":-87.934326171875,"nx":46,"ny":34,"refTime":"2022-10-09T00:00:00:Z","depth":"12","parameterNumber":2,"parameterNumberName":"U-component_of_CURRENTS"},"data":[0,0,0,0,0,0,0,0,0,0,0,0,0,0,0,-0.0272,-0.0614,-0.0934,-0.1308,-0.1927,-0.2899,-0.3972,-0.5206,-0.5681,-0.5019,-0.4191,-0.3502,-0.3011,-0.2696,-0.2573,-0.26,-0.2467,-0.22,-0.1837,-0.1516,-0.149,-0.165,-0.1783,-0.1682,-0.1356,-0.0924,-0.0363,0.0363,0.1132,0.1853,0.252,0,0,0,0,0,0,0,0,0,0,0,0,0,0,0,0,-0.0523,-0.0886,-0.1212,-0.1484,-0.1895,-0.2632,-0.3545,-0.4522,-0.5056,-0.4891,-0.4597,-0.425,-0.3796,-0.3342,-0.2872,-0.2413,-0.2168,-0.221,-0.2333,-0.2424,-0.2349,-0.2045,-0.1676,-0.1361,-0.1036,-0.0603,-0.0059,0.0555,0.1185,0.1789,0,0,0,0,0,0,0,0,0,0,0,0,0,0,0,0,-0.0454,-0.078,-0.1137,-0.1431,-0.1634,-0.1874,-0.2413,-0.3289,-0.4042,-0.4442,-0.4624,-0.4778,-0.4688,-0.4143,-0.3348,-0.2707,-0.2424,-0.2483,-0.2638,-0.2616,-0.2355,-0.1933,-0.1452,-0.0977,-0.0635,-0.039,-0.0256,-0.0091,0.0166,0.039,0,0,0,0,0,0,0,0,0,0,0,0,0,0,0,0,0,-0.0817,-0.1068,-0.134,-0.1543,-0.1682,-0.1847,-0.2322,-0.3145,-0.3631,-0.3572,-0.3545,-0.3609,-0.3502,-0.3086,-0.2547,-0.2168,-0.2007,-0.1858,-0.1207,-0.0011,0.078,0.0646,0.0416,0.0422,0.0299,0.0005,-0.032,-0.0657,-0.1121,0,0,0,0,0,0,0,0,0,0,0,0,0,0,0,0,0,0,-0.1132,-0.126,-0.1431,-0.1543,-0.1623,-0.1778,-0.2248,-0.3001,-0.3241,-0.2744,-0.2146,-0.1692,-0.1404,-0.1148,-0.0897,-0.0683,-0.032,-0.0011,0.0107,0.0379,0.0523,0.0502,0.0513,0.032,0.0005,-0.0315,-0.0678,-0.102,0,0,0,0,0,0,0,0,0,0,0,0,0,0,0,0,0,0,0,-0.1201,-0.1303,-0.1388,-0.1436,-0.149,-0.1655,-0.2098,-0.2568,-0.2509,-0.1943,-0.1159,-0.0432,0.0085,0.0448,0.078,0.1121,0.1191,0.0892,0.0347,-0.0144,-0.0219,-0.0037,-0.0096,-0.0411,-0.0603,-0.0646,-0.0731,0,0,0,0,0,0,0,0,0,0,0,0,0,0,0,0,0,0,0,-0.1143,-0.1143,-0.1201,-0.1223,-0.1233,-0.126,-0.1383,-0.1741,-0.1922,-0.1554,-0.071,0.0192,0.0828,0.1255,0.1548,0.1666,0.1511,0.1078,0.0352,-0.0342,-0.047,-0.0315,-0.0464,-0.0742,-0.0838,-0.0817,-0.078,0,0,0,0,0,0,0,0,0,0,0,0,0,0,0,0,0,0,0,0,-0.094,-0.0988,-0.0993,-0.0982,-0.095,-0.094,-0.1084,-0.134,-0.1393,-0.1084,-0.0529,0.008,0.0667,0.1116,0.1303,0.1164,0.0593,-0.0262,-0.0694,-0.0593,-0.0577,-0.0801,-0.1014,-0.1057,-0.0972,-0.087,0,0,0,0,0,0,0,0,0,0,0,0,0,0,0,0,0,0,0,0,-0.0721,-0.0758,-0.0769,-0.0758,-0.0731,-0.0705,-0.0758,-0.1057,-0.15,-0.166,-0.1522,-0.126,-0.0876,-0.0507,-0.032,-0.0406,-0.0747,-0.0956,-0.0902,-0.087,-0.0956,-0.1111,-0.1212,-0.1159,-0.1073,-0.1009,0,0,0,0,0,0,0,0,0,0,0,0,0,0,0,0,0,0,0,0,-0.0593,-0.0545,-0.0571,-0.0577,-0.0582,-0.0603,-0.0683,-0.1068,-0.1821,-0.2376,-0.2504,-0.2424,-0.2205,-0.1949,-0.1762,-0.1538,-0.1297,-0.1196,-0.1201,-0.1185,-0.1207,-0.1319,-0.1276,-0.1121,-0.0977,-0.0817,0,0,0,0,0,0,0,0,0,0,0,0,0,0,0,0,0,0,0,0,0,-0.0262,-0.0358,-0.0411,-0.0459,-0.0539,-0.0689,-0.1159,-0.1938,-0.2573,-0.2856,-0.2883,-0.2728,-0.2461,-0.2136,-0.189,-0.1815,-0.1703,-0.1415,-0.1265,-0.1351,-0.1415,-0.1287,-0.1078,-0.0806,-0.0571,0,0,0,0,0,0,0,0,0,0,0,0,0,0,0,0,0,0,0,0,0,-0.0096,-0.0203,-0.0283,-0.0358,-0.0459,-0.0646,-0.1105,-0.1842,-0.2515,-0.2888,-0.3006,-0.2969,-0.284,-0.2659,-0.2392,-0.1991,-0.1559,-0.1372,-0.1393,-0.1436,-0.1345,-0.1153,-0.0918,-0.0667,-0.0582,0,0,0,0,0,0,0,0,0,0,0,0,0,0,0,0,0,0,0,0,0,0.0,-0.0112,-0.0208,-0.0288,-0.0363,-0.0502,-0.0812,-0.15,-0.2226,-0.2632,-0.2803,-0.2798,-0.2643,-0.2355,-0.1975,-0.1607,-0.1426,-0.1511,-0.1591,-0.141,-0.1137,-0.0934,-0.0742,-0.0662,-0.0705,0,0,0,0,0,0,0,0,0,0,0,0,0,0,0,0,0,0,0,0,0,0.0027,-0.0075,-0.016,-0.0224,-0.0272,-0.0315,-0.0443,-0.0854,-0.1554,-0.2088,-0.2242,-0.2205,-0.2066,-0.189,-0.1778,-0.1767,-0.1735,-0.1596,-0.1361,-0.1116,-0.0886,-0.0715,-0.0715,-0.0822,-0.0886,0,0,0,0,0,0,0,0,0,0,0,0,0,0,0,0,0,0,0,0,0,0.0021,-0.0075,-0.0133,-0.0176,-0.0203,-0.0214,-0.0224,-0.0262,-0.0534,-0.1148,-0.166,-0.181,-0.1794,-0.1725,-0.1628,-0.1506,-0.1345,-0.1127,-0.0897,-0.0763,-0.0763,-0.0854,-0.095,-0.1004,-0.0993,0,0,0,0,0,0,0,0,0,0,0,0,0,0,0,0,0,0,0,0,0,0.0,-0.0096,-0.0155,-0.0192,-0.0214,-0.0214,-0.0203,-0.0224,-0.0288,-0.0395,-0.0566,-0.0747,-0.0865,-0.0886,-0.0833,-0.0758,-0.0699,-0.0689,-0.0753,-0.086,-0.0972,-0.1057,-0.1084,-0.1057,-0.0998,0,0,0,0,0,0,0,0,0,0,0,0,0,0,0,0,0,0,0,0,0.0112,-0.0021,-0.0144,-0.0246,-0.0347,-0.0432,-0.0481,-0.0497,-0.0529,-0.0571,-0.0587,-0.0582,-0.0577,-0.0571,-0.0577,-0.0598,-0.0646,-0.0726,-0.0838,-0.0956,-0.1052,-0.1111,-0.1137,-0.1121,-0.1073,-0.0998,0,0,0,0,0,0,0,0,0,0,0,0,0,0,0,0,0,0,0,0,0.0267,-0.0016,-0.0219,-0.0411,-0.0641,-0.0854,-0.102,-0.1148,-0.1233,-0.1228,-0.1132,-0.0993,-0.0865,-0.0774,-0.0742,-0.0763,-0.0812,-0.0865,-0.0913,-0.0956,-0.1014,-0.1073,-0.1116,-0.1116,-0.1078,-0.1009,0,0,0,0,0,0,0,0,0,0,0,0,0,0,0,0,0,0,0,0,0.0166,-0.0096,-0.0331,-0.0587,-0.0854,-0.1057,-0.1212,-0.1329,-0.1388,-0.1372,-0.1281,-0.1143,-0.0982,-0.0854,-0.0812,-0.0854,-0.095,-0.1062,-0.1153,-0.118,-0.1164,-0.1137,-0.1111,-0.1084,-0.1052,-0.0993,0,0,0,0,0,0,0,0,0,0,0,0,0,0,0,0,0,0,0,0.024,0.0043,-0.0198,-0.0432,-0.0662,-0.0897,-0.1111,-0.1292,-0.1426,-0.1543,-0.1591,-0.1522,-0.1383,-0.1223,-0.1116,-0.1159,-0.1335,-0.157,-0.1746,-0.1794,-0.1778,-0.1692,-0.15,-0.1249,-0.1084,-0.103,-0.0977,0,0,0,0,0,0,0,0,0,0,0,0,0,0,0,0,0,0,0,0.0214,0.0021,-0.0256,-0.0539,-0.0817,-0.1137,-0.1447,-0.1532,-0.1447,-0.141,-0.1522,-0.1692,-0.1799,-0.181,-0.1735,-0.1644,-0.158,-0.1474,-0.1367,-0.1308,-0.1281,-0.1276,-0.1367,-0.1164,-0.0961,-0.0966,-0.0945,0,0,0,0,0,0,0,0,0,0,0,0,0,0,0,0,0,0,0,0,0.0112,-0.0235,-0.0448,-0.031,-0.016,-0.0176,-0.0315,0,-0.0384,-0.0507,-0.1057,-0.1442,-0.118,-0.0651,-0.0753,-0.0945,-0.063,0.0027,0.0598,0.0641,0,-0.0336,0,-0.0763,-0.086,-0.0892,0,0,0,0,0,0,0,0,0,0,0,0,0,0,0,0,0,0,0,0,0,0.0016,0.0043,0.0502,0.0731,0,0,0,0,0,0,0,0,0,0.0288,0.0699,0,0,0,0,0,0,0,0,0,0,0,0,0,0,0,0,0,0,0,0,0,0,0,0,0,0,0,0,0,0,0,0,0,0,0,0,0,0,0,0,0,0,0,0,0,0,0,0,0,0,0,0,0,0,0,0,0,0,0,0,0,0,0,0,0,0,0,0,0,0,0,0,0,0,0,0,0,0,0,0,0,0,0,0,0,0,0,0,0,0,0,0,0,0,0,0,0,0,0,0,0,0,0,0,0,0,0,0,0,0,0,0,0,0,0,0,0,0,0,0,0,0,0,0,0,0,0,0,0,0,0,0,0,0,0,0,0,0,0,0,0,0,0,0,0,0,0,0,0,0,0,0,0,0,0,0,0,0,0,0,0,0,0,0,0,0,0,0,0,0,0,0,0,0,0,0,0,0,0,0,0,0,0,0,0,0,0,0,0,0,0,0,0,0,0,0,0,0,0,0,0,0,0,0,0,0,0,0,0,0,0,0,0,0,0,0,0,0,0,0,0,0,0,0,0,0,0,0,0,0,0,0,0,0,0,0,0,0,0,0,0,0,0,0,0,0,0,0,0,0,0,0,0,0,0,0,0,0,0,0,0,0,0,0,0,0,0,0,0,0,0,0,0,0,0,0,0,0,0,0,0,0,0,0,0,0,0,0,0,0,0,0,0,0,0,0,0,0,0,0,0,0,0,0,0,0,0,0,0,0,0,0,0,0,0,0,0,0,0,0,0,0,0,0,0,0,0,0,0,0,0,0,0,0,0,0,0,0,0,0,0,0,0,0,0,0,0,0,0,0,0,0,0,0,0,0,0,0,0,0,0,0,0,0,0,0,0,0,0,0,0,0,0,0,0,0,0,0,0,0,0,0,0,0,0,0,0,0,0,0,0,0,0,0,0,0,0,0,0,0,0,0,0,0,0,0,0,0,0,0,0,0,0,0,0,0,0,0,0,0,0,0,0,0,0,0,0,0,0,0,0,0,0,0,0,0,0,0,0,0,0,0,0,0,0,0,0,0,0,0,0,0,0,0,0,0,0,0,0,0,0,0,0,0,0,0,0,0,0,0,0,0,0,0,0,0,0,0,0,0,0,0,0,0,0,0,0,0,0,0,0,0,0,0,0,0,0,0,0,0,0,0,0,0,0,0,0,0,0,0,0,0,0,0,0,0]}],[{"header":{"parameterUnit":"kt","parameterCategory":2,"dx":1,"dy":1,"la1":29.46422004699707,"la2":30.564109802246094,"lo1":-89.4342041015625,"lo2":-87.934326171875,"nx":46,"ny":34,"refTime":"2022-10-09T00:00:00:Z","depth":"12","parameterNumber":3,"parameterNumberName":"V-component_of_CURRENTS"},"data":[0,0,0,0,0,0,0,0,0,0,0,0,0,0,0,-0.3006,-0.33,-0.3289,-0.323,-0.3305,-0.3679,-0.4421,-0.4666,-0.3732,-0.2045,-0.0961,-0.0571,-0.0278,-0.0048,-0.0005,0.0326,0.1148,0.2082,0.1997,0.1111,0.0828,0.0737,0.0571,0.0379,0.0267,0.0133,0.0117,0.0256,0.0438,0.0603,0.0737,0,0,0,0,0,0,0,0,0,0,0,0,0,0,0,0,-0.2856,-0.3006,-0.3027,-0.2958,-0.3027,-0.3273,-0.4143,-0.4634,-0.3775,-0.2088,-0.1153,-0.0523,0.016,0.0603,0.1121,0.1853,0.2616,0.2664,0.2125,0.1554,0.1014,0.0577,0.0251,0.0091,-0.0149,-0.0406,-0.039,-0.016,0.0096,0.0304,0,0,0,0,0,0,0,0,0,0,0,0,0,0,0,0,-0.2664,-0.2573,-0.2707,-0.2798,-0.2755,-0.2712,-0.3049,-0.3887,-0.4426,-0.347,-0.2013,-0.1127,-0.0272,0.0529,0.1265,0.1906,0.229,0.2141,0.1564,0.0806,0.0246,0.0016,-0.0112,-0.0315,-0.0566,-0.1009,-0.1201,-0.0844,-0.0358,0.0011,0,0,0,0,0,0,0,0,0,0,0,0,0,0,0,0,0,-0.2333,-0.2333,-0.252,-0.2584,-0.2531,-0.252,-0.2904,-0.3689,-0.3988,-0.284,-0.1735,-0.1062,-0.031,0.0422,0.0982,0.1143,0.0993,0.0561,-0.0037,-0.0384,-0.0251,-0.008,-0.0331,-0.0683,-0.1212,-0.1607,-0.1217,-0.0577,-0.0107,0,0,0,0,0,0,0,0,0,0,0,0,0,0,0,0,0,0,-0.2136,-0.2232,-0.2376,-0.2381,-0.2333,-0.2349,-0.2771,-0.3449,-0.3284,-0.2093,-0.1351,-0.0635,0.0021,0.0507,0.0667,0.0699,0.0577,0.0128,-0.0481,-0.0283,0.0358,0.0171,-0.0368,-0.1004,-0.1313,-0.0934,-0.0336,0.0005,0,0,0,0,0,0,0,0,0,0,0,0,0,0,0,0,0,0,0,-0.2045,-0.2178,-0.2226,-0.2184,-0.2104,-0.212,-0.2552,-0.3171,-0.2573,-0.1634,-0.0747,0.0027,0.0614,0.0892,0.0982,0.0801,0.0091,-0.0876,-0.0833,0.0166,0.0246,-0.0363,-0.1009,-0.0881,-0.0379,0.0144,0.0395,0,0,0,0,0,0,0,0,0,0,0,0,0,0,0,0,0,0,0,-0.1991,-0.2034,-0.2104,-0.205,-0.1938,-0.1815,-0.1901,-0.2675,-0.3054,-0.2141,-0.126,-0.0331,0.0331,0.0742,0.0833,0.055,-0.0149,-0.0838,-0.0614,0.016,0.0139,-0.0587,-0.0998,-0.0497,-0.0016,0.0352,0.0619,0,0,0,0,0,0,0,0,0,0,0,0,0,0,0,0,0,0,0,0,-0.1933,-0.2013,-0.1954,-0.1831,-0.1676,-0.1623,-0.2173,-0.3241,-0.2552,-0.1735,-0.0705,-0.0069,0.0374,0.0545,0.0363,-0.0069,-0.0262,0.0123,0.0342,-0.0043,-0.0742,-0.0731,-0.0053,0.0224,0.0374,0.0502,0,0,0,0,0,0,0,0,0,0,0,0,0,0,0,0,0,0,0,0,-0.1885,-0.1927,-0.1885,-0.1762,-0.1602,-0.1506,-0.1815,-0.3113,-0.291,-0.2141,-0.1025,-0.0288,0.0187,0.0432,0.0379,0.0262,0.039,0.0502,0.0262,-0.0256,-0.0694,-0.0283,0.0267,0.0358,0.039,0.0331,0,0,0,0,0,0,0,0,0,0,0,0,0,0,0,0,0,0,0,0,-0.1911,-0.1853,-0.1821,-0.1692,-0.1522,-0.1404,-0.1564,-0.2734,-0.2974,-0.2317,-0.1255,-0.047,-0.0032,0.0262,0.0358,0.0416,0.0459,0.0374,0.0091,-0.039,-0.0459,0.0123,0.0363,0.039,0.0331,0.0208,0,0,0,0,0,0,0,0,0,0,0,0,0,0,0,0,0,0,0,0,0,-0.1762,-0.1735,-0.1607,-0.1415,-0.1249,-0.1324,-0.22,-0.2723,-0.228,-0.1474,-0.0753,-0.0331,0.0005,0.0208,0.0283,0.0278,0.0144,-0.0155,-0.0363,-0.0059,0.032,0.032,0.0288,0.0128,0.0155,0,0,0,0,0,0,0,0,0,0,0,0,0,0,0,0,0,0,0,0,0,-0.1655,-0.1628,-0.1495,-0.1287,-0.1062,-0.1025,-0.1538,-0.2189,-0.2082,-0.1602,-0.0977,-0.0518,-0.0187,0.0027,0.008,0.0021,-0.0176,-0.0294,-0.0037,0.0299,0.0331,0.0214,0.0059,0.0,0.016,0,0,0,0,0,0,0,0,0,0,0,0,0,0,0,0,0,0,0,0,0,-0.1575,-0.1511,-0.1372,-0.1169,-0.0908,-0.0747,-0.0908,-0.1452,-0.1671,-0.1479,-0.1014,-0.0598,-0.0336,-0.0187,-0.0166,-0.0224,-0.0219,-0.0027,0.0278,0.0368,0.023,0.0032,-0.0096,0.0037,0.0214,0,0,0,0,0,0,0,0,0,0,0,0,0,0,0,0,0,0,0,0,0,-0.1522,-0.141,-0.126,-0.1078,-0.0822,-0.0593,-0.0518,-0.0721,-0.1062,-0.1105,-0.0812,-0.055,-0.0374,-0.0251,-0.0182,-0.0112,0.0037,0.0208,0.0262,0.0182,0.0021,-0.008,-0.0016,0.0144,0.0278,0,0,0,0,0,0,0,0,0,0,0,0,0,0,0,0,0,0,0,0,0,-0.1474,-0.1335,-0.1185,-0.1025,-0.0796,-0.0561,-0.04,-0.0336,-0.0459,-0.0529,-0.0422,-0.0352,-0.0256,-0.0149,-0.008,-0.0005,0.0075,0.0107,0.0112,0.0053,-0.0021,0.0016,0.0139,0.0235,0.0299,0,0,0,0,0,0,0,0,0,0,0,0,0,0,0,0,0,0,0,0,0,-0.1426,-0.1271,-0.1137,-0.0998,-0.0796,-0.0582,-0.0416,-0.0283,-0.0139,-0.0096,-0.0107,-0.0144,-0.0128,-0.0107,-0.0091,-0.0053,0.0005,0.0064,0.0128,0.0149,0.0144,0.016,0.0219,0.0256,0.0278,0,0,0,0,0,0,0,0,0,0,0,0,0,0,0,0,0,0,0,0,-0.1468,-0.1335,-0.1196,-0.1073,-0.094,-0.078,-0.0609,-0.0438,-0.0251,-0.0075,-0.0005,0.0,-0.0043,-0.0075,-0.0096,-0.008,-0.0016,0.0091,0.0198,0.0272,0.0288,0.0262,0.0246,0.0256,0.0256,0.0251,0,0,0,0,0,0,0,0,0,0,0,0,0,0,0,0,0,0,0,0,-0.1249,-0.118,-0.1073,-0.0929,-0.0774,-0.0657,-0.055,-0.0384,-0.0203,-0.0091,-0.0064,-0.0069,-0.0107,-0.0117,-0.0091,-0.0043,0.0064,0.0198,0.0315,0.039,0.04,0.0358,0.031,0.0288,0.0251,0.023,0,0,0,0,0,0,0,0,0,0,0,0,0,0,0,0,0,0,0,0,-0.0977,-0.0982,-0.0892,-0.0689,-0.0529,-0.0491,-0.0422,-0.0278,-0.0171,-0.0149,-0.0198,-0.023,-0.0256,-0.0214,-0.0091,0.0032,0.0166,0.0326,0.0422,0.0464,0.0459,0.0416,0.0342,0.031,0.024,0.0203,0,0,0,0,0,0,0,0,0,0,0,0,0,0,0,0,0,0,0,-0.0769,-0.0758,-0.078,-0.0683,-0.0448,-0.0304,-0.0326,-0.0278,-0.0171,-0.0112,-0.0219,-0.0315,-0.0416,-0.0454,-0.0283,0.0016,0.024,0.0432,0.063,0.0657,0.0577,0.0422,0.0326,0.0219,0.0315,0.0208,0.016,0,0,0,0,0,0,0,0,0,0,0,0,0,0,0,0,0,0,0,-0.0651,-0.055,-0.055,-0.0459,-0.016,0.0069,0.0064,0.0,-0.0048,0.0128,0.0075,-0.0037,-0.0454,-0.0384,-0.0027,0.0379,0.0662,0.0897,0.1175,0.1212,0.1052,0.0742,0.0539,0.0027,0.0368,0.0187,0.0155,0,0,0,0,0,0,0,0,0,0,0,0,0,0,0,0,0,0,0,0,-0.0272,-0.0246,-0.0048,0.0422,0.0673,0.0694,0.0619,0,0.0347,0.0368,0.0374,-0.04,0.0358,0.0828,0.1041,0.1335,0.1383,0.1634,0.1073,0.1014,0,0.0918,0,0.0763,0.0198,0.0198,0,0,0,0,0,0,0,0,0,0,0,0,0,0,0,0,0,0,0,0,0,-0.008,0.0198,0.0758,0.0908,0,0,0,0,0,0,0,0,0,0.0897,0.0747,0,0,0,0,0,0,0,0,0,0,0,0,0,0,0,0,0,0,0,0,0,0,0,0,0,0,0,0,0,0,0,0,0,0,0,0,0,0,0,0,0,0,0,0,0,0,0,0,0,0,0,0,0,0,0,0,0,0,0,0,0,0,0,0,0,0,0,0,0,0,0,0,0,0,0,0,0,0,0,0,0,0,0,0,0,0,0,0,0,0,0,0,0,0,0,0,0,0,0,0,0,0,0,0,0,0,0,0,0,0,0,0,0,0,0,0,0,0,0,0,0,0,0,0,0,0,0,0,0,0,0,0,0,0,0,0,0,0,0,0,0,0,0,0,0,0,0,0,0,0,0,0,0,0,0,0,0,0,0,0,0,0,0,0,0,0,0,0,0,0,0,0,0,0,0,0,0,0,0,0,0,0,0,0,0,0,0,0,0,0,0,0,0,0,0,0,0,0,0,0,0,0,0,0,0,0,0,0,0,0,0,0,0,0,0,0,0,0,0,0,0,0,0,0,0,0,0,0,0,0,0,0,0,0,0,0,0,0,0,0,0,0,0,0,0,0,0,0,0,0,0,0,0,0,0,0,0,0,0,0,0,0,0,0,0,0,0,0,0,0,0,0,0,0,0,0,0,0,0,0,0,0,0,0,0,0,0,0,0,0,0,0,0,0,0,0,0,0,0,0,0,0,0,0,0,0,0,0,0,0,0,0,0,0,0,0,0,0,0,0,0,0,0,0,0,0,0,0,0,0,0,0,0,0,0,0,0,0,0,0,0,0,0,0,0,0,0,0,0,0,0,0,0,0,0,0,0,0,0,0,0,0,0,0,0,0,0,0,0,0,0,0,0,0,0,0,0,0,0,0,0,0,0,0,0,0,0,0,0,0,0,0,0,0,0,0,0,0,0,0,0,0,0,0,0,0,0,0,0,0,0,0,0,0,0,0,0,0,0,0,0,0,0,0,0,0,0,0,0,0,0,0,0,0,0,0,0,0,0,0,0,0,0,0,0,0,0,0,0,0,0,0,0,0,0,0,0,0,0,0,0,0,0,0,0,0,0,0,0,0,0,0,0,0,0,0,0,0,0,0,0,0,0,0,0,0,0,0,0,0,0,0,0,0,0,0,0,0,0,0,0,0,0,0,0,0,0,0,0,0,0,0,0,0,0,0]}]],[[{"header":{"parameterUnit":"kt","parameterCategory":2,"dx":1,"dy":1,"la1":29.46422004699707,"la2":30.564109802246094,"lo1":-89.4342041015625,"lo2":-87.934326171875,"nx":46,"ny":34,"refTime":"2022-10-09T00:00:00:Z","depth":"15","parameterNumber":2,"parameterNumberName":"U-component_of_CURRENTS"},"data":[0,0,0,0,0,0,0,0,0,0,0,0,0,0,0,0,0,-0.0758,-0.1132,-0.1644,-0.2397,-0.3316,-0.4592,-0.5355,-0.4875,-0.4079,-0.3364,-0.2771,-0.2109,-0.1714,-0.2114,-0.2328,-0.212,-0.1687,-0.1292,-0.1303,-0.1554,-0.1719,-0.1618,-0.1303,-0.087,-0.0304,0.0422,0.1191,0.1901,0.2568,0,0,0,0,0,0,0,0,0,0,0,0,0,0,0,0,0,0,-0.1014,-0.1244,-0.1703,-0.2248,-0.3038,-0.3924,-0.464,-0.4629,-0.4271,-0.3801,-0.3161,-0.267,-0.2525,-0.2344,-0.2098,-0.2088,-0.2178,-0.2274,-0.22,-0.1927,-0.1612,-0.1319,-0.0982,-0.0545,-0.0005,0.0609,0.1239,0.1831,0,0,0,0,0,0,0,0,0,0,0,0,0,0,0,0,0,0,0,-0.1223,-0.1361,-0.1644,-0.2072,-0.2755,-0.3396,-0.3898,-0.409,-0.4223,-0.417,-0.3748,-0.3166,-0.2648,-0.2355,-0.2376,-0.2483,-0.2344,-0.1879,-0.1399,-0.1148,-0.0897,-0.0593,-0.0352,-0.0214,-0.0048,0.0208,0.0427,0,0,0,0,0,0,0,0,0,0,0,0,0,0,0,0,0,0,0,0,-0.1319,-0.1399,-0.1596,-0.1997,-0.2616,-0.2969,-0.2995,-0.3011,-0.3235,-0.3278,-0.2963,-0.2461,-0.2056,-0.1863,-0.1628,-0.0785,0.0427,0.1436,0.1399,0.0758,0.0475,0.0342,0.0048,-0.0278,-0.0614,-0.1078,0,0,0,0,0,0,0,0,0,0,0,0,0,0,0,0,0,0,0,0,0,-0.1308,-0.1361,-0.158,-0.2013,-0.2584,-0.284,-0.2413,-0.1885,-0.1484,-0.1249,-0.103,-0.0774,-0.0561,-0.0198,0.0219,0.0561,0.0993,0.1105,0.0812,0.0587,0.0384,0.0059,-0.0272,-0.0635,-0.0966,0,0,0,0,0,0,0,0,0,0,0,0,0,0,0,0,0,0,0,0,0,-0.1196,-0.1201,-0.1319,-0.1538,-0.2013,-0.2467,-0.2392,-0.1863,-0.1084,-0.0352,0.0155,0.0507,0.0833,0.1153,0.1212,0.0913,0.0384,-0.0043,-0.0075,0.0059,-0.0037,-0.0368,-0.0561,-0.0593,-0.0662,0,0,0,0,0,0,0,0,0,0,0,0,0,0,0,0,0,0,0,0,0,-0.1046,-0.1025,-0.1089,-0.1175,-0.1308,-0.1644,-0.1703,-0.1319,-0.0545,0.0294,0.0892,0.1303,0.1591,0.1709,0.1559,0.1121,0.04,-0.0272,-0.0384,-0.0251,-0.0411,-0.0694,-0.0801,-0.0774,-0.0726,0,0,0,0,0,0,0,0,0,0,0,0,0,0,0,0,0,0,0,0,0,0,-0.0828,-0.086,-0.0881,-0.0886,-0.103,-0.1223,-0.1233,-0.0886,-0.0288,0.0299,0.0817,0.1207,0.1361,0.1223,0.0646,-0.0208,-0.0641,-0.0539,-0.0529,-0.0753,-0.0966,-0.1014,-0.0929,-0.0828,0,0,0,0,0,0,0,0,0,0,0,0,0,0,0,0,0,0,0,0,0,0,-0.0641,-0.0657,-0.0667,-0.0662,-0.0726,-0.1009,-0.141,-0.1495,-0.1228,-0.0908,-0.0555,-0.023,-0.0133,-0.031,-0.0689,-0.0908,-0.0849,-0.0806,-0.0881,-0.1052,-0.1159,-0.1111,-0.103,-0.0961,0,0,0,0,0,0,0,0,0,0,0,0,0,0,0,0,0,0,0,0,0,0,-0.0464,-0.0486,-0.0523,-0.0566,-0.0651,-0.1025,-0.1719,-0.2194,-0.2237,-0.2077,-0.1901,-0.1735,-0.1612,-0.1436,-0.1233,-0.1143,-0.1137,-0.11,-0.1127,-0.1265,-0.1228,-0.1078,-0.0934,-0.0774,0,0,0,0,0,0,0,0,0,0,0,0,0,0,0,0,0,0,0,0,0,0,-0.0278,-0.0336,-0.0406,-0.0502,-0.0657,-0.1121,-0.1879,-0.2477,-0.2702,-0.2702,-0.2541,-0.2317,-0.2045,-0.1826,-0.1757,-0.1623,-0.1308,-0.1153,-0.1276,-0.1356,-0.1233,-0.103,-0.0763,-0.0534,0,0,0,0,0,0,0,0,0,0,0,0,0,0,0,0,0,0,0,0,0,0,-0.0133,-0.0224,-0.031,-0.0416,-0.0614,-0.1068,-0.1783,-0.2451,-0.2819,-0.2915,-0.2888,-0.2771,-0.2595,-0.2317,-0.1885,-0.1442,-0.1265,-0.1319,-0.1383,-0.1292,-0.1105,-0.0876,-0.063,-0.0545,0,0,0,0,0,0,0,0,0,0,0,0,0,0,0,0,0,0,0,0,0,0,-0.0048,-0.0155,-0.0246,-0.0326,-0.0464,-0.078,-0.1442,-0.2152,-0.2563,-0.2744,-0.2734,-0.2568,-0.2269,-0.1885,-0.1516,-0.1351,-0.1458,-0.1548,-0.1361,-0.1089,-0.0892,-0.0694,-0.0619,-0.0667,0,0,0,0,0,0,0,0,0,0,0,0,0,0,0,0,0,0,0,0,0,0,-0.0016,-0.0112,-0.0187,-0.0235,-0.0283,-0.0411,-0.0817,-0.15,-0.2024,-0.2178,-0.2152,-0.2018,-0.1842,-0.1735,-0.1719,-0.1687,-0.1543,-0.1313,-0.1073,-0.0844,-0.0667,-0.0667,-0.078,-0.0849,0,0,0,0,0,0,0,0,0,0,0,0,0,0,0,0,0,0,0,0,0,0,-0.0021,-0.0096,-0.0144,-0.0171,-0.0182,-0.0192,-0.023,-0.0507,-0.1111,-0.1618,-0.1762,-0.1746,-0.1676,-0.158,-0.1463,-0.1308,-0.1084,-0.0854,-0.0721,-0.0721,-0.0806,-0.0908,-0.0956,-0.0945,0,0,0,0,0,0,0,0,0,0,0,0,0,0,0,0,0,0,0,0,0,0,-0.0048,-0.0117,-0.0166,-0.0187,-0.0182,-0.0176,-0.0198,-0.0256,-0.0368,-0.0529,-0.071,-0.0828,-0.0844,-0.079,-0.071,-0.0657,-0.0646,-0.071,-0.0817,-0.0924,-0.1004,-0.103,-0.1009,-0.0956,0,0,0,0,0,0,0,0,0,0,0,0,0,0,0,0,0,0,0,0,0,0,-0.0101,-0.0208,-0.0315,-0.0406,-0.0448,-0.0464,-0.0497,-0.0534,-0.0555,-0.055,-0.0545,-0.0539,-0.0545,-0.0566,-0.0609,-0.0689,-0.0796,-0.0908,-0.0998,-0.1052,-0.1078,-0.1068,-0.102,-0.095,0,0,0,0,0,0,0,0,0,0,0,0,0,0,0,0,0,0,0,0,0,0.0016,-0.0171,-0.0374,-0.0598,-0.0812,-0.0972,-0.11,-0.118,-0.1175,-0.1084,-0.0956,-0.0828,-0.0737,-0.0699,-0.0721,-0.0769,-0.0817,-0.0854,-0.0897,-0.0945,-0.1009,-0.1052,-0.1052,-0.1014,-0.0956,0,0,0,0,0,0,0,0,0,0,0,0,0,0,0,0,0,0,0,0,0,-0.0059,-0.0267,-0.0529,-0.079,-0.0998,-0.1143,-0.1249,-0.1303,-0.1292,-0.1223,-0.1095,-0.094,-0.0812,-0.0763,-0.0806,-0.0897,-0.0998,-0.1073,-0.1095,-0.1078,-0.1062,-0.1036,-0.1009,-0.0972,-0.0918,0,0,0,0,0,0,0,0,0,0,0,0,0,0,0,0,0,0,0,0,0,0,-0.0363,-0.0577,-0.0801,-0.0998,-0.1153,-0.1217,-0.1137,-0.1084,-0.1212,-0.1265,-0.1153,-0.1046,-0.1068,-0.1191,-0.1281,-0.1217,-0.1078,-0.1073,-0.1233,-0.1303,-0.1132,-0.0982,-0.094,-0.0897,0,0,0,0,0,0,0,0,0,0,0,0,0,0,0,0,0,0,0,0,0,0,0,-0.0726,-0.0956,0,0,0,0,0,0,-0.158,-0.15,-0.1164,-0.0849,-0.0635,-0.0294,0.0166,0.0347,0.0053,0,0,0,0,0,0,0,0,0,0,0,0,0,0,0,0,0,0,0,0,0,0,0,0,0,0,0,0,0,0,0,0,0,0,0,0,0,0,0,0,0,0.0438,0.0689,0,0,0,0,0,0,0,0,0,0,0,0,0,0,0,0,0,0,0,0,0,0,0,0,0,0,0,0,0,0,0,0,0,0,0,0,0,0,0,0,0,0,0,0,0,0,0,0,0,0,0,0,0,0,0,0,0,0,0,0,0,0,0,0,0,0,0,0,0,0,0,0,0,0,0,0,0,0,0,0,0,0,0,0,0,0,0,0,0,0,0,0,0,0,0,0,0,0,0,0,0,0,0,0,0,0,0,0,0,0,0,0,0,0,0,0,0,0,0,0,0,0,0,0,0,0,0,0,0,0,0,0,0,0,0,0,0,0,0,0,0,0,0,0,0,0,0,0,0,0,0,0,0,0,0,0,0,0,0,0,0,0,0,0,0,0,0,0,0,0,0,0,0,0,0,0,0,0,0,0,0,0,0,0,0,0,0,0,0,0,0,0,0,0,0,0,0,0,0,0,0,0,0,0,0,0,0,0,0,0,0,0,0,0,0,0,0,0,0,0,0,0,0,0,0,0,0,0,0,0,0,0,0,0,0,0,0,0,0,0,0,0,0,0,0,0,0,0,0,0,0,0,0,0,0,0,0,0,0,0,0,0,0,0,0,0,0,0,0,0,0,0,0,0,0,0,0,0,0,0,0,0,0,0,0,0,0,0,0,0,0,0,0,0,0,0,0,0,0,0,0,0,0,0,0,0,0,0,0,0,0,0,0,0,0,0,0,0,0,0,0,0,0,0,0,0,0,0,0,0,0,0,0,0,0,0,0,0,0,0,0,0,0,0,0,0,0,0,0,0,0,0,0,0,0,0,0,0,0,0,0,0,0,0,0,0,0,0,0,0,0,0,0,0,0,0,0,0,0,0,0,0,0,0,0,0,0,0,0,0,0,0,0,0,0,0,0,0,0,0,0,0,0,0,0,0,0,0,0,0,0,0,0,0,0,0,0,0,0,0,0,0,0,0,0,0,0,0,0,0,0,0,0,0,0,0,0,0,0,0,0,0,0,0,0,0,0,0,0,0,0,0,0,0,0,0,0,0,0,0,0,0,0,0,0,0,0,0,0,0,0,0,0,0,0,0,0,0,0,0,0,0,0,0,0,0,0,0,0,0,0,0,0,0,0,0,0,0,0,0,0,0,0,0,0,0,0,0,0,0,0,0,0,0,0,0,0,0,0,0,0,0,0,0,0,0,0,0,0,0,0,0,0,0,0,0,0,0,0,0,0,0,0,0,0,0,0,0,0,0,0,0,0,0,0,0,0,0,0,0,0]}],[{"header":{"parameterUnit":"kt","parameterCategory":2,"dx":1,"dy":1,"la1":29.46422004699707,"la2":30.564109802246094,"lo1":-89.4342041015625,"lo2":-87.934326171875,"nx":46,"ny":34,"refTime":"2022-10-09T00:00:00:Z","depth":"15","parameterNumber":3,"parameterNumberName":"V-component_of_CURRENTS"},"data":[0,0,0,0,0,0,0,0,0,0,0,0,0,0,0,0,0,-0.2739,-0.2846,-0.2915,-0.3187,-0.3849,-0.4266,-0.354,-0.1949,-0.0876,-0.0448,-0.0101,0.0315,0.055,0.0865,0.1324,0.213,0.2072,0.1228,0.0924,0.0817,0.0635,0.0454,0.0331,0.0203,0.0192,0.0342,0.0523,0.0689,0.0822,0,0,0,0,0,0,0,0,0,0,0,0,0,0,0,0,0,0,-0.2595,-0.2499,-0.275,-0.2814,-0.3567,-0.4164,-0.3508,-0.1938,-0.0977,-0.0342,0.0422,0.1137,0.157,0.1943,0.2659,0.2739,0.22,0.1644,0.1121,0.0678,0.0331,0.0133,-0.0096,-0.0352,-0.0331,-0.0101,0.0149,0.0352,0,0,0,0,0,0,0,0,0,0,0,0,0,0,0,0,0,0,0,-0.2435,-0.2317,-0.2392,-0.2632,-0.33,-0.3903,-0.3091,-0.1655,-0.0806,-0.0053,0.0812,0.1506,0.1965,0.2339,0.221,0.1666,0.1062,0.0678,0.0432,0.0166,-0.0235,-0.0518,-0.0961,-0.1159,-0.0796,-0.0315,0.0048,0,0,0,0,0,0,0,0,0,0,0,0,0,0,0,0,0,0,0,0,-0.2248,-0.2157,-0.2205,-0.2541,-0.3177,-0.3449,-0.236,-0.1303,-0.079,-0.0101,0.0555,0.1036,0.1201,0.1062,0.071,0.0384,0.0262,0.0288,0.0251,-0.0155,-0.0646,-0.1159,-0.1548,-0.1159,-0.0529,-0.0059,0,0,0,0,0,0,0,0,0,0,0,0,0,0,0,0,0,0,0,0,0,-0.2061,-0.1997,-0.2125,-0.2509,-0.299,-0.2883,-0.1805,-0.1121,-0.0486,0.0133,0.0561,0.0737,0.0769,0.0683,0.032,-0.0262,-0.0123,0.0454,0.0347,-0.032,-0.0961,-0.1249,-0.0881,-0.0288,0.0053,0,0,0,0,0,0,0,0,0,0,0,0,0,0,0,0,0,0,0,0,0,-0.1949,-0.1869,-0.1895,-0.1991,-0.2451,-0.3033,-0.2355,-0.1452,-0.063,0.0128,0.0667,0.094,0.1025,0.0849,0.0123,-0.0833,-0.0801,0.0214,0.0368,-0.031,-0.0961,-0.0822,-0.0331,0.0192,0.0443,0,0,0,0,0,0,0,0,0,0,0,0,0,0,0,0,0,0,0,0,0,-0.1858,-0.1757,-0.1751,-0.1714,-0.1831,-0.2584,-0.2851,-0.1938,-0.11,-0.0187,0.0432,0.0801,0.0881,0.0598,-0.0107,-0.079,-0.0577,0.0208,0.0219,-0.0534,-0.095,-0.0443,0.0032,0.04,0.0667,0,0,0,0,0,0,0,0,0,0,0,0,0,0,0,0,0,0,0,0,0,0,-0.1687,-0.1655,-0.158,-0.1559,-0.212,-0.3134,-0.2435,-0.1596,-0.0523,0.0112,0.0513,0.0646,0.0432,-0.0011,-0.0208,0.0171,0.039,0.0011,-0.0689,-0.0673,-0.0005,0.0267,0.0416,0.055,0,0,0,0,0,0,0,0,0,0,0,0,0,0,0,0,0,0,0,0,0,0,-0.1639,-0.1596,-0.1516,-0.1442,-0.1767,-0.3054,-0.283,-0.204,-0.0844,-0.0064,0.0384,0.0577,0.0497,0.0336,0.0438,0.055,0.031,-0.0192,-0.0635,-0.0224,0.031,0.0406,0.0432,0.0374,0,0,0,0,0,0,0,0,0,0,0,0,0,0,0,0,0,0,0,0,0,0,-0.1596,-0.1538,-0.1442,-0.1345,-0.1516,-0.2686,-0.2899,-0.221,-0.1116,-0.0294,0.0166,0.0416,0.0486,0.0491,0.0513,0.0427,0.0149,-0.0315,-0.039,0.0171,0.0411,0.0432,0.0374,0.0246,0,0,0,0,0,0,0,0,0,0,0,0,0,0,0,0,0,0,0,0,0,0,-0.1532,-0.1463,-0.1345,-0.1196,-0.1276,-0.2157,-0.2654,-0.2189,-0.1372,-0.0641,-0.0182,0.0128,0.0294,0.0342,0.0336,0.0208,-0.0075,-0.0278,0.0005,0.0363,0.0368,0.0331,0.0171,0.0192,0,0,0,0,0,0,0,0,0,0,0,0,0,0,0,0,0,0,0,0,0,0,-0.1442,-0.1372,-0.1223,-0.1014,-0.0982,-0.1495,-0.212,-0.1997,-0.1522,-0.0886,-0.0422,-0.0107,0.0096,0.0149,0.0101,-0.0101,-0.0219,0.0027,0.0347,0.0379,0.0262,0.0101,0.0037,0.0198,0,0,0,0,0,0,0,0,0,0,0,0,0,0,0,0,0,0,0,0,0,0,-0.1335,-0.1265,-0.1111,-0.0865,-0.0705,-0.087,-0.1393,-0.1586,-0.1399,-0.0934,-0.0518,-0.0267,-0.0112,-0.0091,-0.0149,-0.0155,0.0032,0.0326,0.0411,0.0272,0.0069,-0.0059,0.0075,0.0251,0,0,0,0,0,0,0,0,0,0,0,0,0,0,0,0,0,0,0,0,0,0,-0.1249,-0.1175,-0.102,-0.078,-0.0555,-0.0481,-0.0678,-0.1004,-0.103,-0.0742,-0.0491,-0.0315,-0.0192,-0.0128,-0.0059,0.0085,0.0251,0.031,0.0224,0.0059,-0.0037,0.0027,0.0187,0.032,0,0,0,0,0,0,0,0,0,0,0,0,0,0,0,0,0,0,0,0,0,0,-0.1185,-0.1111,-0.0972,-0.0753,-0.0529,-0.0368,-0.0304,-0.0422,-0.0475,-0.0368,-0.0304,-0.0208,-0.0107,-0.0032,0.0043,0.0117,0.0155,0.016,0.0101,0.0021,0.0064,0.0182,0.0278,0.0342,0,0,0,0,0,0,0,0,0,0,0,0,0,0,0,0,0,0,0,0,0,0,-0.1137,-0.1062,-0.094,-0.0753,-0.0545,-0.0384,-0.0256,-0.0112,-0.0059,-0.0069,-0.0101,-0.0091,-0.0064,-0.0048,-0.0005,0.0048,0.0107,0.0171,0.0203,0.0198,0.0208,0.0267,0.0304,0.0326,0,0,0,0,0,0,0,0,0,0,0,0,0,0,0,0,0,0,0,0,0,0,-0.1078,-0.1004,-0.0881,-0.0726,-0.0561,-0.0395,-0.0208,-0.0037,0.0032,0.0043,-0.0005,-0.0037,-0.0053,-0.0037,0.0027,0.0139,0.0246,0.032,0.0347,0.032,0.0304,0.031,0.0304,0.0299,0,0,0,0,0,0,0,0,0,0,0,0,0,0,0,0,0,0,0,0,0,-0.1068,-0.0956,-0.0849,-0.0699,-0.0587,-0.0481,-0.0315,-0.0133,-0.0016,0.0,-0.0011,-0.0053,-0.0069,-0.0048,0.0011,0.0112,0.0251,0.0368,0.0443,0.0454,0.0416,0.0368,0.0347,0.031,0.0283,0,0,0,0,0,0,0,0,0,0,0,0,0,0,0,0,0,0,0,0,0,-0.0886,-0.0774,-0.0593,-0.0432,-0.0395,-0.0326,-0.0176,-0.0048,-0.0032,-0.0091,-0.0155,-0.0192,-0.0155,-0.0032,0.0096,0.024,0.0406,0.0513,0.055,0.0539,0.0481,0.0406,0.0368,0.0304,0.0262,0,0,0,0,0,0,0,0,0,0,0,0,0,0,0,0,0,0,0,0,0,0,-0.0582,-0.0326,-0.0176,-0.0171,-0.0112,-0.0011,0.0166,0.0187,-0.0032,-0.0304,-0.0336,-0.0176,0.0117,0.0358,0.0598,0.0828,0.0876,0.0822,0.0657,0.0438,0.0304,0.039,0.0272,0.0214,0,0,0,0,0,0,0,0,0,0,0,0,0,0,0,0,0,0,0,0,0,0,0,-0.0059,0.0182,0,0,0,0,0,0,-0.0326,-0.0187,0.0278,0.0635,0.0849,0.0988,0.1041,0.0988,0.1014,0,0,0,0,0,0,0,0,0,0,0,0,0,0,0,0,0,0,0,0,0,0,0,0,0,0,0,0,0,0,0,0,0,0,0,0,0,0,0,0,0,0.0817,0.0865,0,0,0,0,0,0,0,0,0,0,0,0,0,0,0,0,0,0,0,0,0,0,0,0,0,0,0,0,0,0,0,0,0,0,0,0,0,0,0,0,0,0,0,0,0,0,0,0,0,0,0,0,0,0,0,0,0,0,0,0,0,0,0,0,0,0,0,0,0,0,0,0,0,0,0,0,0,0,0,0,0,0,0,0,0,0,0,0,0,0,0,0,0,0,0,0,0,0,0,0,0,0,0,0,0,0,0,0,0,0,0,0,0,0,0,0,0,0,0,0,0,0,0,0,0,0,0,0,0,0,0,0,0,0,0,0,0,0,0,0,0,0,0,0,0,0,0,0,0,0,0,0,0,0,0,0,0,0,0,0,0,0,0,0,0,0,0,0,0,0,0,0,0,0,0,0,0,0,0,0,0,0,0,0,0,0,0,0,0,0,0,0,0,0,0,0,0,0,0,0,0,0,0,0,0,0,0,0,0,0,0,0,0,0,0,0,0,0,0,0,0,0,0,0,0,0,0,0,0,0,0,0,0,0,0,0,0,0,0,0,0,0,0,0,0,0,0,0,0,0,0,0,0,0,0,0,0,0,0,0,0,0,0,0,0,0,0,0,0,0,0,0,0,0,0,0,0,0,0,0,0,0,0,0,0,0,0,0,0,0,0,0,0,0,0,0,0,0,0,0,0,0,0,0,0,0,0,0,0,0,0,0,0,0,0,0,0,0,0,0,0,0,0,0,0,0,0,0,0,0,0,0,0,0,0,0,0,0,0,0,0,0,0,0,0,0,0,0,0,0,0,0,0,0,0,0,0,0,0,0,0,0,0,0,0,0,0,0,0,0,0,0,0,0,0,0,0,0,0,0,0,0,0,0,0,0,0,0,0,0,0,0,0,0,0,0,0,0,0,0,0,0,0,0,0,0,0,0,0,0,0,0,0,0,0,0,0,0,0,0,0,0,0,0,0,0,0,0,0,0,0,0,0,0,0,0,0,0,0,0,0,0,0,0,0,0,0,0,0,0,0,0,0,0,0,0,0,0,0,0,0,0,0,0,0,0,0,0,0,0,0,0,0,0,0,0,0,0,0,0,0,0,0,0,0,0,0,0,0,0,0,0,0,0,0,0,0,0,0,0,0,0,0,0,0,0,0,0,0,0,0,0,0,0,0,0,0,0,0,0,0,0,0,0,0,0,0,0,0,0,0,0,0,0,0,0,0,0,0,0,0,0,0,0,0,0,0,0,0,0,0,0,0,0,0,0,0,0,0,0,0]}]],[[{"header":{"parameterUnit":"kt","parameterCategory":2,"dx":1,"dy":1,"la1":29.46422004699707,"la2":30.564109802246094,"lo1":-89.4342041015625,"lo2":-87.934326171875,"nx":46,"ny":34,"refTime":"2022-10-09T00:00:00:Z","depth":"20","parameterNumber":2,"parameterNumberName":"U-component_of_CURRENTS"},"data":[0,0,0,0,0,0,0,0,0,0,0,0,0,0,0,0,0,0,0,-0.1212,-0.11,-0.1596,-0.2376,-0.3374,-0.3107,-0.2536,-0.1789,-0.1164,-0.0763,-0.0929,-0.1212,-0.1559,-0.1655,-0.102,-0.0256,-0.0416,-0.1137,-0.1463,-0.1393,-0.1127,-0.0721,-0.0149,0.0582,0.1351,0.2066,0.2707,0,0,0,0,0,0,0,0,0,0,0,0,0,0,0,0,0,0,0,0,0,-0.1415,-0.1511,-0.1831,-0.2691,-0.2819,-0.2413,-0.1634,-0.1319,-0.1618,-0.1858,-0.1885,-0.1799,-0.1522,-0.1361,-0.1329,-0.1137,-0.0924,-0.102,-0.1068,-0.0662,-0.0203,0.0278,0.0865,0.1474,0.2024,0,0,0,0,0,0,0,0,0,0,0,0,0,0,0,0,0,0,0,0,0,0,-0.158,-0.1351,-0.1399,-0.1858,-0.2226,-0.221,-0.1895,-0.173,-0.2093,-0.2328,-0.2216,-0.1794,-0.1399,-0.1143,-0.0747,-0.0304,-0.008,-0.0358,-0.0448,-0.0214,-0.0069,0.0085,0.0326,0.0534,0,0,0,0,0,0,0,0,0,0,0,0,0,0,0,0,0,0,0,0,0,0,0,0,-0.1212,-0.1137,-0.1228,-0.1564,-0.1746,-0.1746,-0.1783,-0.1778,-0.1447,-0.0854,-0.0406,-0.0432,-0.04,0.0027,0.0886,0.1207,0.0785,0.0432,0.0176,-0.0144,-0.0539,-0.1025,0,0,0,0,0,0,0,0,0,0,0,0,0,0,0,0,0,0,0,0,0,0,0,0,-0.1474,-0.1217,-0.1329,-0.1137,-0.0737,-0.047,-0.0117,0.023,0.0235,0.0443,0.0715,0.094,0.1383,0.2056,0.2477,0.1933,0.1105,0.0577,0.0208,-0.0171,-0.0561,-0.0833,0,0,0,0,0,0,0,0,0,0,0,0,0,0,0,0,0,0,0,0,0,0,0,0,0,-0.1335,-0.1212,-0.1618,-0.1111,-0.0326,0.0368,0.0758,0.0929,0.1084,0.126,0.1249,0.0956,0.0726,0.1046,0.1313,0.0758,0.0117,-0.0278,-0.0464,-0.0481,-0.0486,0,0,0,0,0,0,0,0,0,0,0,0,0,0,0,0,0,0,0,0,0,0,0,0,0,-0.1084,-0.0902,-0.0758,-0.0342,0.0224,0.079,0.1191,0.1447,0.166,0.1778,0.1634,0.1201,0.0518,0.0182,0.0416,0.016,-0.0251,-0.0566,-0.0715,-0.0705,-0.0598,0,0,0,0,0,0,0,0,0,0,0,0,0,0,0,0,0,0,0,0,0,0,0,0,0,-0.0731,-0.0801,-0.0464,-0.0267,0.0288,0.1185,0.1746,0.1922,0.1821,0.1687,0.15,0.0902,-0.0032,-0.0475,-0.0347,-0.032,-0.0566,-0.0854,-0.094,-0.086,-0.0747,0,0,0,0,0,0,0,0,0,0,0,0,0,0,0,0,0,0,0,0,0,0,0,0,0,-0.055,-0.0662,-0.0577,-0.047,-0.0497,0.0384,0.1271,0.1458,0.1415,0.1148,0.0352,-0.0486,-0.079,-0.0742,-0.0577,-0.047,-0.0753,-0.1041,-0.102,-0.0961,-0.0897,0,0,0,0,0,0,0,0,0,0,0,0,0,0,0,0,0,0,0,0,0,0,0,0,0,-0.0475,-0.0598,-0.0801,-0.1105,-0.1127,-0.0726,-0.0112,0.0037,-0.0182,-0.0481,-0.0812,-0.1025,-0.103,-0.0886,-0.0534,-0.0635,-0.1089,-0.1132,-0.1004,-0.0865,-0.0699,0,0,0,0,0,0,0,0,0,0,0,0,0,0,0,0,0,0,0,0,0,0,0,0,-0.0326,-0.0416,-0.0603,-0.0886,-0.149,-0.1794,-0.1655,-0.1207,-0.1025,-0.1137,-0.1329,-0.1516,-0.1548,-0.1207,-0.063,-0.0497,-0.0908,-0.1217,-0.1121,-0.095,-0.0694,-0.0481,0,0,0,0,0,0,0,0,0,0,0,0,0,0,0,0,0,0,0,0,0,0,0,0,-0.0235,-0.0336,-0.0555,-0.0908,-0.1431,-0.1986,-0.2226,-0.2237,-0.2312,-0.2322,-0.22,-0.1831,-0.1287,-0.0747,-0.0481,-0.079,-0.1201,-0.1191,-0.1025,-0.0812,-0.0571,-0.0497,0,0,0,0,0,0,0,0,0,0,0,0,0,0,0,0,0,0,0,0,0,0,0,0,-0.0182,-0.0246,-0.0416,-0.0721,-0.1169,-0.1671,-0.2088,-0.2419,-0.2467,-0.2269,-0.1874,-0.1345,-0.0934,-0.0924,-0.1196,-0.1377,-0.1244,-0.1014,-0.0822,-0.0619,-0.0561,-0.0609,0,0,0,0,0,0,0,0,0,0,0,0,0,0,0,0,0,0,0,0,0,0,0,0,-0.0133,-0.0166,-0.0224,-0.0368,-0.0737,-0.1255,-0.1607,-0.181,-0.1895,-0.1805,-0.1644,-0.1532,-0.149,-0.1468,-0.1404,-0.1228,-0.1014,-0.078,-0.0587,-0.0598,-0.0715,-0.078,0,0,0,0,0,0,0,0,0,0,0,0,0,0,0,0,0,0,0,0,0,0,0,0,-0.0096,-0.0107,-0.0128,-0.0149,-0.0192,-0.0448,-0.0988,-0.1447,-0.1607,-0.1602,-0.1543,-0.1458,-0.1361,-0.1228,-0.1009,-0.0769,-0.0646,-0.0651,-0.0742,-0.0828,-0.0876,-0.087,0,0,0,0,0,0,0,0,0,0,0,0,0,0,0,0,0,0,0,0,0,0,0,0,-0.0117,-0.0133,-0.0133,-0.0128,-0.0155,-0.0219,-0.0331,-0.0481,-0.0646,-0.0758,-0.0769,-0.0715,-0.0635,-0.0582,-0.0587,-0.0646,-0.0742,-0.0838,-0.0908,-0.0934,-0.0918,-0.087,0,0,0,0,0,0,0,0,0,0,0,0,0,0,0,0,0,0,0,0,0,0,0,0,-0.0267,-0.0347,-0.0384,-0.0411,-0.0438,-0.0481,-0.0502,-0.0502,-0.0497,-0.0491,-0.0497,-0.0513,-0.055,-0.0619,-0.0705,-0.0796,-0.086,-0.0913,-0.0945,-0.0934,-0.0892,-0.0838,0,0,0,0,0,0,0,0,0,0,0,0,0,0,0,0,0,0,0,0,0,0,0,0,0,-0.0731,-0.087,-0.0977,-0.1041,-0.1041,-0.0972,-0.086,-0.0742,-0.0657,-0.0614,-0.0625,-0.0667,-0.0705,-0.0737,-0.0774,-0.0833,0,0,0,0,0,0,0,0,0,0,0,0,0,0,0,0,0,0,0,0,0,0,0,0,0,0,0,0,0,0,0,0,0,0,0,0,0,0,-0.0742,-0.0683,-0.0721,0,0,0,0,0,0,0,0,0,0,0,0,0,0,0,0,0,0,0,0,0,0,0,0,0,0,0,0,0,0,0,0,0,0,0,0,0,0,0,0,0,0,0,0,0,0,0,0,0,0,0,0,0,0,0,0,0,0,0,0,0,0,0,0,0,0,0,0,0,0,0,0,0,0,0,0,0,0,0,0,0,0,0,0,0,0,0,0,0,0,0,0,0,0,0,0,0,0,0,0,0,0,0,0,0,0,0,0,0,0,0,0,0,0,0,0,0,0,0,0,0,0,0,0,0,0,0,0,0,0,0,0,0,0,0,0,0,0,0,0,0,0,0,0,0,0,0,0,0,0,0,0,0,0,0,0,0,0,0,0,0,0,0,0,0,0,0,0,0,0,0,0,0,0,0,0,0,0,0,0,0,0,0,0,0,0,0,0,0,0,0,0,0,0,0,0,0,0,0,0,0,0,0,0,0,0,0,0,0,0,0,0,0,0,0,0,0,0,0,0,0,0,0,0,0,0,0,0,0,0,0,0,0,0,0,0,0,0,0,0,0,0,0,0,0,0,0,0,0,0,0,0,0,0,0,0,0,0,0,0,0,0,0,0,0,0,0,0,0,0,0,0,0,0,0,0,0,0,0,0,0,0,0,0,0,0,0,0,0,0,0,0,0,0,0,0,0,0,0,0,0,0,0,0,0,0,0,0,0,0,0,0,0,0,0,0,0,0,0,0,0,0,0,0,0,0,0,0,0,0,0,0,0,0,0,0,0,0,0,0,0,0,0,0,0,0,0,0,0,0,0,0,0,0,0,0,0,0,0,0,0,0,0,0,0,0,0,0,0,0,0,0,0,0,0,0,0,0,0,0,0,0,0,0,0,0,0,0,0,0,0,0,0,0,0,0,0,0,0,0,0,0,0,0,0,0,0,0,0,0,0,0,0,0,0,0,0,0,0,0,0,0,0,0,0,0,0,0,0,0,0,0,0,0,0,0,0,0,0,0,0,0,0,0,0,0,0,0,0,0,0,0,0,0,0,0,0,0,0,0,0,0,0,0,0,0,0,0,0,0,0,0,0,0,0,0,0,0,0,0,0,0,0,0,0,0,0,0,0,0,0,0,0,0,0,0,0,0,0,0,0,0,0,0,0,0,0,0,0,0,0,0,0,0,0,0,0,0,0,0,0,0,0,0,0,0,0,0,0,0,0,0,0,0,0,0,0,0,0,0,0,0,0,0,0,0,0,0,0,0,0,0,0,0,0,0,0,0,0,0,0,0,0,0,0,0,0,0,0,0,0,0,0,0,0,0,0,0,0,0,0,0,0,0,0,0,0,0,0,0,0,0,0,0,0,0,0,0,0,0,0,0,0,0,0,0,0,0,0,0,0,0,0,0,0,0,0,0,0,0,0,0,0,0,0,0,0,0,0,0,0,0,0,0,0,0,0,0,0,0,0,0,0,0,0,0,0,0,0,0,0,0,0,0,0,0,0,0,0,0,0,0,0,0,0,0,0,0,0,0,0,0,0,0,0,0,0,0,0,0,0,0,0,0,0,0,0,0,0,0,0,0,0,0,0,0,0,0,0,0]}],[{"header":{"parameterUnit":"kt","parameterCategory":2,"dx":1,"dy":1,"la1":29.46422004699707,"la2":30.564109802246094,"lo1":-89.4342041015625,"lo2":-87.934326171875,"nx":46,"ny":34,"refTime":"2022-10-09T00:00:00:Z","depth":"20","parameterNumber":3,"parameterNumberName":"V-component_of_CURRENTS"},"data":[0,0,0,0,0,0,0,0,0,0,0,0,0,0,0,0,0,0,0,-0.2248,-0.1789,-0.2109,-0.3102,-0.2819,-0.1468,-0.0416,-0.0107,0.0128,0.0448,0.1532,0.2611,0.2712,0.2322,0.2248,0.149,0.1191,0.1095,0.0924,0.0694,0.0523,0.039,0.0374,0.0513,0.0705,0.086,0.0972,0,0,0,0,0,0,0,0,0,0,0,0,0,0,0,0,0,0,0,0,0,-0.1831,-0.1682,-0.2686,-0.2509,-0.1062,-0.0192,0.0224,0.0726,0.1602,0.2675,0.2787,0.276,0.2936,0.2355,0.1933,0.1522,0.11,0.078,0.0347,0.0101,-0.0139,-0.0139,0.0091,0.0352,0.055,0,0,0,0,0,0,0,0,0,0,0,0,0,0,0,0,0,0,0,0,0,0,-0.2034,-0.1618,-0.2312,-0.1655,-0.0262,0.0475,0.0902,0.1426,0.2264,0.2355,0.2403,0.2467,0.2189,0.22,0.1442,0.0828,0.0582,0.0342,-0.0331,-0.0796,-0.1025,-0.0651,-0.023,0.0112,0,0,0,0,0,0,0,0,0,0,0,0,0,0,0,0,0,0,0,0,0,0,0,0,-0.1575,-0.1831,-0.0529,0.04,0.0763,0.0966,0.1281,0.134,0.1324,0.1404,0.1714,0.1618,0.0625,0.008,-0.0219,0.0171,-0.0406,-0.1073,-0.1383,-0.0961,-0.0448,0.0005,0,0,0,0,0,0,0,0,0,0,0,0,0,0,0,0,0,0,0,0,0,0,0,0,-0.1906,-0.1527,-0.1522,-0.0486,0.0246,0.0561,0.0742,0.0828,0.0902,0.1132,0.1313,0.0699,-0.0267,-0.0416,-0.0107,0.0144,-0.0053,-0.0876,-0.1073,-0.0747,-0.0208,0.0144,0,0,0,0,0,0,0,0,0,0,0,0,0,0,0,0,0,0,0,0,0,0,0,0,0,-0.1714,-0.1682,-0.1175,-0.0283,0.0192,0.0603,0.0924,0.1084,0.1175,0.0982,0.0166,-0.0774,-0.0657,0.0155,0.0278,-0.0032,-0.0881,-0.0694,-0.023,0.0272,0.0539,0,0,0,0,0,0,0,0,0,0,0,0,0,0,0,0,0,0,0,0,0,0,0,0,0,-0.1596,-0.1863,-0.181,-0.1036,-0.0256,0.0491,0.0918,0.1041,0.0993,0.0689,-0.0032,-0.0678,-0.0475,0.0374,0.039,-0.0304,-0.0844,-0.0315,0.0107,0.047,0.0742,0,0,0,0,0,0,0,0,0,0,0,0,0,0,0,0,0,0,0,0,0,0,0,0,0,-0.1393,-0.1885,-0.2333,-0.1917,-0.1025,0.0224,0.0876,0.1121,0.0998,0.0651,0.0171,-0.0037,0.0256,0.0523,0.0235,-0.0502,-0.0481,0.0096,0.0342,0.0481,0.0614,0,0,0,0,0,0,0,0,0,0,0,0,0,0,0,0,0,0,0,0,0,0,0,0,0,-0.1281,-0.1692,-0.2552,-0.2285,-0.1596,-0.0203,0.0646,0.1111,0.118,0.1014,0.0763,0.0587,0.0641,0.0411,0.0005,-0.0358,0.0,0.039,0.0486,0.0497,0.0438,0,0,0,0,0,0,0,0,0,0,0,0,0,0,0,0,0,0,0,0,0,0,0,0,0,-0.1191,-0.1458,-0.2408,-0.2408,-0.1671,-0.0641,0.0374,0.0929,0.1175,0.1164,0.0913,0.063,0.0545,0.032,-0.0027,-0.0032,0.0299,0.0497,0.0502,0.0438,0.0304,0,0,0,0,0,0,0,0,0,0,0,0,0,0,0,0,0,0,0,0,0,0,0,0,-0.1201,-0.1057,-0.1212,-0.1927,-0.221,-0.1725,-0.0897,-0.0005,0.0523,0.0812,0.0801,0.0593,0.0497,0.0432,0.0256,0.0117,0.0278,0.0454,0.0448,0.039,0.0235,0.0246,0,0,0,0,0,0,0,0,0,0,0,0,0,0,0,0,0,0,0,0,0,0,0,0,-0.1095,-0.0897,-0.0918,-0.1351,-0.1735,-0.1522,-0.1025,-0.0454,-0.0043,0.0272,0.0427,0.0481,0.04,0.0192,0.0128,0.0363,0.0481,0.0448,0.0326,0.016,0.0091,0.0246,0,0,0,0,0,0,0,0,0,0,0,0,0,0,0,0,0,0,0,0,0,0,0,0,-0.0993,-0.0763,-0.0646,-0.0806,-0.1175,-0.1137,-0.087,-0.0561,-0.024,0.0,0.0171,0.0214,0.0155,0.0085,0.024,0.0475,0.0502,0.0326,0.0128,0.0005,0.0123,0.0304,0,0,0,0,0,0,0,0,0,0,0,0,0,0,0,0,0,0,0,0,0,0,0,0,-0.0913,-0.0683,-0.0497,-0.0432,-0.0587,-0.079,-0.0625,-0.0422,-0.0251,-0.0107,0.0011,0.0048,0.0128,0.0246,0.0358,0.04,0.0288,0.0117,0.0027,0.0085,0.0246,0.0384,0,0,0,0,0,0,0,0,0,0,0,0,0,0,0,0,0,0,0,0,0,0,0,0,-0.0865,-0.0657,-0.0464,-0.0326,-0.0262,-0.0347,-0.0326,-0.0208,-0.016,-0.008,0.0011,0.0075,0.0166,0.0203,0.023,0.0235,0.0171,0.008,0.0133,0.0246,0.0347,0.0411,0,0,0,0,0,0,0,0,0,0,0,0,0,0,0,0,0,0,0,0,0,0,0,0,-0.0833,-0.0651,-0.0475,-0.0336,-0.0214,-0.0069,-0.0005,0.0005,-0.0032,-0.0016,0.0005,0.0027,0.0075,0.0128,0.0171,0.0246,0.0283,0.0278,0.0294,0.0347,0.0379,0.0395,0,0,0,0,0,0,0,0,0,0,0,0,0,0,0,0,0,0,0,0,0,0,0,0,-0.0769,-0.0609,-0.0459,-0.031,-0.0139,0.0027,0.0091,0.0107,0.0059,0.0027,0.0011,0.0027,0.0096,0.0214,0.0326,0.0411,0.0438,0.0411,0.039,0.04,0.0395,0.0384,0,0,0,0,0,0,0,0,0,0,0,0,0,0,0,0,0,0,0,0,0,0,0,0,0,-0.0459,-0.0342,-0.0166,0.0016,0.0123,0.0123,0.0096,0.0043,0.0016,0.0037,0.0096,0.0203,0.0336,0.0454,0.0518,0.0523,0,0,0,0,0,0,0,0,0,0,0,0,0,0,0,0,0,0,0,0,0,0,0,0,0,0,0,0,0,0,0,0,0,0,0,0,0,0,-0.0069,0.0053,0.0182,0,0,0,0,0,0,0,0,0,0,0,0,0,0,0,0,0,0,0,0,0,0,0,0,0,0,0,0,0,0,0,0,0,0,0,0,0,0,0,0,0,0,0,0,0,0,0,0,0,0,0,0,0,0,0,0,0,0,0,0,0,0,0,0,0,0,0,0,0,0,0,0,0,0,0,0,0,0,0,0,0,0,0,0,0,0,0,0,0,0,0,0,0,0,0,0,0,0,0,0,0,0,0,0,0,0,0,0,0,0,0,0,0,0,0,0,0,0,0,0,0,0,0,0,0,0,0,0,0,0,0,0,0,0,0,0,0,0,0,0,0,0,0,0,0,0,0,0,0,0,0,0,0,0,0,0,0,0,0,0,0,0,0,0,0,0,0,0,0,0,0,0,0,0,0,0,0,0,0,0,0,0,0,0,0,0,0,0,0,0,0,0,0,0,0,0,0,0,0,0,0,0,0,0,0,0,0,0,0,0,0,0,0,0,0,0,0,0,0,0,0,0,0,0,0,0,0,0,0,0,0,0,0,0,0,0,0,0,0,0,0,0,0,0,0,0,0,0,0,0,0,0,0,0,0,0,0,0,0,0,0,0,0,0,0,0,0,0,0,0,0,0,0,0,0,0,0,0,0,0,0,0,0,0,0,0,0,0,0,0,0,0,0,0,0,0,0,0,0,0,0,0,0,0,0,0,0,0,0,0,0,0,0,0,0,0,0,0,0,0,0,0,0,0,0,0,0,0,0,0,0,0,0,0,0,0,0,0,0,0,0,0,0,0,0,0,0,0,0,0,0,0,0,0,0,0,0,0,0,0,0,0,0,0,0,0,0,0,0,0,0,0,0,0,0,0,0,0,0,0,0,0,0,0,0,0,0,0,0,0,0,0,0,0,0,0,0,0,0,0,0,0,0,0,0,0,0,0,0,0,0,0,0,0,0,0,0,0,0,0,0,0,0,0,0,0,0,0,0,0,0,0,0,0,0,0,0,0,0,0,0,0,0,0,0,0,0,0,0,0,0,0,0,0,0,0,0,0,0,0,0,0,0,0,0,0,0,0,0,0,0,0,0,0,0,0,0,0,0,0,0,0,0,0,0,0,0,0,0,0,0,0,0,0,0,0,0,0,0,0,0,0,0,0,0,0,0,0,0,0,0,0,0,0,0,0,0,0,0,0,0,0,0,0,0,0,0,0,0,0,0,0,0,0,0,0,0,0,0,0,0,0,0,0,0,0,0,0,0,0,0,0,0,0,0,0,0,0,0,0,0,0,0,0,0,0,0,0,0,0,0,0,0,0,0,0,0,0,0,0,0,0,0,0,0,0,0,0,0,0,0,0,0,0,0,0,0,0,0,0,0,0,0,0,0,0,0,0,0,0,0,0,0,0,0,0,0,0,0,0,0,0,0,0,0,0,0,0,0,0,0,0,0,0,0,0,0,0,0,0,0,0,0,0,0,0,0,0,0,0,0,0,0,0,0,0,0,0,0,0,0,0,0,0,0,0,0,0,0,0,0,0,0,0,0,0,0,0,0,0,0,0,0,0,0,0,0,0,0,0,0,0,0,0,0,0,0,0,0,0]}]],[[{"header":{"parameterUnit":"kt","parameterCategory":2,"dx":1,"dy":1,"la1":29.46422004699707,"la2":30.564109802246094,"lo1":-89.4342041015625,"lo2":-87.934326171875,"nx":46,"ny":34,"refTime":"2022-10-09T00:00:00:Z","depth":"25","parameterNumber":2,"parameterNumberName":"U-component_of_CURRENTS"},"data":[0,0,0,0,0,0,0,0,0,0,0,0,0,0,0,0,0,0,0,0,0,-0.0481,0.0048,-0.0753,-0.1052,-0.0838,-0.0972,-0.1062,-0.1169,-0.1383,-0.1506,-0.1383,-0.0326,0.0854,0.11,0.1078,0.0838,0.0235,-0.008,0.016,0.0689,0.1281,0.1826,0.2333,0.2846,0.3316,0,0,0,0,0,0,0,0,0,0,0,0,0,0,0,0,0,0,0,0,0,0,0,-0.023,-0.0149,-0.0662,-0.0582,-0.0683,-0.1062,-0.1623,-0.1986,-0.1644,-0.0865,-0.0096,0.0262,0.0363,0.0278,0.0043,-0.0176,-0.0203,-0.0064,0.0534,0.1265,0.1874,0.2424,0.3134,0,0,0,0,0,0,0,0,0,0,0,0,0,0,0,0,0,0,0,0,0,0,0,0,-0.0304,0.0331,-0.039,-0.0683,-0.0924,-0.1255,-0.1543,-0.1458,-0.094,-0.0059,0.0139,-0.0416,-0.0747,-0.0721,-0.0219,0.0422,0.0806,0.0961,0.1143,0.1127,0.1164,0.1479,0,0,0,0,0,0,0,0,0,0,0,0,0,0,0,0,0,0,0,0,0,0,0,0,0,-0.023,0.0534,-0.0358,-0.086,-0.094,-0.0769,-0.0342,0.0182,0.0304,0.0053,-0.0187,-0.0411,-0.0529,-0.0315,0.0091,0.0603,0.0892,0.1052,0.0694,-0.0187,-0.0753,0,0,0,0,0,0,0,0,0,0,0,0,0,0,0,0,0,0,0,0,0,0,0,0,0,0,0.0139,0.0438,-0.0187,-0.0683,-0.0646,-0.0117,0.0555,0.0742,0.0721,0.1073,0.1586,0.1628,0.1452,0.1516,0.1415,0.1223,0.103,0.0491,0.0064,-0.0101,0,0,0,0,0,0,0,0,0,0,0,0,0,0,0,0,0,0,0,0,0,0,0,0,0,0,-0.0614,0.0529,0.0422,0.0961,0.1175,0.1463,0.1554,0.158,0.1591,0.173,0.1799,0.1954,0.1847,0.1511,0.1388,0.1351,0.0934,0.04,0.0326,0.0416,0,0,0,0,0,0,0,0,0,0,0,0,0,0,0,0,0,0,0,0,0,0,0,0,0,0,0,0.0278,0.1249,0.2392,0.2339,0.244,0.2627,0.2686,0.2696,0.276,0.2456,0.1826,0.1287,0.0929,0.1057,0.1223,0.0518,-0.0304,-0.0486,0.0107,0,0,0,0,0,0,0,0,0,0,0,0,0,0,0,0,0,0,0,0,0,0,0,0,0,0,0,0.0203,0.1014,0.2077,0.2627,0.2867,0.3129,0.3251,0.3284,0.3097,0.2232,0.134,0.0833,0.0678,0.0913,0.071,-0.0176,-0.0726,-0.0705,-0.0481,0,0,0,0,0,0,0,0,0,0,0,0,0,0,0,0,0,0,0,0,0,0,0,0,0,0,0,0.0043,0.102,0.1607,0.2072,0.2125,0.2109,0.212,0.2034,0.1538,0.0934,0.0694,0.0667,0.0785,0.0753,0.0262,-0.0326,-0.0625,-0.0849,-0.0769,0,0,0,0,0,0,0,0,0,0,0,0,0,0,0,0,0,0,0,0,0,0,0,0,0,0,-0.0545,-0.0085,0.0822,0.1575,0.1345,0.1329,0.1212,0.1009,0.0731,0.0326,0.0288,0.055,0.0694,0.0737,0.0491,0.0032,-0.0416,-0.0774,-0.0758,-0.0577,0,0,0,0,0,0,0,0,0,0,0,0,0,0,0,0,0,0,0,0,0,0,0,0,0,0,-0.055,-0.0203,0.0491,0.1255,0.0988,0.0774,0.0646,0.0374,0.0085,0.0171,0.0518,0.0683,0.0854,0.0881,0.0379,0.0005,-0.0422,-0.0763,-0.0534,-0.0406,0,0,0,0,0,0,0,0,0,0,0,0,0,0,0,0,0,0,0,0,0,0,0,0,0,0,0,-0.0422,-0.0005,0.0635,0.1143,0.0817,0.0571,0.0374,0.0416,0.055,0.0667,0.0902,0.1036,0.0614,0.0059,-0.0326,-0.0683,-0.0416,-0.0363,-0.0432,0,0,0,0,0,0,0,0,0,0,0,0,0,0,0,0,0,0,0,0,0,0,0,0,0,0,0,-0.0598,-0.0256,0.024,0.0603,0.0844,0.0635,0.0432,0.0475,0.071,0.0854,0.0742,0.0464,0.0219,-0.0171,-0.0587,-0.0438,-0.0149,-0.0427,-0.0534,0,0,0,0,0,0,0,0,0,0,0,0,0,0,0,0,0,0,0,0,0,0,0,0,0,0,0,-0.032,-0.0432,-0.0187,0.0219,0.047,0.0529,0.0545,0.0513,0.0571,0.0529,0.0187,-0.0251,-0.0593,-0.0742,-0.0486,-0.0123,-0.0379,-0.0614,-0.0683,0,0,0,0,0,0,0,0,0,0,0,0,0,0,0,0,0,0,0,0,0,0,0,0,0,0,0,-0.0107,-0.0133,-0.0214,-0.0133,-0.016,-0.023,-0.0187,-0.0198,-0.0235,-0.0251,-0.0208,-0.0171,-0.0176,-0.016,-0.0267,-0.0545,-0.0721,-0.078,-0.0769,0,0,0,0,0,0,0,0,0,0,0,0,0,0,0,0,0,0,0,0,0,0,0,0,0,0,0,-0.0096,-0.0112,-0.0166,-0.0192,-0.0128,-0.0069,-0.0053,-0.0021,0.0,-0.0005,-0.0107,-0.0347,-0.0555,-0.0678,0,0,0,0,0,0,0,0,0,0,0,0,0,0,0,0,0,0,0,0,0,0,0,0,0,0,0,0,0,0,0,0,0,0,-0.0432,-0.0459,-0.0464,-0.0459,-0.0454,-0.0454,-0.0475,0,0,0,0,0,0,0,0,0,0,0,0,0,0,0,0,0,0,0,0,0,0,0,0,0,0,0,0,0,0,0,0,0,0,0,0,0,0,0,0,0,0,0,0,0,0,0,0,0,0,0,0,0,0,0,0,0,0,0,0,0,0,0,0,0,0,0,0,0,0,0,0,0,0,0,0,0,0,0,0,0,0,0,0,0,0,0,0,0,0,0,0,0,0,0,0,0,0,0,0,0,0,0,0,0,0,0,0,0,0,0,0,0,0,0,0,0,0,0,0,0,0,0,0,0,0,0,0,0,0,0,0,0,0,0,0,0,0,0,0,0,0,0,0,0,0,0,0,0,0,0,0,0,0,0,0,0,0,0,0,0,0,0,0,0,0,0,0,0,0,0,0,0,0,0,0,0,0,0,0,0,0,0,0,0,0,0,0,0,0,0,0,0,0,0,0,0,0,0,0,0,0,0,0,0,0,0,0,0,0,0,0,0,0,0,0,0,0,0,0,0,0,0,0,0,0,0,0,0,0,0,0,0,0,0,0,0,0,0,0,0,0,0,0,0,0,0,0,0,0,0,0,0,0,0,0,0,0,0,0,0,0,0,0,0,0,0,0,0,0,0,0,0,0,0,0,0,0,0,0,0,0,0,0,0,0,0,0,0,0,0,0,0,0,0,0,0,0,0,0,0,0,0,0,0,0,0,0,0,0,0,0,0,0,0,0,0,0,0,0,0,0,0,0,0,0,0,0,0,0,0,0,0,0,0,0,0,0,0,0,0,0,0,0,0,0,0,0,0,0,0,0,0,0,0,0,0,0,0,0,0,0,0,0,0,0,0,0,0,0,0,0,0,0,0,0,0,0,0,0,0,0,0,0,0,0,0,0,0,0,0,0,0,0,0,0,0,0,0,0,0,0,0,0,0,0,0,0,0,0,0,0,0,0,0,0,0,0,0,0,0,0,0,0,0,0,0,0,0,0,0,0,0,0,0,0,0,0,0,0,0,0,0,0,0,0,0,0,0,0,0,0,0,0,0,0,0,0,0,0,0,0,0,0,0,0,0,0,0,0,0,0,0,0,0,0,0,0,0,0,0,0,0,0,0,0,0,0,0,0,0,0,0,0,0,0,0,0,0,0,0,0,0,0,0,0,0,0,0,0,0,0,0,0,0,0,0,0,0,0,0,0,0,0,0,0,0,0,0,0,0,0,0,0,0,0,0,0,0,0,0,0,0,0,0,0,0,0,0,0,0,0,0,0,0,0,0,0,0,0,0,0,0,0,0,0,0,0,0,0,0,0,0,0,0,0,0,0,0,0,0,0,0,0,0,0,0,0,0,0,0,0,0,0,0,0,0,0,0,0,0,0,0,0,0,0,0,0,0,0,0,0,0,0,0,0,0,0,0,0,0,0,0,0,0,0,0,0,0,0,0,0,0,0,0,0,0,0,0,0,0,0,0,0,0,0,0,0,0,0,0,0,0,0,0,0,0,0,0,0,0,0,0,0,0,0,0,0,0,0,0,0,0,0,0,0,0,0,0,0,0,0,0,0,0,0,0,0,0,0,0,0,0,0,0,0,0,0,0,0,0,0,0,0,0,0,0,0,0,0,0,0,0,0,0,0,0,0,0,0,0,0,0,0,0,0,0,0,0,0,0,0,0,0,0,0,0,0,0,0,0,0,0,0,0,0,0,0,0,0,0,0,0,0,0,0,0,0,0,0,0,0,0,0,0,0,0,0,0,0,0,0,0,0,0,0,0,0,0,0,0,0,0,0,0,0,0,0,0,0,0,0]}],[{"header":{"parameterUnit":"kt","parameterCategory":2,"dx":1,"dy":1,"la1":29.46422004699707,"la2":30.564109802246094,"lo1":-89.4342041015625,"lo2":-87.934326171875,"nx":46,"ny":34,"refTime":"2022-10-09T00:00:00:Z","depth":"25","parameterNumber":3,"parameterNumberName":"V-component_of_CURRENTS"},"data":[0,0,0,0,0,0,0,0,0,0,0,0,0,0,0,0,0,0,0,0,0,-0.0304,-0.1596,-0.2339,-0.1415,-0.0358,0.0187,0.0235,0.0406,0.0988,0.2349,0.338,0.2915,0.2136,0.0828,0.0416,0.0384,0.078,0.1116,0.1356,0.1522,0.1591,0.1655,0.1714,0.1757,0.1762,0,0,0,0,0,0,0,0,0,0,0,0,0,0,0,0,0,0,0,0,0,0,0,-0.0721,-0.165,-0.0518,0.0304,0.0411,0.031,0.0881,0.221,0.3273,0.3001,0.2712,0.173,0.1399,0.079,0.032,0.0625,0.0758,0.0555,0.0272,0.0406,0.071,0.0972,0.1271,0,0,0,0,0,0,0,0,0,0,0,0,0,0,0,0,0,0,0,0,0,0,0,0,-0.0144,-0.0763,0.0555,0.0998,0.0982,0.1233,0.1954,0.2499,0.2424,0.2328,0.2253,0.2178,0.0988,0.0101,0.0123,0.0406,-0.0064,-0.0523,-0.0192,0.0027,0.0085,0.039,0,0,0,0,0,0,0,0,0,0,0,0,0,0,0,0,0,0,0,0,0,0,0,0,0,0.0208,0.0422,0.1538,0.1831,0.189,0.1997,0.1837,0.1575,0.1879,0.2264,0.142,0.0059,-0.0646,-0.0523,-0.0294,-0.032,-0.0769,-0.0304,-0.0043,-0.0096,0.0214,0,0,0,0,0,0,0,0,0,0,0,0,0,0,0,0,0,0,0,0,0,0,0,0,0,0,0.0438,0.1452,0.1975,0.189,0.1725,0.1607,0.15,0.197,0.1847,0.0523,-0.0694,-0.1004,-0.0801,-0.016,-0.0085,-0.0758,-0.0256,0.0246,0.0283,0.0523,0,0,0,0,0,0,0,0,0,0,0,0,0,0,0,0,0,0,0,0,0,0,0,0,0,0,-0.0513,0.1538,0.1709,0.1783,0.1596,0.141,0.1308,0.141,0.1287,0.0406,-0.0566,-0.0801,-0.0683,0.0251,0.0069,-0.0561,0.0155,0.0502,0.0561,0.0774,0,0,0,0,0,0,0,0,0,0,0,0,0,0,0,0,0,0,0,0,0,0,0,0,0,0,0,0.016,0.0641,0.1618,0.1767,0.1735,0.15,0.1271,0.103,0.0283,-0.016,-0.0064,-0.0011,0.0625,0.016,-0.0144,0.0432,0.04,0.0587,0.0865,0,0,0,0,0,0,0,0,0,0,0,0,0,0,0,0,0,0,0,0,0,0,0,0,0,0,0,-0.0384,-0.094,0.0379,0.1036,0.1511,0.1821,0.173,0.1271,0.0902,0.1036,0.0982,0.0699,0.0625,0.0016,0.0235,0.0529,0.0523,0.0571,0.0763,0,0,0,0,0,0,0,0,0,0,0,0,0,0,0,0,0,0,0,0,0,0,0,0,0,0,0,-0.0886,-0.141,-0.0459,0.0283,0.0683,0.1201,0.1575,0.1586,0.1783,0.1869,0.1372,0.094,0.055,0.0198,0.0641,0.0726,0.0683,0.0603,0.0566,0,0,0,0,0,0,0,0,0,0,0,0,0,0,0,0,0,0,0,0,0,0,0,0,0,0,-0.1383,-0.1169,-0.0854,-0.0379,0.0203,0.0582,0.1095,0.1751,0.2109,0.22,0.1874,0.1361,0.1046,0.0619,0.0742,0.087,0.0812,0.0673,0.0523,0.0379,0,0,0,0,0,0,0,0,0,0,0,0,0,0,0,0,0,0,0,0,0,0,0,0,0,0,-0.1159,-0.1068,-0.0331,0.0139,0.047,0.086,0.1484,0.2066,0.2248,0.1959,0.157,0.1313,0.1078,0.1078,0.1223,0.0881,0.0705,0.0475,0.0304,0.0299,0,0,0,0,0,0,0,0,0,0,0,0,0,0,0,0,0,0,0,0,0,0,0,0,0,0,0,-0.0913,-0.0208,0.0384,0.1143,0.1265,0.1511,0.173,0.1794,0.1682,0.1612,0.1516,0.1436,0.1479,0.1201,0.0774,0.0454,0.0192,0.0208,0.0294,0,0,0,0,0,0,0,0,0,0,0,0,0,0,0,0,0,0,0,0,0,0,0,0,0,0,0,-0.0667,-0.0374,0.0144,0.1239,0.1847,0.1895,0.1847,0.1837,0.1842,0.1853,0.1692,0.1548,0.1324,0.087,0.0529,0.0171,0.0144,0.0208,0.0363,0,0,0,0,0,0,0,0,0,0,0,0,0,0,0,0,0,0,0,0,0,0,0,0,0,0,0,-0.0379,-0.0331,-0.0123,0.0448,0.1223,0.165,0.1687,0.1618,0.1495,0.1345,0.1084,0.0886,0.0763,0.0486,0.0192,0.0149,0.0224,0.0315,0.0448,0,0,0,0,0,0,0,0,0,0,0,0,0,0,0,0,0,0,0,0,0,0,0,0,0,0,0,-0.0288,-0.0203,-0.0096,0.0091,0.0278,0.0411,0.047,0.0464,0.0448,0.0443,0.0379,0.0331,0.0347,0.0331,0.0299,0.0272,0.032,0.0406,0.0475,0,0,0,0,0,0,0,0,0,0,0,0,0,0,0,0,0,0,0,0,0,0,0,0,0,0,0,-0.0299,-0.0176,-0.0016,0.0133,0.0203,0.0133,0.0117,0.0139,0.0198,0.0272,0.0331,0.0342,0.0326,0.0347,0,0,0,0,0,0,0,0,0,0,0,0,0,0,0,0,0,0,0,0,0,0,0,0,0,0,0,0,0,0,0,0,0,0,0.0075,0.0144,0.016,0.0112,0.008,0.0059,0.0075,0,0,0,0,0,0,0,0,0,0,0,0,0,0,0,0,0,0,0,0,0,0,0,0,0,0,0,0,0,0,0,0,0,0,0,0,0,0,0,0,0,0,0,0,0,0,0,0,0,0,0,0,0,0,0,0,0,0,0,0,0,0,0,0,0,0,0,0,0,0,0,0,0,0,0,0,0,0,0,0,0,0,0,0,0,0,0,0,0,0,0,0,0,0,0,0,0,0,0,0,0,0,0,0,0,0,0,0,0,0,0,0,0,0,0,0,0,0,0,0,0,0,0,0,0,0,0,0,0,0,0,0,0,0,0,0,0,0,0,0,0,0,0,0,0,0,0,0,0,0,0,0,0,0,0,0,0,0,0,0,0,0,0,0,0,0,0,0,0,0,0,0,0,0,0,0,0,0,0,0,0,0,0,0,0,0,0,0,0,0,0,0,0,0,0,0,0,0,0,0,0,0,0,0,0,0,0,0,0,0,0,0,0,0,0,0,0,0,0,0,0,0,0,0,0,0,0,0,0,0,0,0,0,0,0,0,0,0,0,0,0,0,0,0,0,0,0,0,0,0,0,0,0,0,0,0,0,0,0,0,0,0,0,0,0,0,0,0,0,0,0,0,0,0,0,0,0,0,0,0,0,0,0,0,0,0,0,0,0,0,0,0,0,0,0,0,0,0,0,0,0,0,0,0,0,0,0,0,0,0,0,0,0,0,0,0,0,0,0,0,0,0,0,0,0,0,0,0,0,0,0,0,0,0,0,0,0,0,0,0,0,0,0,0,0,0,0,0,0,0,0,0,0,0,0,0,0,0,0,0,0,0,0,0,0,0,0,0,0,0,0,0,0,0,0,0,0,0,0,0,0,0,0,0,0,0,0,0,0,0,0,0,0,0,0,0,0,0,0,0,0,0,0,0,0,0,0,0,0,0,0,0,0,0,0,0,0,0,0,0,0,0,0,0,0,0,0,0,0,0,0,0,0,0,0,0,0,0,0,0,0,0,0,0,0,0,0,0,0,0,0,0,0,0,0,0,0,0,0,0,0,0,0,0,0,0,0,0,0,0,0,0,0,0,0,0,0,0,0,0,0,0,0,0,0,0,0,0,0,0,0,0,0,0,0,0,0,0,0,0,0,0,0,0,0,0,0,0,0,0,0,0,0,0,0,0,0,0,0,0,0,0,0,0,0,0,0,0,0,0,0,0,0,0,0,0,0,0,0,0,0,0,0,0,0,0,0,0,0,0,0,0,0,0,0,0,0,0,0,0,0,0,0,0,0,0,0,0,0,0,0,0,0,0,0,0,0,0,0,0,0,0,0,0,0,0,0,0,0,0,0,0,0,0,0,0,0,0,0,0,0,0,0,0,0,0,0,0,0,0,0,0,0,0,0,0,0,0,0,0,0,0,0,0,0,0,0,0,0,0,0,0,0,0,0,0,0,0,0,0,0,0,0,0,0,0,0,0,0,0,0,0,0,0,0,0,0,0,0,0,0,0,0,0,0,0,0,0,0,0,0,0,0,0,0,0,0,0,0,0,0,0,0,0,0,0,0,0,0,0,0,0,0,0,0,0,0,0,0,0,0,0,0,0,0,0,0,0,0,0,0,0,0,0,0,0,0,0,0,0,0,0,0,0,0,0,0,0,0,0,0,0,0,0,0,0,0,0,0,0,0,0,0,0,0,0,0,0,0,0,0,0,0,0,0,0,0,0,0,0,0,0,0,0,0,0,0,0,0,0,0,0,0,0,0,0,0,0,0,0,0,0,0,0,0,0,0,0,0,0,0,0]}]]]